<?xml version="1.0" encoding="UTF-8" standalone="no" ?>
<gpx xmlns="http://www.topografix.com/GPX/1/1" xmlns:xsi="http://www.w3.org/2001/XMLSchema-instance" xsi:schemaLocation="http://www.topografix.com/GPX/1/1 http://www.topografix.com/GPX/1/1/gpx.xsd" version="1.1" creator="VisuGPX - https://www.visugpx.com">
  <metadata>
    <name>Sortie du 29/01/2012 : Orvault</name>
    <desc><![CDATA[Sortie du 29/01/2012]]></desc>
  </metadata>
  <trk>
    <name><![CDATA[Entrainement]]></name>
    <cmt><![CDATA[PascalB, Killer Chris, Jjulien, Kito44, Sylvain44, Ahska,]]></cmt>
    <trkseg>
      <trkpt lat="47.27014" lon="-1.62547">
        <ele>51.140613555908</ele>
        <time>2012-01-29T08:27:38Z</time>
      </trkpt>
      <trkpt lat="47.27014" lon="-1.62548">
        <ele>51.1806640625</ele>
        <time>2012-01-29T08:27:39Z</time>
      </trkpt>
      <trkpt lat="47.27012" lon="-1.62552">
        <ele>51.287063598633</ele>
        <time>2012-01-29T08:27:43Z</time>
      </trkpt>
      <trkpt lat="47.27006" lon="-1.62553">
        <ele>51.283191680908</ele>
        <time>2012-01-29T08:27:47Z</time>
      </trkpt>
      <trkpt lat="47.27" lon="-1.62547">
        <ele>51.128170013428</ele>
        <time>2012-01-29T08:27:50Z</time>
      </trkpt>
      <trkpt lat="47.26993" lon="-1.6254">
        <ele>50.309852600098</ele>
        <time>2012-01-29T08:27:55Z</time>
      </trkpt>
      <trkpt lat="47.26984" lon="-1.62542">
        <ele>49.509635925293</ele>
        <time>2012-01-29T08:28:00Z</time>
      </trkpt>
      <trkpt lat="47.26976" lon="-1.62541">
        <ele>48.713233947754</ele>
        <time>2012-01-29T08:28:03Z</time>
      </trkpt>
      <trkpt lat="47.26971" lon="-1.6254">
        <ele>48.170597076416</ele>
        <time>2012-01-29T08:28:05Z</time>
      </trkpt>
      <trkpt lat="47.26968" lon="-1.62534">
        <ele>47.677085876465</ele>
        <time>2012-01-29T08:28:08Z</time>
      </trkpt>
      <trkpt lat="47.26968" lon="-1.62532">
        <ele>47.617294311523</ele>
        <time>2012-01-29T08:28:10Z</time>
      </trkpt>
      <trkpt lat="47.26966" lon="-1.62531">
        <ele>47.340518951416</ele>
        <time>2012-01-29T08:28:13Z</time>
      </trkpt>
      <trkpt lat="47.26962" lon="-1.62515">
        <ele>46.416633605957</ele>
        <time>2012-01-29T08:28:19Z</time>
      </trkpt>
      <trkpt lat="47.26956" lon="-1.62497">
        <ele>45.0846824646</ele>
        <time>2012-01-29T08:28:23Z</time>
      </trkpt>
      <trkpt lat="47.2695" lon="-1.6248">
        <ele>43.527145385742</ele>
        <time>2012-01-29T08:28:26Z</time>
      </trkpt>
      <trkpt lat="47.26935" lon="-1.62457">
        <ele>40.77339553833</ele>
        <time>2012-01-29T08:28:30Z</time>
      </trkpt>
      <trkpt lat="47.26916" lon="-1.62436">
        <ele>37.858421325684</ele>
        <time>2012-01-29T08:28:35Z</time>
      </trkpt>
      <trkpt lat="47.26902" lon="-1.6243">
        <ele>36.249954223633</ele>
        <time>2012-01-29T08:28:38Z</time>
      </trkpt>
      <trkpt lat="47.26873" lon="-1.62417">
        <ele>32.784111022949</ele>
        <time>2012-01-29T08:28:42Z</time>
      </trkpt>
      <trkpt lat="47.26845" lon="-1.62386">
        <ele>28.976373672485</ele>
        <time>2012-01-29T08:28:47Z</time>
      </trkpt>
      <trkpt lat="47.26819" lon="-1.6233">
        <ele>25.989324569702</ele>
        <time>2012-01-29T08:28:53Z</time>
      </trkpt>
      <trkpt lat="47.26791" lon="-1.62308">
        <ele>25.438106536865</ele>
        <time>2012-01-29T08:28:57Z</time>
      </trkpt>
      <trkpt lat="47.26783" lon="-1.62307">
        <ele>25.593194961548</ele>
        <time>2012-01-29T08:28:58Z</time>
      </trkpt>
      <trkpt lat="47.26746" lon="-1.62306">
        <ele>27.275051116943</ele>
        <time>2012-01-29T08:29:03Z</time>
      </trkpt>
      <trkpt lat="47.2672" lon="-1.62289">
        <ele>32.352432250977</ele>
        <time>2012-01-29T08:29:08Z</time>
      </trkpt>
      <trkpt lat="47.26706" lon="-1.62274">
        <ele>35.236778259277</ele>
        <time>2012-01-29T08:29:12Z</time>
      </trkpt>
      <trkpt lat="47.26702" lon="-1.62266">
        <ele>35.997268676758</ele>
        <time>2012-01-29T08:29:14Z</time>
      </trkpt>
      <trkpt lat="47.26694" lon="-1.62246">
        <ele>37.584590911865</ele>
        <time>2012-01-29T08:29:20Z</time>
      </trkpt>
      <trkpt lat="47.26693" lon="-1.62238">
        <ele>37.762516021729</ele>
        <time>2012-01-29T08:29:23Z</time>
      </trkpt>
      <trkpt lat="47.26689" lon="-1.62223">
        <ele>38.333061218262</ele>
        <time>2012-01-29T08:29:28Z</time>
      </trkpt>
      <trkpt lat="47.26689" lon="-1.62214">
        <ele>38.132774353027</ele>
        <time>2012-01-29T08:29:31Z</time>
      </trkpt>
      <trkpt lat="47.26688" lon="-1.62198">
        <ele>37.989688873291</ele>
        <time>2012-01-29T08:29:36Z</time>
      </trkpt>
      <trkpt lat="47.26679" lon="-1.62191">
        <ele>39.512504577637</ele>
        <time>2012-01-29T08:29:41Z</time>
      </trkpt>
      <trkpt lat="47.26674" lon="-1.62188">
        <ele>40.296222686768</ele>
        <time>2012-01-29T08:29:44Z</time>
      </trkpt>
      <trkpt lat="47.26673" lon="-1.62179">
        <ele>40.219394683838</ele>
        <time>2012-01-29T08:29:49Z</time>
      </trkpt>
      <trkpt lat="47.26671" lon="-1.62167">
        <ele>40.263698577881</ele>
        <time>2012-01-29T08:29:53Z</time>
      </trkpt>
      <trkpt lat="47.26667" lon="-1.62165">
        <ele>40.773685455322</ele>
        <time>2012-01-29T08:29:55Z</time>
      </trkpt>
      <trkpt lat="47.26654" lon="-1.62157">
        <ele>41.783695220947</ele>
        <time>2012-01-29T08:30:03Z</time>
      </trkpt>
      <trkpt lat="47.26654" lon="-1.62157">
        <ele>41.828022003174</ele>
        <time>2012-01-29T08:30:05Z</time>
      </trkpt>
      <trkpt lat="47.26653" lon="-1.62152">
        <ele>41.649845123291</ele>
        <time>2012-01-29T08:30:24Z</time>
      </trkpt>
      <trkpt lat="47.26652" lon="-1.62152">
        <ele>41.730438232422</ele>
        <time>2012-01-29T08:30:25Z</time>
      </trkpt>
      <trkpt lat="47.26641" lon="-1.62146">
        <ele>42.46028137207</ele>
        <time>2012-01-29T08:30:32Z</time>
      </trkpt>
      <trkpt lat="47.26632" lon="-1.62139">
        <ele>42.932899475098</ele>
        <time>2012-01-29T08:30:37Z</time>
      </trkpt>
      <trkpt lat="47.26617" lon="-1.62135">
        <ele>43.948566436768</ele>
        <time>2012-01-29T08:30:44Z</time>
      </trkpt>
      <trkpt lat="47.26603" lon="-1.62137">
        <ele>45.36954498291</ele>
        <time>2012-01-29T08:30:50Z</time>
      </trkpt>
      <trkpt lat="47.26584" lon="-1.62141">
        <ele>47.412551879883</ele>
        <time>2012-01-29T08:30:57Z</time>
      </trkpt>
      <trkpt lat="47.26565" lon="-1.62143">
        <ele>48.334182739258</ele>
        <time>2012-01-29T08:31:04Z</time>
      </trkpt>
      <trkpt lat="47.26549" lon="-1.62142">
        <ele>48.896087646484</ele>
        <time>2012-01-29T08:31:10Z</time>
      </trkpt>
      <trkpt lat="47.26529" lon="-1.62143">
        <ele>49.647964477539</ele>
        <time>2012-01-29T08:31:17Z</time>
      </trkpt>
      <trkpt lat="47.26505" lon="-1.62145">
        <ele>50.782073974609</ele>
        <time>2012-01-29T08:31:25Z</time>
      </trkpt>
      <trkpt lat="47.26485" lon="-1.62149">
        <ele>51.559280395508</ele>
        <time>2012-01-29T08:31:32Z</time>
      </trkpt>
      <trkpt lat="47.2647" lon="-1.62155">
        <ele>52.309169769287</ele>
        <time>2012-01-29T08:31:38Z</time>
      </trkpt>
      <trkpt lat="47.26452" lon="-1.62159">
        <ele>52.955760955811</ele>
        <time>2012-01-29T08:31:46Z</time>
      </trkpt>
      <trkpt lat="47.26441" lon="-1.62162">
        <ele>53.365810394287</ele>
        <time>2012-01-29T08:31:52Z</time>
      </trkpt>
      <trkpt lat="47.2644" lon="-1.62164">
        <ele>53.506576538086</ele>
        <time>2012-01-29T08:31:53Z</time>
      </trkpt>
      <trkpt lat="47.26442" lon="-1.62177">
        <ele>54.4069480896</ele>
        <time>2012-01-29T08:31:58Z</time>
      </trkpt>
      <trkpt lat="47.26447" lon="-1.62182">
        <ele>54.738540649414</ele>
        <time>2012-01-29T08:32:01Z</time>
      </trkpt>
      <trkpt lat="47.26449" lon="-1.62188">
        <ele>55.135936737061</ele>
        <time>2012-01-29T08:32:05Z</time>
      </trkpt>
      <trkpt lat="47.26447" lon="-1.62192">
        <ele>55.48698425293</ele>
        <time>2012-01-29T08:32:26Z</time>
      </trkpt>
      <trkpt lat="47.2645" lon="-1.62199">
        <ele>55.92357635498</ele>
        <time>2012-01-29T08:32:31Z</time>
      </trkpt>
      <trkpt lat="47.26452" lon="-1.62205">
        <ele>56.330127716064</ele>
        <time>2012-01-29T08:32:34Z</time>
      </trkpt>
      <trkpt lat="47.26457" lon="-1.62217">
        <ele>57.158679962158</ele>
        <time>2012-01-29T08:32:38Z</time>
      </trkpt>
      <trkpt lat="47.26464" lon="-1.62232">
        <ele>58.144588470459</ele>
        <time>2012-01-29T08:32:42Z</time>
      </trkpt>
      <trkpt lat="47.26472" lon="-1.62261">
        <ele>59.429950714111</ele>
        <time>2012-01-29T08:32:47Z</time>
      </trkpt>
      <trkpt lat="47.26474" lon="-1.62283">
        <ele>59.552352905273</ele>
        <time>2012-01-29T08:32:51Z</time>
      </trkpt>
      <trkpt lat="47.26477" lon="-1.62295">
        <ele>59.570182800293</ele>
        <time>2012-01-29T08:32:53Z</time>
      </trkpt>
      <trkpt lat="47.26474" lon="-1.62316">
        <ele>59.809276580811</ele>
        <time>2012-01-29T08:32:58Z</time>
      </trkpt>
      <trkpt lat="47.26476" lon="-1.62335">
        <ele>59.845657348633</ele>
        <time>2012-01-29T08:33:02Z</time>
      </trkpt>
      <trkpt lat="47.26478" lon="-1.62352">
        <ele>59.665866851807</ele>
        <time>2012-01-29T08:33:08Z</time>
      </trkpt>
      <trkpt lat="47.26479" lon="-1.62369">
        <ele>59.533958435059</ele>
        <time>2012-01-29T08:33:12Z</time>
      </trkpt>
      <trkpt lat="47.26482" lon="-1.62389">
        <ele>59.359203338623</ele>
        <time>2012-01-29T08:33:17Z</time>
      </trkpt>
      <trkpt lat="47.26488" lon="-1.62395">
        <ele>59.209178924561</ele>
        <time>2012-01-29T08:33:20Z</time>
      </trkpt>
      <trkpt lat="47.26493" lon="-1.62412">
        <ele>59.091632843018</ele>
        <time>2012-01-29T08:33:25Z</time>
      </trkpt>
      <trkpt lat="47.26495" lon="-1.62423">
        <ele>58.918601989746</ele>
        <time>2012-01-29T08:33:27Z</time>
      </trkpt>
      <trkpt lat="47.265" lon="-1.62441">
        <ele>58.420291900635</ele>
        <time>2012-01-29T08:33:30Z</time>
      </trkpt>
      <trkpt lat="47.26503" lon="-1.62467">
        <ele>57.613792419434</ele>
        <time>2012-01-29T08:33:34Z</time>
      </trkpt>
      <trkpt lat="47.265" lon="-1.62472">
        <ele>57.651271820068</ele>
        <time>2012-01-29T08:33:37Z</time>
      </trkpt>
      <trkpt lat="47.26485" lon="-1.62479">
        <ele>58.325290679932</ele>
        <time>2012-01-29T08:33:52Z</time>
      </trkpt>
      <trkpt lat="47.2648" lon="-1.62482">
        <ele>58.626472473145</ele>
        <time>2012-01-29T08:33:54Z</time>
      </trkpt>
      <trkpt lat="47.26464" lon="-1.62491">
        <ele>59.544582366943</ele>
        <time>2012-01-29T08:34:00Z</time>
      </trkpt>
      <trkpt lat="47.2645" lon="-1.62507">
        <ele>60.371589660645</ele>
        <time>2012-01-29T08:34:06Z</time>
      </trkpt>
      <trkpt lat="47.26435" lon="-1.62521">
        <ele>61.171184539795</ele>
        <time>2012-01-29T08:34:12Z</time>
      </trkpt>
      <trkpt lat="47.26418" lon="-1.62541">
        <ele>62.428127288818</ele>
        <time>2012-01-29T08:34:20Z</time>
      </trkpt>
      <trkpt lat="47.26403" lon="-1.62554">
        <ele>63.452743530273</ele>
        <time>2012-01-29T08:34:26Z</time>
      </trkpt>
      <trkpt lat="47.26388" lon="-1.62561">
        <ele>64.76163482666</ele>
        <time>2012-01-29T08:34:31Z</time>
      </trkpt>
      <trkpt lat="47.26371" lon="-1.62557">
        <ele>66.179527282715</ele>
        <time>2012-01-29T08:34:36Z</time>
      </trkpt>
      <trkpt lat="47.26347" lon="-1.62546">
        <ele>68.012954711914</ele>
        <time>2012-01-29T08:34:43Z</time>
      </trkpt>
      <trkpt lat="47.26318" lon="-1.62536">
        <ele>68.809761047363</ele>
        <time>2012-01-29T08:34:51Z</time>
      </trkpt>
      <trkpt lat="47.26298" lon="-1.62531">
        <ele>68.691505432129</ele>
        <time>2012-01-29T08:34:57Z</time>
      </trkpt>
      <trkpt lat="47.26274" lon="-1.62525">
        <ele>68.670745849609</ele>
        <time>2012-01-29T08:35:04Z</time>
      </trkpt>
      <trkpt lat="47.26254" lon="-1.62513">
        <ele>68.816413879395</ele>
        <time>2012-01-29T08:35:10Z</time>
      </trkpt>
      <trkpt lat="47.26236" lon="-1.62508">
        <ele>68.381134033203</ele>
        <time>2012-01-29T08:35:15Z</time>
      </trkpt>
      <trkpt lat="47.2622" lon="-1.62503">
        <ele>67.890838623047</ele>
        <time>2012-01-29T08:35:19Z</time>
      </trkpt>
      <trkpt lat="47.26194" lon="-1.62496">
        <ele>66.983261108398</ele>
        <time>2012-01-29T08:35:25Z</time>
      </trkpt>
      <trkpt lat="47.26181" lon="-1.62492">
        <ele>66.485252380371</ele>
        <time>2012-01-29T08:35:28Z</time>
      </trkpt>
      <trkpt lat="47.26166" lon="-1.6248">
        <ele>65.752792358398</ele>
        <time>2012-01-29T08:35:34Z</time>
      </trkpt>
      <trkpt lat="47.2615" lon="-1.62474">
        <ele>65.481430053711</ele>
        <time>2012-01-29T08:35:40Z</time>
      </trkpt>
      <trkpt lat="47.26143" lon="-1.6247">
        <ele>65.355545043945</ele>
        <time>2012-01-29T08:35:43Z</time>
      </trkpt>
      <trkpt lat="47.26127" lon="-1.62449">
        <ele>64.909080505371</ele>
        <time>2012-01-29T08:35:50Z</time>
      </trkpt>
      <trkpt lat="47.26116" lon="-1.62446">
        <ele>64.743995666504</ele>
        <time>2012-01-29T08:35:54Z</time>
      </trkpt>
      <trkpt lat="47.26107" lon="-1.62438">
        <ele>64.542724609375</ele>
        <time>2012-01-29T08:35:59Z</time>
      </trkpt>
      <trkpt lat="47.26098" lon="-1.62418">
        <ele>64.190246582031</ele>
        <time>2012-01-29T08:36:04Z</time>
      </trkpt>
      <trkpt lat="47.26096" lon="-1.62414">
        <ele>64.065963745117</ele>
        <time>2012-01-29T08:36:05Z</time>
      </trkpt>
      <trkpt lat="47.26072" lon="-1.62402">
        <ele>63.577053070068</ele>
        <time>2012-01-29T08:36:11Z</time>
      </trkpt>
      <trkpt lat="47.26059" lon="-1.62381">
        <ele>62.900173187256</ele>
        <time>2012-01-29T08:36:15Z</time>
      </trkpt>
      <trkpt lat="47.26046" lon="-1.62379">
        <ele>62.871440887451</ele>
        <time>2012-01-29T08:36:18Z</time>
      </trkpt>
      <trkpt lat="47.26031" lon="-1.62369">
        <ele>62.541217803955</ele>
        <time>2012-01-29T08:36:22Z</time>
      </trkpt>
      <trkpt lat="47.26028" lon="-1.62365">
        <ele>62.389385223389</ele>
        <time>2012-01-29T08:36:23Z</time>
      </trkpt>
      <trkpt lat="47.26022" lon="-1.62356">
        <ele>62.011837005615</ele>
        <time>2012-01-29T08:36:25Z</time>
      </trkpt>
      <trkpt lat="47.26007" lon="-1.6234">
        <ele>61.322975158691</ele>
        <time>2012-01-29T08:36:29Z</time>
      </trkpt>
      <trkpt lat="47.25983" lon="-1.62317">
        <ele>60.56029510498</ele>
        <time>2012-01-29T08:36:35Z</time>
      </trkpt>
      <trkpt lat="47.25974" lon="-1.62301">
        <ele>60.096923828125</ele>
        <time>2012-01-29T08:36:38Z</time>
      </trkpt>
      <trkpt lat="47.25972" lon="-1.62276">
        <ele>59.40657043457</ele>
        <time>2012-01-29T08:36:42Z</time>
      </trkpt>
      <trkpt lat="47.25973" lon="-1.6227">
        <ele>59.237861633301</ele>
        <time>2012-01-29T08:36:43Z</time>
      </trkpt>
      <trkpt lat="47.25985" lon="-1.62218">
        <ele>58.301582336426</ele>
        <time>2012-01-29T08:36:50Z</time>
      </trkpt>
      <trkpt lat="47.25996" lon="-1.62179">
        <ele>58.012260437012</ele>
        <time>2012-01-29T08:36:55Z</time>
      </trkpt>
      <trkpt lat="47.26003" lon="-1.62148">
        <ele>57.477893829346</ele>
        <time>2012-01-29T08:36:59Z</time>
      </trkpt>
      <trkpt lat="47.26019" lon="-1.62077">
        <ele>55.34986114502</ele>
        <time>2012-01-29T08:37:08Z</time>
      </trkpt>
      <trkpt lat="47.26027" lon="-1.6203">
        <ele>53.838653564453</ele>
        <time>2012-01-29T08:37:14Z</time>
      </trkpt>
      <trkpt lat="47.26034" lon="-1.61995">
        <ele>53.183765411377</ele>
        <time>2012-01-29T08:37:19Z</time>
      </trkpt>
      <trkpt lat="47.2604" lon="-1.61958">
        <ele>53.148242950439</ele>
        <time>2012-01-29T08:37:24Z</time>
      </trkpt>
      <trkpt lat="47.26044" lon="-1.61939">
        <ele>53.283641815186</ele>
        <time>2012-01-29T08:37:27Z</time>
      </trkpt>
      <trkpt lat="47.26049" lon="-1.61938">
        <ele>53.567687988281</ele>
        <time>2012-01-29T08:37:29Z</time>
      </trkpt>
      <trkpt lat="47.26058" lon="-1.61939">
        <ele>54.140529632568</ele>
        <time>2012-01-29T08:37:33Z</time>
      </trkpt>
      <trkpt lat="47.26073" lon="-1.61935">
        <ele>55.148555755615</ele>
        <time>2012-01-29T08:37:38Z</time>
      </trkpt>
      <trkpt lat="47.26088" lon="-1.61933">
        <ele>55.365268707275</ele>
        <time>2012-01-29T08:37:42Z</time>
      </trkpt>
      <trkpt lat="47.26106" lon="-1.61932">
        <ele>53.439888000488</ele>
        <time>2012-01-29T08:37:45Z</time>
      </trkpt>
      <trkpt lat="47.2611" lon="-1.61917">
        <ele>53.068672180176</ele>
        <time>2012-01-29T08:37:49Z</time>
      </trkpt>
      <trkpt lat="47.2611" lon="-1.61916">
        <ele>53.061046600342</ele>
        <time>2012-01-29T08:37:50Z</time>
      </trkpt>
      <trkpt lat="47.26122" lon="-1.6192">
        <ele>51.872394561768</ele>
        <time>2012-01-29T08:37:56Z</time>
      </trkpt>
      <trkpt lat="47.2613" lon="-1.6191">
        <ele>50.848880767822</ele>
        <time>2012-01-29T08:38:02Z</time>
      </trkpt>
      <trkpt lat="47.26132" lon="-1.61903">
        <ele>50.4953956604</ele>
        <time>2012-01-29T08:38:05Z</time>
      </trkpt>
      <trkpt lat="47.2613" lon="-1.61898">
        <ele>50.691997528076</ele>
        <time>2012-01-29T08:38:08Z</time>
      </trkpt>
      <trkpt lat="47.26131" lon="-1.61885">
        <ele>50.303375244141</ele>
        <time>2012-01-29T08:38:12Z</time>
      </trkpt>
      <trkpt lat="47.26131" lon="-1.6188">
        <ele>50.253528594971</ele>
        <time>2012-01-29T08:38:13Z</time>
      </trkpt>
      <trkpt lat="47.26124" lon="-1.61852">
        <ele>50.42297744751</ele>
        <time>2012-01-29T08:38:19Z</time>
      </trkpt>
      <trkpt lat="47.26122" lon="-1.61849">
        <ele>50.620048522949</ele>
        <time>2012-01-29T08:38:20Z</time>
      </trkpt>
      <trkpt lat="47.26115" lon="-1.61824">
        <ele>50.636390686035</ele>
        <time>2012-01-29T08:38:25Z</time>
      </trkpt>
      <trkpt lat="47.26122" lon="-1.61816">
        <ele>49.718776702881</ele>
        <time>2012-01-29T08:38:28Z</time>
      </trkpt>
      <trkpt lat="47.26125" lon="-1.61806">
        <ele>49.178112030029</ele>
        <time>2012-01-29T08:38:30Z</time>
      </trkpt>
      <trkpt lat="47.26126" lon="-1.61783">
        <ele>48.355556488037</ele>
        <time>2012-01-29T08:38:34Z</time>
      </trkpt>
      <trkpt lat="47.26131" lon="-1.61767">
        <ele>47.480590820312</ele>
        <time>2012-01-29T08:38:37Z</time>
      </trkpt>
      <trkpt lat="47.26133" lon="-1.61758">
        <ele>47.073268890381</ele>
        <time>2012-01-29T08:38:40Z</time>
      </trkpt>
      <trkpt lat="47.26139" lon="-1.6174">
        <ele>45.996273040771</ele>
        <time>2012-01-29T08:38:44Z</time>
      </trkpt>
      <trkpt lat="47.26144" lon="-1.61722">
        <ele>45.120529174805</ele>
        <time>2012-01-29T08:38:47Z</time>
      </trkpt>
      <trkpt lat="47.26144" lon="-1.61717">
        <ele>44.970741271973</ele>
        <time>2012-01-29T08:38:48Z</time>
      </trkpt>
      <trkpt lat="47.26147" lon="-1.61706">
        <ele>44.524795532227</ele>
        <time>2012-01-29T08:38:50Z</time>
      </trkpt>
      <trkpt lat="47.26149" lon="-1.61672">
        <ele>43.555404663086</ele>
        <time>2012-01-29T08:38:55Z</time>
      </trkpt>
      <trkpt lat="47.26149" lon="-1.61669">
        <ele>43.469734191895</ele>
        <time>2012-01-29T08:38:56Z</time>
      </trkpt>
      <trkpt lat="47.26148" lon="-1.61666">
        <ele>43.4372215271</ele>
        <time>2012-01-29T08:38:59Z</time>
      </trkpt>
      <trkpt lat="47.26148" lon="-1.61662">
        <ele>43.39041519165</ele>
        <time>2012-01-29T08:39:09Z</time>
      </trkpt>
      <trkpt lat="47.26148" lon="-1.61656">
        <ele>43.294841766357</ele>
        <time>2012-01-29T08:39:13Z</time>
      </trkpt>
      <trkpt lat="47.26149" lon="-1.61641">
        <ele>43.063095092773</ele>
        <time>2012-01-29T08:39:19Z</time>
      </trkpt>
      <trkpt lat="47.26145" lon="-1.61632">
        <ele>42.996768951416</ele>
        <time>2012-01-29T08:39:22Z</time>
      </trkpt>
      <trkpt lat="47.26146" lon="-1.61625">
        <ele>42.867782592773</ele>
        <time>2012-01-29T08:39:26Z</time>
      </trkpt>
      <trkpt lat="47.26151" lon="-1.61617">
        <ele>42.656261444092</ele>
        <time>2012-01-29T08:39:29Z</time>
      </trkpt>
      <trkpt lat="47.26149" lon="-1.61611">
        <ele>42.617496490479</ele>
        <time>2012-01-29T08:39:31Z</time>
      </trkpt>
      <trkpt lat="47.26145" lon="-1.61601">
        <ele>42.53210067749</ele>
        <time>2012-01-29T08:39:35Z</time>
      </trkpt>
      <trkpt lat="47.26146" lon="-1.61603">
        <ele>42.540420532227</ele>
        <time>2012-01-29T08:39:38Z</time>
      </trkpt>
      <trkpt lat="47.26139" lon="-1.616">
        <ele>42.599788665771</ele>
        <time>2012-01-29T08:40:17Z</time>
      </trkpt>
      <trkpt lat="47.26142" lon="-1.61597">
        <ele>42.505218505859</ele>
        <time>2012-01-29T08:40:20Z</time>
      </trkpt>
      <trkpt lat="47.26147" lon="-1.61591">
        <ele>42.336357116699</ele>
        <time>2012-01-29T08:40:24Z</time>
      </trkpt>
      <trkpt lat="47.26151" lon="-1.61586">
        <ele>42.225944519043</ele>
        <time>2012-01-29T08:40:27Z</time>
      </trkpt>
      <trkpt lat="47.26156" lon="-1.61581">
        <ele>42.134166717529</ele>
        <time>2012-01-29T08:40:31Z</time>
      </trkpt>
      <trkpt lat="47.26165" lon="-1.6157">
        <ele>42.017826080322</ele>
        <time>2012-01-29T08:40:36Z</time>
      </trkpt>
      <trkpt lat="47.26168" lon="-1.61566">
        <ele>41.89278793335</ele>
        <time>2012-01-29T08:40:37Z</time>
      </trkpt>
      <trkpt lat="47.26174" lon="-1.6156">
        <ele>41.221645355225</ele>
        <time>2012-01-29T08:40:39Z</time>
      </trkpt>
      <trkpt lat="47.2618" lon="-1.61543">
        <ele>40.376773834229</ele>
        <time>2012-01-29T08:40:43Z</time>
      </trkpt>
      <trkpt lat="47.26177" lon="-1.61536">
        <ele>40.697250366211</ele>
        <time>2012-01-29T08:40:46Z</time>
      </trkpt>
      <trkpt lat="47.2618" lon="-1.61533">
        <ele>40.34850692749</ele>
        <time>2012-01-29T08:40:49Z</time>
      </trkpt>
      <trkpt lat="47.26181" lon="-1.61533">
        <ele>40.201393127441</ele>
        <time>2012-01-29T08:40:51Z</time>
      </trkpt>
      <trkpt lat="47.26185" lon="-1.6153">
        <ele>39.644855499268</ele>
        <time>2012-01-29T08:40:54Z</time>
      </trkpt>
      <trkpt lat="47.26195" lon="-1.61506">
        <ele>37.991088867188</ele>
        <time>2012-01-29T08:41:01Z</time>
      </trkpt>
      <trkpt lat="47.262" lon="-1.615">
        <ele>37.188980102539</ele>
        <time>2012-01-29T08:41:03Z</time>
      </trkpt>
      <trkpt lat="47.26204" lon="-1.61485">
        <ele>35.9045753479</ele>
        <time>2012-01-29T08:41:07Z</time>
      </trkpt>
      <trkpt lat="47.26208" lon="-1.61449">
        <ele>33.608905792236</ele>
        <time>2012-01-29T08:41:13Z</time>
      </trkpt>
      <trkpt lat="47.2621" lon="-1.61443">
        <ele>32.975078582764</ele>
        <time>2012-01-29T08:41:14Z</time>
      </trkpt>
      <trkpt lat="47.26208" lon="-1.61417">
        <ele>32.072574615479</ele>
        <time>2012-01-29T08:41:19Z</time>
      </trkpt>
      <trkpt lat="47.26213" lon="-1.61407">
        <ele>30.682308197021</ele>
        <time>2012-01-29T08:41:24Z</time>
      </trkpt>
      <trkpt lat="47.26212" lon="-1.61396">
        <ele>30.443981170654</ele>
        <time>2012-01-29T08:41:28Z</time>
      </trkpt>
      <trkpt lat="47.26212" lon="-1.61393">
        <ele>30.348541259766</ele>
        <time>2012-01-29T08:41:30Z</time>
      </trkpt>
      <trkpt lat="47.26212" lon="-1.61393">
        <ele>30.243482589722</ele>
        <time>2012-01-29T08:41:31Z</time>
      </trkpt>
      <trkpt lat="47.26215" lon="-1.61391">
        <ele>29.666124343872</ele>
        <time>2012-01-29T08:42:03Z</time>
      </trkpt>
      <trkpt lat="47.26215" lon="-1.61391">
        <ele>29.682758331299</ele>
        <time>2012-01-29T08:42:04Z</time>
      </trkpt>
      <trkpt lat="47.26226" lon="-1.61381">
        <ele>27.140787124634</ele>
        <time>2012-01-29T08:42:33Z</time>
      </trkpt>
      <trkpt lat="47.26233" lon="-1.61375">
        <ele>25.697895050049</ele>
        <time>2012-01-29T08:42:35Z</time>
      </trkpt>
      <trkpt lat="47.26242" lon="-1.61365">
        <ele>23.622867584229</ele>
        <time>2012-01-29T08:42:37Z</time>
      </trkpt>
      <trkpt lat="47.26255" lon="-1.61348">
        <ele>21.279327392578</ele>
        <time>2012-01-29T08:42:40Z</time>
      </trkpt>
      <trkpt lat="47.26275" lon="-1.61334">
        <ele>19.814346313477</ele>
        <time>2012-01-29T08:42:44Z</time>
      </trkpt>
      <trkpt lat="47.26284" lon="-1.61333">
        <ele>19.3408203125</ele>
        <time>2012-01-29T08:42:46Z</time>
      </trkpt>
      <trkpt lat="47.26293" lon="-1.61325">
        <ele>18.84672164917</ele>
        <time>2012-01-29T08:42:50Z</time>
      </trkpt>
      <trkpt lat="47.26302" lon="-1.61317">
        <ele>18.291826248169</ele>
        <time>2012-01-29T08:42:55Z</time>
      </trkpt>
      <trkpt lat="47.26313" lon="-1.61312">
        <ele>17.739791870117</ele>
        <time>2012-01-29T08:43:00Z</time>
      </trkpt>
      <trkpt lat="47.26319" lon="-1.61313">
        <ele>17.442960739136</ele>
        <time>2012-01-29T08:43:06Z</time>
      </trkpt>
      <trkpt lat="47.26319" lon="-1.61317">
        <ele>17.481298446655</ele>
        <time>2012-01-29T08:43:08Z</time>
      </trkpt>
      <trkpt lat="47.26315" lon="-1.61318">
        <ele>17.698307037354</ele>
        <time>2012-01-29T08:43:13Z</time>
      </trkpt>
      <trkpt lat="47.26314" lon="-1.61313">
        <ele>17.677421569824</ele>
        <time>2012-01-29T08:43:17Z</time>
      </trkpt>
      <trkpt lat="47.26312" lon="-1.61312">
        <ele>17.77398109436</ele>
        <time>2012-01-29T08:43:20Z</time>
      </trkpt>
      <trkpt lat="47.26308" lon="-1.61318">
        <ele>18.009586334229</ele>
        <time>2012-01-29T08:43:23Z</time>
      </trkpt>
      <trkpt lat="47.26301" lon="-1.61328">
        <ele>18.493385314941</ele>
        <time>2012-01-29T08:43:29Z</time>
      </trkpt>
      <trkpt lat="47.26293" lon="-1.6133">
        <ele>18.890781402588</ele>
        <time>2012-01-29T08:43:33Z</time>
      </trkpt>
      <trkpt lat="47.26287" lon="-1.61329">
        <ele>19.182891845703</ele>
        <time>2012-01-29T08:43:37Z</time>
      </trkpt>
      <trkpt lat="47.26276" lon="-1.61331">
        <ele>19.742794036865</ele>
        <time>2012-01-29T08:43:42Z</time>
      </trkpt>
      <trkpt lat="47.26269" lon="-1.61339">
        <ele>20.300315856934</ele>
        <time>2012-01-29T08:43:46Z</time>
      </trkpt>
      <trkpt lat="47.26261" lon="-1.61353">
        <ele>21.214647293091</ele>
        <time>2012-01-29T08:43:52Z</time>
      </trkpt>
      <trkpt lat="47.26255" lon="-1.61359">
        <ele>21.70295715332</ele>
        <time>2012-01-29T08:43:56Z</time>
      </trkpt>
      <trkpt lat="47.26246" lon="-1.61371">
        <ele>23.045436859131</ele>
        <time>2012-01-29T08:44:02Z</time>
      </trkpt>
      <trkpt lat="47.26243" lon="-1.61373">
        <ele>23.677824020386</ele>
        <time>2012-01-29T08:44:03Z</time>
      </trkpt>
      <trkpt lat="47.26231" lon="-1.61377">
        <ele>26.118829727173</ele>
        <time>2012-01-29T08:44:07Z</time>
      </trkpt>
      <trkpt lat="47.26222" lon="-1.61387">
        <ele>28.229042053223</ele>
        <time>2012-01-29T08:44:14Z</time>
      </trkpt>
      <trkpt lat="47.26217" lon="-1.61387">
        <ele>29.143695831299</ele>
        <time>2012-01-29T08:44:17Z</time>
      </trkpt>
      <trkpt lat="47.26205" lon="-1.61389">
        <ele>31.448564529419</ele>
        <time>2012-01-29T08:44:24Z</time>
      </trkpt>
      <trkpt lat="47.26198" lon="-1.6139">
        <ele>32.770030975342</ele>
        <time>2012-01-29T08:44:27Z</time>
      </trkpt>
      <trkpt lat="47.26188" lon="-1.61391">
        <ele>34.864475250244</ele>
        <time>2012-01-29T08:44:34Z</time>
      </trkpt>
      <trkpt lat="47.26186" lon="-1.61392">
        <ele>35.09351348877</ele>
        <time>2012-01-29T08:44:36Z</time>
      </trkpt>
      <trkpt lat="47.26182" lon="-1.61396">
        <ele>36.076740264893</ele>
        <time>2012-01-29T08:45:04Z</time>
      </trkpt>
      <trkpt lat="47.26182" lon="-1.61397">
        <ele>36.171787261963</ele>
        <time>2012-01-29T08:45:05Z</time>
      </trkpt>
      <trkpt lat="47.2618" lon="-1.61397">
        <ele>36.564334869385</ele>
        <time>2012-01-29T08:45:12Z</time>
      </trkpt>
      <trkpt lat="47.26179" lon="-1.61401">
        <ele>36.907524108887</ele>
        <time>2012-01-29T08:45:20Z</time>
      </trkpt>
      <trkpt lat="47.2618" lon="-1.61404">
        <ele>36.796226501465</ele>
        <time>2012-01-29T08:45:25Z</time>
      </trkpt>
      <trkpt lat="47.26181" lon="-1.614">
        <ele>36.417835235596</ele>
        <time>2012-01-29T08:45:51Z</time>
      </trkpt>
      <trkpt lat="47.26183" lon="-1.61397">
        <ele>35.968990325928</ele>
        <time>2012-01-29T08:45:55Z</time>
      </trkpt>
      <trkpt lat="47.26181" lon="-1.61407">
        <ele>36.743782043457</ele>
        <time>2012-01-29T08:46:32Z</time>
      </trkpt>
      <trkpt lat="47.26181" lon="-1.61407">
        <ele>36.856906890869</ele>
        <time>2012-01-29T08:46:33Z</time>
      </trkpt>
      <trkpt lat="47.2618" lon="-1.61405">
        <ele>36.914920806885</ele>
        <time>2012-01-29T08:46:36Z</time>
      </trkpt>
      <trkpt lat="47.26181" lon="-1.61396">
        <ele>36.360233306885</ele>
        <time>2012-01-29T08:46:46Z</time>
      </trkpt>
      <trkpt lat="47.2618" lon="-1.61401">
        <ele>36.835117340088</ele>
        <time>2012-01-29T08:46:50Z</time>
      </trkpt>
      <trkpt lat="47.26181" lon="-1.61404">
        <ele>36.646778106689</ele>
        <time>2012-01-29T08:46:53Z</time>
      </trkpt>
      <trkpt lat="47.26184" lon="-1.61407">
        <ele>36.157585144043</ele>
        <time>2012-01-29T08:47:00Z</time>
      </trkpt>
      <trkpt lat="47.26185" lon="-1.6141">
        <ele>36.134246826172</ele>
        <time>2012-01-29T08:47:02Z</time>
      </trkpt>
      <trkpt lat="47.26184" lon="-1.61422">
        <ele>36.851215362549</ele>
        <time>2012-01-29T08:47:09Z</time>
      </trkpt>
      <trkpt lat="47.26184" lon="-1.61433">
        <ele>37.205379486084</ele>
        <time>2012-01-29T08:47:15Z</time>
      </trkpt>
      <trkpt lat="47.26183" lon="-1.61445">
        <ele>37.881744384766</ele>
        <time>2012-01-29T08:47:20Z</time>
      </trkpt>
      <trkpt lat="47.26183" lon="-1.6145">
        <ele>38.044174194336</ele>
        <time>2012-01-29T08:47:22Z</time>
      </trkpt>
      <trkpt lat="47.26179" lon="-1.61457">
        <ele>38.930229187012</ele>
        <time>2012-01-29T08:47:27Z</time>
      </trkpt>
      <trkpt lat="47.26169" lon="-1.61463">
        <ele>40.768089294434</ele>
        <time>2012-01-29T08:47:35Z</time>
      </trkpt>
      <trkpt lat="47.26168" lon="-1.61464">
        <ele>40.974235534668</ele>
        <time>2012-01-29T08:47:37Z</time>
      </trkpt>
      <trkpt lat="47.26163" lon="-1.61467">
        <ele>41.336036682129</ele>
        <time>2012-01-29T08:47:50Z</time>
      </trkpt>
      <trkpt lat="47.26161" lon="-1.6147">
        <ele>41.512294769287</ele>
        <time>2012-01-29T08:47:53Z</time>
      </trkpt>
      <trkpt lat="47.26161" lon="-1.61476">
        <ele>41.626865386963</ele>
        <time>2012-01-29T08:47:56Z</time>
      </trkpt>
      <trkpt lat="47.26162" lon="-1.6149">
        <ele>41.90446472168</ele>
        <time>2012-01-29T08:48:03Z</time>
      </trkpt>
      <trkpt lat="47.26154" lon="-1.61496">
        <ele>42.23694229126</ele>
        <time>2012-01-29T08:48:08Z</time>
      </trkpt>
      <trkpt lat="47.2615" lon="-1.61505">
        <ele>42.393573760986</ele>
        <time>2012-01-29T08:48:12Z</time>
      </trkpt>
      <trkpt lat="47.26149" lon="-1.61512">
        <ele>42.39478302002</ele>
        <time>2012-01-29T08:48:14Z</time>
      </trkpt>
      <trkpt lat="47.26146" lon="-1.61533">
        <ele>42.406681060791</ele>
        <time>2012-01-29T08:48:21Z</time>
      </trkpt>
      <trkpt lat="47.26141" lon="-1.61542">
        <ele>42.455444335938</ele>
        <time>2012-01-29T08:48:24Z</time>
      </trkpt>
      <trkpt lat="47.26139" lon="-1.61549">
        <ele>42.474487304688</ele>
        <time>2012-01-29T08:48:26Z</time>
      </trkpt>
      <trkpt lat="47.26138" lon="-1.61578">
        <ele>42.370155334473</ele>
        <time>2012-01-29T08:48:32Z</time>
      </trkpt>
      <trkpt lat="47.26134" lon="-1.61584">
        <ele>42.392169952393</ele>
        <time>2012-01-29T08:48:34Z</time>
      </trkpt>
      <trkpt lat="47.26131" lon="-1.61598">
        <ele>42.683666229248</ele>
        <time>2012-01-29T08:48:38Z</time>
      </trkpt>
      <trkpt lat="47.2613" lon="-1.61606">
        <ele>42.845684051514</ele>
        <time>2012-01-29T08:48:41Z</time>
      </trkpt>
      <trkpt lat="47.26132" lon="-1.61624">
        <ele>43.103439331055</ele>
        <time>2012-01-29T08:48:46Z</time>
      </trkpt>
      <trkpt lat="47.26132" lon="-1.61628">
        <ele>43.16450881958</ele>
        <time>2012-01-29T08:48:47Z</time>
      </trkpt>
      <trkpt lat="47.26124" lon="-1.61644">
        <ele>43.617729187012</ele>
        <time>2012-01-29T08:48:53Z</time>
      </trkpt>
      <trkpt lat="47.26114" lon="-1.61656">
        <ele>44.048934936523</ele>
        <time>2012-01-29T08:48:58Z</time>
      </trkpt>
      <trkpt lat="47.26107" lon="-1.61664">
        <ele>44.359348297119</ele>
        <time>2012-01-29T08:49:02Z</time>
      </trkpt>
      <trkpt lat="47.26104" lon="-1.61677">
        <ele>45.106822967529</ele>
        <time>2012-01-29T08:49:07Z</time>
      </trkpt>
      <trkpt lat="47.26105" lon="-1.61687">
        <ele>45.631175994873</ele>
        <time>2012-01-29T08:49:10Z</time>
      </trkpt>
      <trkpt lat="47.26098" lon="-1.61705">
        <ele>46.985290527344</ele>
        <time>2012-01-29T08:49:15Z</time>
      </trkpt>
      <trkpt lat="47.26099" lon="-1.61717">
        <ele>47.702213287354</ele>
        <time>2012-01-29T08:49:18Z</time>
      </trkpt>
      <trkpt lat="47.26104" lon="-1.61748">
        <ele>49.16040802002</ele>
        <time>2012-01-29T08:49:24Z</time>
      </trkpt>
      <trkpt lat="47.26103" lon="-1.61752">
        <ele>49.418773651123</ele>
        <time>2012-01-29T08:49:25Z</time>
      </trkpt>
      <trkpt lat="47.26097" lon="-1.61768">
        <ele>50.478034973145</ele>
        <time>2012-01-29T08:49:30Z</time>
      </trkpt>
      <trkpt lat="47.26094" lon="-1.61776">
        <ele>50.961555480957</ele>
        <time>2012-01-29T08:49:32Z</time>
      </trkpt>
      <trkpt lat="47.26091" lon="-1.61801">
        <ele>52.104015350342</ele>
        <time>2012-01-29T08:49:38Z</time>
      </trkpt>
      <trkpt lat="47.2609" lon="-1.61804">
        <ele>52.324157714844</ele>
        <time>2012-01-29T08:49:39Z</time>
      </trkpt>
      <trkpt lat="47.26088" lon="-1.61817">
        <ele>52.92956161499</ele>
        <time>2012-01-29T08:49:44Z</time>
      </trkpt>
      <trkpt lat="47.26083" lon="-1.61818">
        <ele>53.44681930542</ele>
        <time>2012-01-29T08:49:48Z</time>
      </trkpt>
      <trkpt lat="47.26075" lon="-1.61819">
        <ele>53.292896270752</ele>
        <time>2012-01-29T08:49:52Z</time>
      </trkpt>
      <trkpt lat="47.26075" lon="-1.6182">
        <ele>53.308631896973</ele>
        <time>2012-01-29T08:49:53Z</time>
      </trkpt>
      <trkpt lat="47.26076" lon="-1.61832">
        <ele>53.755668640137</ele>
        <time>2012-01-29T08:50:00Z</time>
      </trkpt>
      <trkpt lat="47.2608" lon="-1.61844">
        <ele>54.150894165039</ele>
        <time>2012-01-29T08:50:06Z</time>
      </trkpt>
      <trkpt lat="47.26083" lon="-1.61855">
        <ele>54.523265838623</ele>
        <time>2012-01-29T08:50:11Z</time>
      </trkpt>
      <trkpt lat="47.26083" lon="-1.6186">
        <ele>54.631099700928</ele>
        <time>2012-01-29T08:50:13Z</time>
      </trkpt>
      <trkpt lat="47.26085" lon="-1.61869">
        <ele>54.736175537109</ele>
        <time>2012-01-29T08:50:16Z</time>
      </trkpt>
      <trkpt lat="47.2609" lon="-1.61884">
        <ele>54.532802581787</ele>
        <time>2012-01-29T08:50:22Z</time>
      </trkpt>
      <trkpt lat="47.26093" lon="-1.61888">
        <ele>54.347682952881</ele>
        <time>2012-01-29T08:50:24Z</time>
      </trkpt>
      <trkpt lat="47.26099" lon="-1.61898">
        <ele>53.858215332031</ele>
        <time>2012-01-29T08:50:28Z</time>
      </trkpt>
      <trkpt lat="47.26108" lon="-1.61917">
        <ele>53.31413269043</ele>
        <time>2012-01-29T08:50:33Z</time>
      </trkpt>
      <trkpt lat="47.2611" lon="-1.61924">
        <ele>53.080619812012</ele>
        <time>2012-01-29T08:50:36Z</time>
      </trkpt>
      <trkpt lat="47.26103" lon="-1.61923">
        <ele>53.852108001709</ele>
        <time>2012-01-29T08:50:42Z</time>
      </trkpt>
      <trkpt lat="47.26092" lon="-1.61925">
        <ele>55.009414672852</ele>
        <time>2012-01-29T08:50:48Z</time>
      </trkpt>
      <trkpt lat="47.26084" lon="-1.61929">
        <ele>55.812728881836</ele>
        <time>2012-01-29T08:50:54Z</time>
      </trkpt>
      <trkpt lat="47.26083" lon="-1.61926">
        <ele>55.834228515625</ele>
        <time>2012-01-29T08:50:59Z</time>
      </trkpt>
      <trkpt lat="47.26083" lon="-1.61926">
        <ele>55.878910064697</ele>
        <time>2012-01-29T08:51:00Z</time>
      </trkpt>
      <trkpt lat="47.26093" lon="-1.61927">
        <ele>54.872043609619</ele>
        <time>2012-01-29T08:51:06Z</time>
      </trkpt>
      <trkpt lat="47.26095" lon="-1.61926">
        <ele>54.640018463135</ele>
        <time>2012-01-29T08:51:07Z</time>
      </trkpt>
      <trkpt lat="47.26107" lon="-1.61929">
        <ele>53.416778564453</ele>
        <time>2012-01-29T08:51:11Z</time>
      </trkpt>
      <trkpt lat="47.2611" lon="-1.61922">
        <ele>53.088764190674</ele>
        <time>2012-01-29T08:51:16Z</time>
      </trkpt>
      <trkpt lat="47.2611" lon="-1.61916">
        <ele>53.094291687012</ele>
        <time>2012-01-29T08:51:19Z</time>
      </trkpt>
      <trkpt lat="47.26113" lon="-1.61917">
        <ele>52.822479248047</ele>
        <time>2012-01-29T08:51:21Z</time>
      </trkpt>
      <trkpt lat="47.26115" lon="-1.61918">
        <ele>52.572566986084</ele>
        <time>2012-01-29T08:51:25Z</time>
      </trkpt>
      <trkpt lat="47.26126" lon="-1.6191">
        <ele>51.301483154297</ele>
        <time>2012-01-29T08:51:38Z</time>
      </trkpt>
      <trkpt lat="47.26127" lon="-1.61903">
        <ele>51.053016662598</ele>
        <time>2012-01-29T08:51:41Z</time>
      </trkpt>
      <trkpt lat="47.26125" lon="-1.61894">
        <ele>51.13846206665</ele>
        <time>2012-01-29T08:51:45Z</time>
      </trkpt>
      <trkpt lat="47.26127" lon="-1.61881">
        <ele>50.632640838623</ele>
        <time>2012-01-29T08:51:48Z</time>
      </trkpt>
      <trkpt lat="47.26128" lon="-1.61863">
        <ele>50.197765350342</ele>
        <time>2012-01-29T08:51:51Z</time>
      </trkpt>
      <trkpt lat="47.26123" lon="-1.61848">
        <ele>50.500423431396</ele>
        <time>2012-01-29T08:51:54Z</time>
      </trkpt>
      <trkpt lat="47.26117" lon="-1.61832">
        <ele>50.747455596924</ele>
        <time>2012-01-29T08:51:58Z</time>
      </trkpt>
      <trkpt lat="47.2612" lon="-1.61826">
        <ele>50.246109008789</ele>
        <time>2012-01-29T08:52:01Z</time>
      </trkpt>
      <trkpt lat="47.26123" lon="-1.61815">
        <ele>49.59383392334</ele>
        <time>2012-01-29T08:52:04Z</time>
      </trkpt>
      <trkpt lat="47.26122" lon="-1.61791">
        <ele>48.959053039551</ele>
        <time>2012-01-29T08:52:08Z</time>
      </trkpt>
      <trkpt lat="47.26128" lon="-1.61769">
        <ele>47.790866851807</ele>
        <time>2012-01-29T08:52:12Z</time>
      </trkpt>
      <trkpt lat="47.26133" lon="-1.6176">
        <ele>47.149196624756</ele>
        <time>2012-01-29T08:52:15Z</time>
      </trkpt>
      <trkpt lat="47.26139" lon="-1.61745">
        <ele>46.141017913818</ele>
        <time>2012-01-29T08:52:18Z</time>
      </trkpt>
      <trkpt lat="47.26148" lon="-1.61711">
        <ele>44.592304229736</ele>
        <time>2012-01-29T08:52:24Z</time>
      </trkpt>
      <trkpt lat="47.2615" lon="-1.61699">
        <ele>44.182857513428</ele>
        <time>2012-01-29T08:52:26Z</time>
      </trkpt>
      <trkpt lat="47.2615" lon="-1.61667">
        <ele>43.416400909424</ele>
        <time>2012-01-29T08:52:31Z</time>
      </trkpt>
      <trkpt lat="47.26147" lon="-1.61667">
        <ele>43.471046447754</ele>
        <time>2012-01-29T08:52:34Z</time>
      </trkpt>
      <trkpt lat="47.26146" lon="-1.61656">
        <ele>43.340724945068</ele>
        <time>2012-01-29T08:52:40Z</time>
      </trkpt>
      <trkpt lat="47.26147" lon="-1.61645">
        <ele>43.153503417969</ele>
        <time>2012-01-29T08:52:45Z</time>
      </trkpt>
      <trkpt lat="47.26146" lon="-1.61638">
        <ele>43.060363769531</ele>
        <time>2012-01-29T08:52:47Z</time>
      </trkpt>
      <trkpt lat="47.26144" lon="-1.61627">
        <ele>42.939575195312</ele>
        <time>2012-01-29T08:52:52Z</time>
      </trkpt>
      <trkpt lat="47.2615" lon="-1.61622">
        <ele>42.76256942749</ele>
        <time>2012-01-29T08:52:55Z</time>
      </trkpt>
      <trkpt lat="47.2615" lon="-1.61609">
        <ele>42.574989318848</ele>
        <time>2012-01-29T08:52:58Z</time>
      </trkpt>
      <trkpt lat="47.26143" lon="-1.61596">
        <ele>42.485382080078</ele>
        <time>2012-01-29T08:53:01Z</time>
      </trkpt>
      <trkpt lat="47.26146" lon="-1.61589">
        <ele>42.332126617432</ele>
        <time>2012-01-29T08:53:06Z</time>
      </trkpt>
      <trkpt lat="47.26152" lon="-1.61582">
        <ele>42.173488616943</ele>
        <time>2012-01-29T08:53:10Z</time>
      </trkpt>
      <trkpt lat="47.26162" lon="-1.61574">
        <ele>42.062980651855</ele>
        <time>2012-01-29T08:53:14Z</time>
      </trkpt>
      <trkpt lat="47.26167" lon="-1.6156">
        <ele>42.002029418945</ele>
        <time>2012-01-29T08:53:17Z</time>
      </trkpt>
      <trkpt lat="47.26171" lon="-1.61556">
        <ele>41.502750396729</ele>
        <time>2012-01-29T08:53:19Z</time>
      </trkpt>
      <trkpt lat="47.26183" lon="-1.61536">
        <ele>40.043273925781</ele>
        <time>2012-01-29T08:53:24Z</time>
      </trkpt>
      <trkpt lat="47.26183" lon="-1.61535">
        <ele>40.03039932251</ele>
        <time>2012-01-29T08:53:25Z</time>
      </trkpt>
      <trkpt lat="47.26178" lon="-1.61531">
        <ele>40.527015686035</ele>
        <time>2012-01-29T08:53:28Z</time>
      </trkpt>
      <trkpt lat="47.2618" lon="-1.61528">
        <ele>40.31192779541</ele>
        <time>2012-01-29T08:53:33Z</time>
      </trkpt>
      <trkpt lat="47.26183" lon="-1.61525">
        <ele>39.94344329834</ele>
        <time>2012-01-29T08:53:35Z</time>
      </trkpt>
      <trkpt lat="47.26189" lon="-1.61522">
        <ele>39.062923431396</ele>
        <time>2012-01-29T08:53:39Z</time>
      </trkpt>
      <trkpt lat="47.26194" lon="-1.61508">
        <ele>38.138263702393</ele>
        <time>2012-01-29T08:53:44Z</time>
      </trkpt>
      <trkpt lat="47.26203" lon="-1.61494">
        <ele>36.527156829834</ele>
        <time>2012-01-29T08:53:49Z</time>
      </trkpt>
      <trkpt lat="47.26203" lon="-1.61491">
        <ele>36.384033203125</ele>
        <time>2012-01-29T08:53:50Z</time>
      </trkpt>
      <trkpt lat="47.26204" lon="-1.61466">
        <ele>35.108196258545</ele>
        <time>2012-01-29T08:53:55Z</time>
      </trkpt>
      <trkpt lat="47.2621" lon="-1.61449">
        <ele>33.239540100098</ele>
        <time>2012-01-29T08:53:58Z</time>
      </trkpt>
      <trkpt lat="47.2621" lon="-1.61417">
        <ele>31.784816741943</ele>
        <time>2012-01-29T08:54:03Z</time>
      </trkpt>
      <trkpt lat="47.26217" lon="-1.61404">
        <ele>29.857133865356</ele>
        <time>2012-01-29T08:54:07Z</time>
      </trkpt>
      <trkpt lat="47.26216" lon="-1.61396">
        <ele>29.66749382019</ele>
        <time>2012-01-29T08:54:11Z</time>
      </trkpt>
      <trkpt lat="47.26204" lon="-1.61387">
        <ele>31.637210845947</ele>
        <time>2012-01-29T08:54:18Z</time>
      </trkpt>
      <trkpt lat="47.26201" lon="-1.61386">
        <ele>32.121398925781</ele>
        <time>2012-01-29T08:54:19Z</time>
      </trkpt>
      <trkpt lat="47.26184" lon="-1.61384">
        <ele>35.179317474365</ele>
        <time>2012-01-29T08:54:26Z</time>
      </trkpt>
      <trkpt lat="47.26176" lon="-1.61383">
        <ele>36.637691497803</ele>
        <time>2012-01-29T08:54:31Z</time>
      </trkpt>
      <trkpt lat="47.26173" lon="-1.61383">
        <ele>37.109523773193</ele>
        <time>2012-01-29T08:54:34Z</time>
      </trkpt>
      <trkpt lat="47.26171" lon="-1.61384">
        <ele>37.551555633545</ele>
        <time>2012-01-29T08:54:36Z</time>
      </trkpt>
      <trkpt lat="47.2617" lon="-1.61384">
        <ele>37.823291778564</ele>
        <time>2012-01-29T08:54:39Z</time>
      </trkpt>
      <trkpt lat="47.26167" lon="-1.61377">
        <ele>38.120616912842</ele>
        <time>2012-01-29T08:56:23Z</time>
      </trkpt>
      <trkpt lat="47.26165" lon="-1.61375">
        <ele>38.138919830322</ele>
        <time>2012-01-29T08:56:25Z</time>
      </trkpt>
      <trkpt lat="47.26151" lon="-1.61373">
        <ele>39.129863739014</ele>
        <time>2012-01-29T08:56:30Z</time>
      </trkpt>
      <trkpt lat="47.2614" lon="-1.61367">
        <ele>39.757904052734</ele>
        <time>2012-01-29T08:56:35Z</time>
      </trkpt>
      <trkpt lat="47.26139" lon="-1.61365">
        <ele>39.734149932861</ele>
        <time>2012-01-29T08:56:36Z</time>
      </trkpt>
      <trkpt lat="47.26134" lon="-1.61357">
        <ele>39.733646392822</ele>
        <time>2012-01-29T08:56:42Z</time>
      </trkpt>
      <trkpt lat="47.26136" lon="-1.61354">
        <ele>39.492752075195</ele>
        <time>2012-01-29T08:57:03Z</time>
      </trkpt>
      <trkpt lat="47.26134" lon="-1.61363">
        <ele>39.997821807861</ele>
        <time>2012-01-29T08:57:14Z</time>
      </trkpt>
      <trkpt lat="47.26134" lon="-1.61363">
        <ele>39.989547729492</ele>
        <time>2012-01-29T08:57:17Z</time>
      </trkpt>
      <trkpt lat="47.26135" lon="-1.61357">
        <ele>39.694110870361</ele>
        <time>2012-01-29T08:57:20Z</time>
      </trkpt>
      <trkpt lat="47.26136" lon="-1.61352">
        <ele>39.423480987549</ele>
        <time>2012-01-29T08:57:23Z</time>
      </trkpt>
      <trkpt lat="47.26133" lon="-1.61349">
        <ele>39.529289245605</ele>
        <time>2012-01-29T08:57:28Z</time>
      </trkpt>
      <trkpt lat="47.2613" lon="-1.61348">
        <ele>39.704883575439</ele>
        <time>2012-01-29T08:57:35Z</time>
      </trkpt>
      <trkpt lat="47.2613" lon="-1.61345">
        <ele>39.603931427002</ele>
        <time>2012-01-29T08:57:39Z</time>
      </trkpt>
      <trkpt lat="47.2613" lon="-1.61332">
        <ele>39.025608062744</ele>
        <time>2012-01-29T08:58:08Z</time>
      </trkpt>
      <trkpt lat="47.26136" lon="-1.6131">
        <ele>38.029727935791</ele>
        <time>2012-01-29T08:58:16Z</time>
      </trkpt>
      <trkpt lat="47.26144" lon="-1.61283">
        <ele>37.096168518066</ele>
        <time>2012-01-29T08:58:23Z</time>
      </trkpt>
      <trkpt lat="47.26147" lon="-1.61268">
        <ele>36.745182037354</ele>
        <time>2012-01-29T08:58:26Z</time>
      </trkpt>
      <trkpt lat="47.26157" lon="-1.61229">
        <ele>36.289432525635</ele>
        <time>2012-01-29T08:58:32Z</time>
      </trkpt>
      <trkpt lat="47.26174" lon="-1.61175">
        <ele>34.863712310791</ele>
        <time>2012-01-29T08:58:39Z</time>
      </trkpt>
      <trkpt lat="47.2619" lon="-1.61132">
        <ele>33.76993560791</ele>
        <time>2012-01-29T08:58:44Z</time>
      </trkpt>
      <trkpt lat="47.26205" lon="-1.61081">
        <ele>33.578063964844</ele>
        <time>2012-01-29T08:58:49Z</time>
      </trkpt>
      <trkpt lat="47.26208" lon="-1.61061">
        <ele>33.899547576904</ele>
        <time>2012-01-29T08:58:51Z</time>
      </trkpt>
      <trkpt lat="47.26217" lon="-1.61024">
        <ele>34.420608520508</ele>
        <time>2012-01-29T08:58:56Z</time>
      </trkpt>
      <trkpt lat="47.26225" lon="-1.61001">
        <ele>34.727474212646</ele>
        <time>2012-01-29T08:59:00Z</time>
      </trkpt>
      <trkpt lat="47.26228" lon="-1.60987">
        <ele>34.260372161865</ele>
        <time>2012-01-29T08:59:02Z</time>
      </trkpt>
      <trkpt lat="47.26236" lon="-1.60953">
        <ele>33.231067657471</ele>
        <time>2012-01-29T08:59:07Z</time>
      </trkpt>
      <trkpt lat="47.26235" lon="-1.60932">
        <ele>33.191703796387</ele>
        <time>2012-01-29T08:59:11Z</time>
      </trkpt>
      <trkpt lat="47.26239" lon="-1.60901">
        <ele>32.957355499268</ele>
        <time>2012-01-29T08:59:17Z</time>
      </trkpt>
      <trkpt lat="47.26239" lon="-1.6088">
        <ele>33.203594207764</ele>
        <time>2012-01-29T08:59:21Z</time>
      </trkpt>
      <trkpt lat="47.26238" lon="-1.60869">
        <ele>33.338382720947</ele>
        <time>2012-01-29T08:59:23Z</time>
      </trkpt>
      <trkpt lat="47.26236" lon="-1.60836">
        <ele>33.816696166992</ele>
        <time>2012-01-29T08:59:28Z</time>
      </trkpt>
      <trkpt lat="47.26236" lon="-1.60829">
        <ele>33.408336639404</ele>
        <time>2012-01-29T08:59:29Z</time>
      </trkpt>
      <trkpt lat="47.26236" lon="-1.60813">
        <ele>31.848407745361</ele>
        <time>2012-01-29T08:59:31Z</time>
      </trkpt>
      <trkpt lat="47.26236" lon="-1.60773">
        <ele>27.846025466919</ele>
        <time>2012-01-29T08:59:36Z</time>
      </trkpt>
      <trkpt lat="47.26237" lon="-1.60766">
        <ele>27.069644927979</ele>
        <time>2012-01-29T08:59:37Z</time>
      </trkpt>
      <trkpt lat="47.2624" lon="-1.60738">
        <ele>24.016780853271</ele>
        <time>2012-01-29T08:59:41Z</time>
      </trkpt>
      <trkpt lat="47.26245" lon="-1.60715">
        <ele>21.062557220459</ele>
        <time>2012-01-29T08:59:45Z</time>
      </trkpt>
      <trkpt lat="47.26249" lon="-1.60714">
        <ele>20.742538452148</ele>
        <time>2012-01-29T08:59:48Z</time>
      </trkpt>
      <trkpt lat="47.26252" lon="-1.60715">
        <ele>20.781005859375</ele>
        <time>2012-01-29T08:59:52Z</time>
      </trkpt>
      <trkpt lat="47.26251" lon="-1.60714">
        <ele>20.641483306885</ele>
        <time>2012-01-29T09:00:44Z</time>
      </trkpt>
      <trkpt lat="47.26251" lon="-1.60714">
        <ele>20.630167007446</ele>
        <time>2012-01-29T09:00:45Z</time>
      </trkpt>
      <trkpt lat="47.26257" lon="-1.60703">
        <ele>19.498495101929</ele>
        <time>2012-01-29T09:00:54Z</time>
      </trkpt>
      <trkpt lat="47.26265" lon="-1.60681">
        <ele>17.514499664307</ele>
        <time>2012-01-29T09:01:00Z</time>
      </trkpt>
      <trkpt lat="47.2627" lon="-1.60662">
        <ele>16.80753326416</ele>
        <time>2012-01-29T09:01:04Z</time>
      </trkpt>
      <trkpt lat="47.26272" lon="-1.60656">
        <ele>17.279735565186</ele>
        <time>2012-01-29T09:01:05Z</time>
      </trkpt>
      <trkpt lat="47.26278" lon="-1.60621">
        <ele>19.722755432129</ele>
        <time>2012-01-29T09:01:11Z</time>
      </trkpt>
      <trkpt lat="47.26279" lon="-1.60609">
        <ele>20.461233139038</ele>
        <time>2012-01-29T09:01:13Z</time>
      </trkpt>
      <trkpt lat="47.26284" lon="-1.60558">
        <ele>22.919368743896</ele>
        <time>2012-01-29T09:01:21Z</time>
      </trkpt>
      <trkpt lat="47.26285" lon="-1.60531">
        <ele>24.093952178955</ele>
        <time>2012-01-29T09:01:25Z</time>
      </trkpt>
      <trkpt lat="47.26283" lon="-1.60498">
        <ele>25.995670318604</ele>
        <time>2012-01-29T09:01:30Z</time>
      </trkpt>
      <trkpt lat="47.26274" lon="-1.60463">
        <ele>29.017293930054</ele>
        <time>2012-01-29T09:01:36Z</time>
      </trkpt>
      <trkpt lat="47.26279" lon="-1.60441">
        <ele>29.026086807251</ele>
        <time>2012-01-29T09:01:40Z</time>
      </trkpt>
      <trkpt lat="47.26289" lon="-1.60418">
        <ele>27.911745071411</ele>
        <time>2012-01-29T09:01:45Z</time>
      </trkpt>
      <trkpt lat="47.26299" lon="-1.60383">
        <ele>25.763757705689</ele>
        <time>2012-01-29T09:01:51Z</time>
      </trkpt>
      <trkpt lat="47.263" lon="-1.60377">
        <ele>25.438535690308</ele>
        <time>2012-01-29T09:01:52Z</time>
      </trkpt>
      <trkpt lat="47.26307" lon="-1.60353">
        <ele>24.185453414917</ele>
        <time>2012-01-29T09:01:56Z</time>
      </trkpt>
      <trkpt lat="47.2631" lon="-1.60339">
        <ele>23.713499069214</ele>
        <time>2012-01-29T09:01:59Z</time>
      </trkpt>
      <trkpt lat="47.26308" lon="-1.6033">
        <ele>23.968284606934</ele>
        <time>2012-01-29T09:02:02Z</time>
      </trkpt>
      <trkpt lat="47.26306" lon="-1.60324">
        <ele>24.188369750977</ele>
        <time>2012-01-29T09:02:04Z</time>
      </trkpt>
      <trkpt lat="47.26303" lon="-1.60308">
        <ele>24.414089202881</ele>
        <time>2012-01-29T09:02:09Z</time>
      </trkpt>
      <trkpt lat="47.26298" lon="-1.60284">
        <ele>24.581813812256</ele>
        <time>2012-01-29T09:02:14Z</time>
      </trkpt>
      <trkpt lat="47.26297" lon="-1.60273">
        <ele>24.52813911438</ele>
        <time>2012-01-29T09:02:16Z</time>
      </trkpt>
      <trkpt lat="47.26292" lon="-1.60251">
        <ele>24.487632751465</ele>
        <time>2012-01-29T09:02:20Z</time>
      </trkpt>
      <trkpt lat="47.2628" lon="-1.60212">
        <ele>23.32649230957</ele>
        <time>2012-01-29T09:02:25Z</time>
      </trkpt>
      <trkpt lat="47.26272" lon="-1.60202">
        <ele>22.916667938232</ele>
        <time>2012-01-29T09:02:27Z</time>
      </trkpt>
      <trkpt lat="47.26264" lon="-1.6019">
        <ele>22.19016456604</ele>
        <time>2012-01-29T09:02:29Z</time>
      </trkpt>
      <trkpt lat="47.2625" lon="-1.60176">
        <ele>20.863063812256</ele>
        <time>2012-01-29T09:02:32Z</time>
      </trkpt>
      <trkpt lat="47.26233" lon="-1.60154">
        <ele>21.046783447266</ele>
        <time>2012-01-29T09:02:36Z</time>
      </trkpt>
      <trkpt lat="47.26211" lon="-1.60133">
        <ele>22.153427124023</ele>
        <time>2012-01-29T09:02:41Z</time>
      </trkpt>
      <trkpt lat="47.26207" lon="-1.6012">
        <ele>21.937133789062</ele>
        <time>2012-01-29T09:02:45Z</time>
      </trkpt>
      <trkpt lat="47.262" lon="-1.60106">
        <ele>21.855880737305</ele>
        <time>2012-01-29T09:02:50Z</time>
      </trkpt>
      <trkpt lat="47.26192" lon="-1.60099">
        <ele>22.306205749512</ele>
        <time>2012-01-29T09:02:54Z</time>
      </trkpt>
      <trkpt lat="47.26186" lon="-1.6008">
        <ele>22.093017578125</ele>
        <time>2012-01-29T09:02:59Z</time>
      </trkpt>
      <trkpt lat="47.26184" lon="-1.60058">
        <ele>21.639135360718</ele>
        <time>2012-01-29T09:03:03Z</time>
      </trkpt>
      <trkpt lat="47.26183" lon="-1.60031">
        <ele>21.069496154785</ele>
        <time>2012-01-29T09:03:08Z</time>
      </trkpt>
      <trkpt lat="47.26184" lon="-1.60005">
        <ele>20.271970748901</ele>
        <time>2012-01-29T09:03:12Z</time>
      </trkpt>
      <trkpt lat="47.2619" lon="-1.59964">
        <ele>18.818971633911</ele>
        <time>2012-01-29T09:03:19Z</time>
      </trkpt>
      <trkpt lat="47.26193" lon="-1.59952">
        <ele>18.366872787476</ele>
        <time>2012-01-29T09:03:21Z</time>
      </trkpt>
      <trkpt lat="47.26197" lon="-1.59921">
        <ele>17.381853103638</ele>
        <time>2012-01-29T09:03:26Z</time>
      </trkpt>
      <trkpt lat="47.26199" lon="-1.59908">
        <ele>16.929765701294</ele>
        <time>2012-01-29T09:03:28Z</time>
      </trkpt>
      <trkpt lat="47.262" lon="-1.59887">
        <ele>16.219701766968</ele>
        <time>2012-01-29T09:03:31Z</time>
      </trkpt>
      <trkpt lat="47.26199" lon="-1.59875">
        <ele>15.811779022217</ele>
        <time>2012-01-29T09:03:33Z</time>
      </trkpt>
      <trkpt lat="47.26207" lon="-1.59858">
        <ele>15.238176345825</ele>
        <time>2012-01-29T09:03:38Z</time>
      </trkpt>
      <trkpt lat="47.26217" lon="-1.59844">
        <ele>14.89096736908</ele>
        <time>2012-01-29T09:03:44Z</time>
      </trkpt>
      <trkpt lat="47.26223" lon="-1.59835">
        <ele>14.7102394104</ele>
        <time>2012-01-29T09:03:50Z</time>
      </trkpt>
      <trkpt lat="47.26223" lon="-1.59835">
        <ele>14.707997322082</ele>
        <time>2012-01-29T09:03:51Z</time>
      </trkpt>
      <trkpt lat="47.26225" lon="-1.59831">
        <ele>14.66863822937</ele>
        <time>2012-01-29T09:04:15Z</time>
      </trkpt>
      <trkpt lat="47.26231" lon="-1.59825">
        <ele>14.663917541504</ele>
        <time>2012-01-29T09:04:21Z</time>
      </trkpt>
      <trkpt lat="47.2624" lon="-1.59816">
        <ele>14.669353485107</ele>
        <time>2012-01-29T09:04:28Z</time>
      </trkpt>
      <trkpt lat="47.26247" lon="-1.59807">
        <ele>14.648324966431</ele>
        <time>2012-01-29T09:04:35Z</time>
      </trkpt>
      <trkpt lat="47.2625" lon="-1.59804">
        <ele>14.639598846436</ele>
        <time>2012-01-29T09:04:39Z</time>
      </trkpt>
      <trkpt lat="47.26262" lon="-1.59796">
        <ele>16.103254318237</ele>
        <time>2012-01-29T09:04:54Z</time>
      </trkpt>
      <trkpt lat="47.26266" lon="-1.59791">
        <ele>16.475093841553</ele>
        <time>2012-01-29T09:04:57Z</time>
      </trkpt>
      <trkpt lat="47.2627" lon="-1.59789">
        <ele>16.91404914856</ele>
        <time>2012-01-29T09:05:00Z</time>
      </trkpt>
      <trkpt lat="47.26273" lon="-1.59791">
        <ele>17.387952804565</ele>
        <time>2012-01-29T09:05:05Z</time>
      </trkpt>
      <trkpt lat="47.26271" lon="-1.59789">
        <ele>17.057723999023</ele>
        <time>2012-01-29T09:05:08Z</time>
      </trkpt>
      <trkpt lat="47.26274" lon="-1.59785">
        <ele>17.433046340942</ele>
        <time>2012-01-29T09:05:10Z</time>
      </trkpt>
      <trkpt lat="47.26284" lon="-1.59774">
        <ele>18.492164611816</ele>
        <time>2012-01-29T09:05:15Z</time>
      </trkpt>
      <trkpt lat="47.26301" lon="-1.59755">
        <ele>20.188306808472</ele>
        <time>2012-01-29T09:05:20Z</time>
      </trkpt>
      <trkpt lat="47.2631" lon="-1.5974">
        <ele>21.201765060425</ele>
        <time>2012-01-29T09:05:23Z</time>
      </trkpt>
      <trkpt lat="47.26331" lon="-1.59719">
        <ele>23.355720520019</ele>
        <time>2012-01-29T09:05:29Z</time>
      </trkpt>
      <trkpt lat="47.26342" lon="-1.59712">
        <ele>23.819175720215</ele>
        <time>2012-01-29T09:05:34Z</time>
      </trkpt>
      <trkpt lat="47.26351" lon="-1.59699">
        <ele>23.889444351196</ele>
        <time>2012-01-29T09:05:38Z</time>
      </trkpt>
      <trkpt lat="47.26371" lon="-1.59676">
        <ele>24.063903808594</ele>
        <time>2012-01-29T09:05:45Z</time>
      </trkpt>
      <trkpt lat="47.26389" lon="-1.5965">
        <ele>25.157623291016</ele>
        <time>2012-01-29T09:05:53Z</time>
      </trkpt>
      <trkpt lat="47.26398" lon="-1.59645">
        <ele>25.607948303223</ele>
        <time>2012-01-29T09:05:56Z</time>
      </trkpt>
      <trkpt lat="47.26414" lon="-1.59657">
        <ele>25.412254333496</ele>
        <time>2012-01-29T09:06:01Z</time>
      </trkpt>
      <trkpt lat="47.26434" lon="-1.5969">
        <ele>26.721067428589</ele>
        <time>2012-01-29T09:06:09Z</time>
      </trkpt>
      <trkpt lat="47.26445" lon="-1.59704">
        <ele>27.537616729736</ele>
        <time>2012-01-29T09:06:13Z</time>
      </trkpt>
      <trkpt lat="47.26462" lon="-1.59704">
        <ele>28.49529838562</ele>
        <time>2012-01-29T09:06:18Z</time>
      </trkpt>
      <trkpt lat="47.26482" lon="-1.59699">
        <ele>29.74366569519</ele>
        <time>2012-01-29T09:06:24Z</time>
      </trkpt>
      <trkpt lat="47.26491" lon="-1.59691">
        <ele>30.499399185181</ele>
        <time>2012-01-29T09:06:28Z</time>
      </trkpt>
      <trkpt lat="47.265" lon="-1.59681">
        <ele>31.497331619263</ele>
        <time>2012-01-29T09:06:33Z</time>
      </trkpt>
      <trkpt lat="47.2651" lon="-1.59694">
        <ele>31.701494216919</ele>
        <time>2012-01-29T09:06:37Z</time>
      </trkpt>
      <trkpt lat="47.26526" lon="-1.59719">
        <ele>32.058715820312</ele>
        <time>2012-01-29T09:06:44Z</time>
      </trkpt>
      <trkpt lat="47.26533" lon="-1.59723">
        <ele>32.470630645752</ele>
        <time>2012-01-29T09:06:47Z</time>
      </trkpt>
      <trkpt lat="47.26551" lon="-1.59705">
        <ele>34.22639465332</ele>
        <time>2012-01-29T09:06:54Z</time>
      </trkpt>
      <trkpt lat="47.26563" lon="-1.59691">
        <ele>35.370330810547</ele>
        <time>2012-01-29T09:06:59Z</time>
      </trkpt>
      <trkpt lat="47.26577" lon="-1.59677">
        <ele>36.457118988037</ele>
        <time>2012-01-29T09:07:04Z</time>
      </trkpt>
      <trkpt lat="47.26593" lon="-1.59657">
        <ele>37.571113586426</ele>
        <time>2012-01-29T09:07:11Z</time>
      </trkpt>
      <trkpt lat="47.26597" lon="-1.59652">
        <ele>37.862937927246</ele>
        <time>2012-01-29T09:07:13Z</time>
      </trkpt>
      <trkpt lat="47.26613" lon="-1.59654">
        <ele>38.822967529297</ele>
        <time>2012-01-29T09:07:18Z</time>
      </trkpt>
      <trkpt lat="47.26619" lon="-1.59666">
        <ele>39.141410827637</ele>
        <time>2012-01-29T09:07:22Z</time>
      </trkpt>
      <trkpt lat="47.26619" lon="-1.5967">
        <ele>39.116676330566</ele>
        <time>2012-01-29T09:07:23Z</time>
      </trkpt>
      <trkpt lat="47.26619" lon="-1.59713">
        <ele>38.582664489746</ele>
        <time>2012-01-29T09:07:31Z</time>
      </trkpt>
      <trkpt lat="47.26619" lon="-1.59719">
        <ele>38.487823486328</ele>
        <time>2012-01-29T09:07:32Z</time>
      </trkpt>
      <trkpt lat="47.2662" lon="-1.59738">
        <ele>38.326030731201</ele>
        <time>2012-01-29T09:07:35Z</time>
      </trkpt>
      <trkpt lat="47.26632" lon="-1.59781">
        <ele>39.049011230469</ele>
        <time>2012-01-29T09:07:42Z</time>
      </trkpt>
      <trkpt lat="47.26651" lon="-1.59835">
        <ele>40.249221801758</ele>
        <time>2012-01-29T09:07:51Z</time>
      </trkpt>
      <trkpt lat="47.26655" lon="-1.59847">
        <ele>40.635997772217</ele>
        <time>2012-01-29T09:07:53Z</time>
      </trkpt>
      <trkpt lat="47.2667" lon="-1.59856">
        <ele>41.476913452148</ele>
        <time>2012-01-29T09:07:57Z</time>
      </trkpt>
      <trkpt lat="47.2668" lon="-1.59858">
        <ele>42.066551208496</ele>
        <time>2012-01-29T09:08:00Z</time>
      </trkpt>
      <trkpt lat="47.26696" lon="-1.59886">
        <ele>42.856719970703</ele>
        <time>2012-01-29T09:08:06Z</time>
      </trkpt>
      <trkpt lat="47.26718" lon="-1.59918">
        <ele>43.166797637939</ele>
        <time>2012-01-29T09:08:14Z</time>
      </trkpt>
      <trkpt lat="47.26734" lon="-1.59927">
        <ele>43.184013366699</ele>
        <time>2012-01-29T09:08:19Z</time>
      </trkpt>
      <trkpt lat="47.26745" lon="-1.59934">
        <ele>43.088443756104</ele>
        <time>2012-01-29T09:08:23Z</time>
      </trkpt>
      <trkpt lat="47.2676" lon="-1.59947">
        <ele>42.841285705566</ele>
        <time>2012-01-29T09:08:28Z</time>
      </trkpt>
      <trkpt lat="47.2678" lon="-1.59958">
        <ele>42.912479400635</ele>
        <time>2012-01-29T09:08:34Z</time>
      </trkpt>
      <trkpt lat="47.26788" lon="-1.59959">
        <ele>43.114395141602</ele>
        <time>2012-01-29T09:08:37Z</time>
      </trkpt>
      <trkpt lat="47.26785" lon="-1.59972">
        <ele>42.48046875</ele>
        <time>2012-01-29T09:08:42Z</time>
      </trkpt>
      <trkpt lat="47.26768" lon="-1.59988">
        <ele>41.183303833008</ele>
        <time>2012-01-29T09:08:47Z</time>
      </trkpt>
      <trkpt lat="47.26765" lon="-1.5999">
        <ele>41.023403167725</ele>
        <time>2012-01-29T09:08:48Z</time>
      </trkpt>
      <trkpt lat="47.26762" lon="-1.59984">
        <ele>41.158645629883</ele>
        <time>2012-01-29T09:08:51Z</time>
      </trkpt>
      <trkpt lat="47.26753" lon="-1.59992">
        <ele>40.464550018311</ele>
        <time>2012-01-29T09:08:55Z</time>
      </trkpt>
      <trkpt lat="47.26751" lon="-1.59997">
        <ele>40.149879455566</ele>
        <time>2012-01-29T09:08:59Z</time>
      </trkpt>
      <trkpt lat="47.26749" lon="-1.59998">
        <ele>40.076293945312</ele>
        <time>2012-01-29T09:09:01Z</time>
      </trkpt>
      <trkpt lat="47.26742" lon="-1.60008">
        <ele>39.990303039551</ele>
        <time>2012-01-29T09:09:07Z</time>
      </trkpt>
      <trkpt lat="47.2674" lon="-1.60009">
        <ele>39.987148284912</ele>
        <time>2012-01-29T09:09:08Z</time>
      </trkpt>
      <trkpt lat="47.26734" lon="-1.60008">
        <ele>39.981086730957</ele>
        <time>2012-01-29T09:09:10Z</time>
      </trkpt>
      <trkpt lat="47.26723" lon="-1.59997">
        <ele>40.132820129395</ele>
        <time>2012-01-29T09:09:15Z</time>
      </trkpt>
      <trkpt lat="47.26713" lon="-1.59986">
        <ele>40.534866333008</ele>
        <time>2012-01-29T09:09:20Z</time>
      </trkpt>
      <trkpt lat="47.26709" lon="-1.59984">
        <ele>40.596954345703</ele>
        <time>2012-01-29T09:09:24Z</time>
      </trkpt>
      <trkpt lat="47.26702" lon="-1.59972">
        <ele>40.968620300293</ele>
        <time>2012-01-29T09:09:40Z</time>
      </trkpt>
      <trkpt lat="47.26694" lon="-1.59964">
        <ele>41.155471801758</ele>
        <time>2012-01-29T09:09:45Z</time>
      </trkpt>
      <trkpt lat="47.26685" lon="-1.59957">
        <ele>41.265430450439</ele>
        <time>2012-01-29T09:09:49Z</time>
      </trkpt>
      <trkpt lat="47.26678" lon="-1.59955">
        <ele>41.219829559326</ele>
        <time>2012-01-29T09:09:53Z</time>
      </trkpt>
      <trkpt lat="47.26677" lon="-1.59956">
        <ele>41.186740875244</ele>
        <time>2012-01-29T09:09:56Z</time>
      </trkpt>
      <trkpt lat="47.26667" lon="-1.5995">
        <ele>41.197799682617</ele>
        <time>2012-01-29T09:10:23Z</time>
      </trkpt>
      <trkpt lat="47.26664" lon="-1.59942">
        <ele>41.311939239502</ele>
        <time>2012-01-29T09:10:28Z</time>
      </trkpt>
      <trkpt lat="47.26664" lon="-1.59942">
        <ele>41.311939239502</ele>
        <time>2012-01-29T09:10:29Z</time>
      </trkpt>
      <trkpt lat="47.26662" lon="-1.59936">
        <ele>41.373672485352</ele>
        <time>2012-01-29T09:11:37Z</time>
      </trkpt>
      <trkpt lat="47.26659" lon="-1.59936">
        <ele>41.264461517334</ele>
        <time>2012-01-29T09:11:40Z</time>
      </trkpt>
      <trkpt lat="47.26649" lon="-1.59933">
        <ele>41.036064147949</ele>
        <time>2012-01-29T09:11:49Z</time>
      </trkpt>
      <trkpt lat="47.26639" lon="-1.59925">
        <ele>40.841236114502</ele>
        <time>2012-01-29T09:11:54Z</time>
      </trkpt>
      <trkpt lat="47.26625" lon="-1.59913">
        <ele>40.444881439209</ele>
        <time>2012-01-29T09:11:59Z</time>
      </trkpt>
      <trkpt lat="47.26615" lon="-1.59901">
        <ele>39.842739105225</ele>
        <time>2012-01-29T09:12:02Z</time>
      </trkpt>
      <trkpt lat="47.26602" lon="-1.59888">
        <ele>39.054832458496</ele>
        <time>2012-01-29T09:12:06Z</time>
      </trkpt>
      <trkpt lat="47.26588" lon="-1.59874">
        <ele>38.18204498291</ele>
        <time>2012-01-29T09:12:10Z</time>
      </trkpt>
      <trkpt lat="47.26565" lon="-1.59849">
        <ele>36.258464813232</ele>
        <time>2012-01-29T09:12:16Z</time>
      </trkpt>
      <trkpt lat="47.26554" lon="-1.59838">
        <ele>35.391002655029</ele>
        <time>2012-01-29T09:12:20Z</time>
      </trkpt>
      <trkpt lat="47.26551" lon="-1.59835">
        <ele>35.091453552246</ele>
        <time>2012-01-29T09:12:24Z</time>
      </trkpt>
      <trkpt lat="47.26538" lon="-1.5982">
        <ele>33.954002380371</ele>
        <time>2012-01-29T09:12:30Z</time>
      </trkpt>
      <trkpt lat="47.26535" lon="-1.59817">
        <ele>33.651485443115</ele>
        <time>2012-01-29T09:12:31Z</time>
      </trkpt>
      <trkpt lat="47.26518" lon="-1.59813">
        <ele>32.453876495361</ele>
        <time>2012-01-29T09:12:36Z</time>
      </trkpt>
      <trkpt lat="47.265" lon="-1.59788">
        <ele>30.376876831055</ele>
        <time>2012-01-29T09:12:42Z</time>
      </trkpt>
      <trkpt lat="47.26479" lon="-1.59756">
        <ele>28.74755859375</ele>
        <time>2012-01-29T09:12:47Z</time>
      </trkpt>
      <trkpt lat="47.26463" lon="-1.59748">
        <ele>28.121175765991</ele>
        <time>2012-01-29T09:12:51Z</time>
      </trkpt>
      <trkpt lat="47.26452" lon="-1.5975">
        <ele>27.8547706604</ele>
        <time>2012-01-29T09:12:54Z</time>
      </trkpt>
      <trkpt lat="47.26446" lon="-1.59738">
        <ele>27.662244796753</ele>
        <time>2012-01-29T09:12:57Z</time>
      </trkpt>
      <trkpt lat="47.26438" lon="-1.59717">
        <ele>27.236148834229</ele>
        <time>2012-01-29T09:13:01Z</time>
      </trkpt>
      <trkpt lat="47.26426" lon="-1.59709">
        <ele>26.506824493408</ele>
        <time>2012-01-29T09:13:05Z</time>
      </trkpt>
      <trkpt lat="47.26415" lon="-1.59722">
        <ele>26.28009223938</ele>
        <time>2012-01-29T09:13:09Z</time>
      </trkpt>
      <trkpt lat="47.26403" lon="-1.59739">
        <ele>26.24320602417</ele>
        <time>2012-01-29T09:13:15Z</time>
      </trkpt>
      <trkpt lat="47.26399" lon="-1.59744">
        <ele>26.249792098999</ele>
        <time>2012-01-29T09:13:17Z</time>
      </trkpt>
      <trkpt lat="47.26388" lon="-1.5976">
        <ele>26.460531234741</ele>
        <time>2012-01-29T09:13:21Z</time>
      </trkpt>
      <trkpt lat="47.26382" lon="-1.59769">
        <ele>26.606773376465</ele>
        <time>2012-01-29T09:13:25Z</time>
      </trkpt>
      <trkpt lat="47.2638" lon="-1.59776">
        <ele>26.82213973999</ele>
        <time>2012-01-29T09:13:28Z</time>
      </trkpt>
      <trkpt lat="47.26387" lon="-1.59782">
        <ele>27.428764343262</ele>
        <time>2012-01-29T09:13:32Z</time>
      </trkpt>
      <trkpt lat="47.26389" lon="-1.5979">
        <ele>27.912685394287</ele>
        <time>2012-01-29T09:13:35Z</time>
      </trkpt>
      <trkpt lat="47.26393" lon="-1.59815">
        <ele>29.352434158325</ele>
        <time>2012-01-29T09:13:42Z</time>
      </trkpt>
      <trkpt lat="47.26394" lon="-1.59821">
        <ele>29.761674880981</ele>
        <time>2012-01-29T09:13:44Z</time>
      </trkpt>
      <trkpt lat="47.26395" lon="-1.59833">
        <ele>30.430557250977</ele>
        <time>2012-01-29T09:13:49Z</time>
      </trkpt>
      <trkpt lat="47.26393" lon="-1.59837">
        <ele>30.398822784424</ele>
        <time>2012-01-29T09:13:51Z</time>
      </trkpt>
      <trkpt lat="47.26387" lon="-1.59841">
        <ele>30.176521301269</ele>
        <time>2012-01-29T09:13:55Z</time>
      </trkpt>
      <trkpt lat="47.26389" lon="-1.59852">
        <ele>30.684638977051</ele>
        <time>2012-01-29T09:14:01Z</time>
      </trkpt>
      <trkpt lat="47.26385" lon="-1.59861">
        <ele>30.693222045898</ele>
        <time>2012-01-29T09:14:06Z</time>
      </trkpt>
      <trkpt lat="47.26385" lon="-1.59868">
        <ele>30.952430725098</ele>
        <time>2012-01-29T09:14:09Z</time>
      </trkpt>
      <trkpt lat="47.26382" lon="-1.59883">
        <ele>31.309915542602</ele>
        <time>2012-01-29T09:14:14Z</time>
      </trkpt>
      <trkpt lat="47.26383" lon="-1.59901">
        <ele>32.030464172363</ele>
        <time>2012-01-29T09:14:20Z</time>
      </trkpt>
      <trkpt lat="47.26385" lon="-1.59914">
        <ele>32.645442962646</ele>
        <time>2012-01-29T09:14:25Z</time>
      </trkpt>
      <trkpt lat="47.26385" lon="-1.59932">
        <ele>32.915149688721</ele>
        <time>2012-01-29T09:14:33Z</time>
      </trkpt>
      <trkpt lat="47.26385" lon="-1.59943">
        <ele>33.061500549316</ele>
        <time>2012-01-29T09:14:37Z</time>
      </trkpt>
      <trkpt lat="47.26382" lon="-1.59964">
        <ele>33.222103118896</ele>
        <time>2012-01-29T09:14:44Z</time>
      </trkpt>
      <trkpt lat="47.26382" lon="-1.59984">
        <ele>33.519687652588</ele>
        <time>2012-01-29T09:14:50Z</time>
      </trkpt>
      <trkpt lat="47.26382" lon="-1.59987">
        <ele>33.581825256348</ele>
        <time>2012-01-29T09:14:51Z</time>
      </trkpt>
      <trkpt lat="47.26381" lon="-1.60008">
        <ele>33.378715515137</ele>
        <time>2012-01-29T09:14:59Z</time>
      </trkpt>
      <trkpt lat="47.2638" lon="-1.60009">
        <ele>33.319553375244</ele>
        <time>2012-01-29T09:15:00Z</time>
      </trkpt>
      <trkpt lat="47.2638" lon="-1.60015">
        <ele>33.100986480713</ele>
        <time>2012-01-29T09:15:15Z</time>
      </trkpt>
      <trkpt lat="47.26376" lon="-1.60022">
        <ele>32.618953704834</ele>
        <time>2012-01-29T09:15:24Z</time>
      </trkpt>
      <trkpt lat="47.26375" lon="-1.60022">
        <ele>32.601661682129</ele>
        <time>2012-01-29T09:15:25Z</time>
      </trkpt>
      <trkpt lat="47.26362" lon="-1.60035">
        <ele>31.367380142212</ele>
        <time>2012-01-29T09:16:24Z</time>
      </trkpt>
      <trkpt lat="47.26353" lon="-1.60039">
        <ele>30.662338256836</ele>
        <time>2012-01-29T09:16:29Z</time>
      </trkpt>
      <trkpt lat="47.26352" lon="-1.6004">
        <ele>30.60567855835</ele>
        <time>2012-01-29T09:16:30Z</time>
      </trkpt>
      <trkpt lat="47.26353" lon="-1.60046">
        <ele>30.322381973267</ele>
        <time>2012-01-29T09:16:41Z</time>
      </trkpt>
      <trkpt lat="47.26362" lon="-1.60055">
        <ele>30.441232681274</ele>
        <time>2012-01-29T09:16:49Z</time>
      </trkpt>
      <trkpt lat="47.26366" lon="-1.60059">
        <ele>30.447845458984</ele>
        <time>2012-01-29T09:16:54Z</time>
      </trkpt>
      <trkpt lat="47.26366" lon="-1.60061">
        <ele>30.375062942505</ele>
        <time>2012-01-29T09:16:56Z</time>
      </trkpt>
      <trkpt lat="47.26371" lon="-1.60067">
        <ele>30.421762466431</ele>
        <time>2012-01-29T09:17:01Z</time>
      </trkpt>
      <trkpt lat="47.26373" lon="-1.60071">
        <ele>30.395759582519</ele>
        <time>2012-01-29T09:17:03Z</time>
      </trkpt>
      <trkpt lat="47.26375" lon="-1.60086">
        <ele>29.876720428467</ele>
        <time>2012-01-29T09:17:08Z</time>
      </trkpt>
      <trkpt lat="47.2638" lon="-1.60099">
        <ele>29.632053375244</ele>
        <time>2012-01-29T09:17:12Z</time>
      </trkpt>
      <trkpt lat="47.26376" lon="-1.6011">
        <ele>28.812953948975</ele>
        <time>2012-01-29T09:17:16Z</time>
      </trkpt>
      <trkpt lat="47.26371" lon="-1.60112">
        <ele>28.262578964233</ele>
        <time>2012-01-29T09:17:17Z</time>
      </trkpt>
      <trkpt lat="47.26345" lon="-1.60124">
        <ele>25.590408325195</ele>
        <time>2012-01-29T09:17:21Z</time>
      </trkpt>
      <trkpt lat="47.26333" lon="-1.60174">
        <ele>21.915409088135</ele>
        <time>2012-01-29T09:17:25Z</time>
      </trkpt>
      <trkpt lat="47.26331" lon="-1.60183">
        <ele>21.794507980347</ele>
        <time>2012-01-29T09:17:26Z</time>
      </trkpt>
      <trkpt lat="47.26322" lon="-1.60197">
        <ele>21.811817169189</ele>
        <time>2012-01-29T09:17:31Z</time>
      </trkpt>
      <trkpt lat="47.26322" lon="-1.60196">
        <ele>21.81033706665</ele>
        <time>2012-01-29T09:17:33Z</time>
      </trkpt>
      <trkpt lat="47.26314" lon="-1.60177">
        <ele>21.675148010254</ele>
        <time>2012-01-29T09:17:50Z</time>
      </trkpt>
      <trkpt lat="47.26302" lon="-1.60156">
        <ele>21.45135307312</ele>
        <time>2012-01-29T09:17:56Z</time>
      </trkpt>
      <trkpt lat="47.263" lon="-1.60151">
        <ele>21.465282440186</ele>
        <time>2012-01-29T09:17:57Z</time>
      </trkpt>
      <trkpt lat="47.26286" lon="-1.60132">
        <ele>20.786394119263</ele>
        <time>2012-01-29T09:18:01Z</time>
      </trkpt>
      <trkpt lat="47.2628" lon="-1.60107">
        <ele>20.198246002197</ele>
        <time>2012-01-29T09:18:05Z</time>
      </trkpt>
      <trkpt lat="47.26275" lon="-1.60099">
        <ele>19.523782730102</ele>
        <time>2012-01-29T09:18:07Z</time>
      </trkpt>
      <trkpt lat="47.26265" lon="-1.60087">
        <ele>18.138460159302</ele>
        <time>2012-01-29T09:18:12Z</time>
      </trkpt>
      <trkpt lat="47.26259" lon="-1.60083">
        <ele>17.179077148438</ele>
        <time>2012-01-29T09:18:16Z</time>
      </trkpt>
      <trkpt lat="47.26255" lon="-1.60082">
        <ele>16.633974075317</ele>
        <time>2012-01-29T09:18:21Z</time>
      </trkpt>
      <trkpt lat="47.26255" lon="-1.60083">
        <ele>16.720129013061</ele>
        <time>2012-01-29T09:18:39Z</time>
      </trkpt>
      <trkpt lat="47.26267" lon="-1.60084">
        <ele>18.2405128479</ele>
        <time>2012-01-29T09:18:45Z</time>
      </trkpt>
      <trkpt lat="47.26276" lon="-1.60074">
        <ele>19.675188064575</ele>
        <time>2012-01-29T09:18:50Z</time>
      </trkpt>
      <trkpt lat="47.26286" lon="-1.60071">
        <ele>21.136768341064</ele>
        <time>2012-01-29T09:18:56Z</time>
      </trkpt>
      <trkpt lat="47.26302" lon="-1.6007">
        <ele>23.434144973755</ele>
        <time>2012-01-29T09:19:02Z</time>
      </trkpt>
      <trkpt lat="47.26314" lon="-1.60067">
        <ele>25.283878326416</ele>
        <time>2012-01-29T09:19:07Z</time>
      </trkpt>
      <trkpt lat="47.26319" lon="-1.60065">
        <ele>26.048377990723</ele>
        <time>2012-01-29T09:19:12Z</time>
      </trkpt>
      <trkpt lat="47.26302" lon="-1.60067">
        <ele>23.484683990479</ele>
        <time>2012-01-29T09:20:03Z</time>
      </trkpt>
      <trkpt lat="47.26292" lon="-1.60069">
        <ele>22.003820419311</ele>
        <time>2012-01-29T09:20:05Z</time>
      </trkpt>
      <trkpt lat="47.26271" lon="-1.60085">
        <ele>18.768795013428</ele>
        <time>2012-01-29T09:20:10Z</time>
      </trkpt>
      <trkpt lat="47.26264" lon="-1.60086">
        <ele>17.949300765991</ele>
        <time>2012-01-29T09:20:13Z</time>
      </trkpt>
      <trkpt lat="47.2625" lon="-1.60086">
        <ele>16.137840270996</ele>
        <time>2012-01-29T09:20:20Z</time>
      </trkpt>
      <trkpt lat="47.2623" lon="-1.60093">
        <ele>18.360855102539</ele>
        <time>2012-01-29T09:20:29Z</time>
      </trkpt>
      <trkpt lat="47.26223" lon="-1.60096">
        <ele>19.213439941406</ele>
        <time>2012-01-29T09:20:32Z</time>
      </trkpt>
      <trkpt lat="47.26214" lon="-1.60092">
        <ele>19.870330810547</ele>
        <time>2012-01-29T09:20:37Z</time>
      </trkpt>
      <trkpt lat="47.2621" lon="-1.60089">
        <ele>20.068313598633</ele>
        <time>2012-01-29T09:20:42Z</time>
      </trkpt>
      <trkpt lat="47.26211" lon="-1.60088">
        <ele>19.93270111084</ele>
        <time>2012-01-29T09:20:44Z</time>
      </trkpt>
      <trkpt lat="47.26217" lon="-1.60091">
        <ele>19.592811584473</ele>
        <time>2012-01-29T09:20:49Z</time>
      </trkpt>
      <trkpt lat="47.26218" lon="-1.60091">
        <ele>19.460632324219</ele>
        <time>2012-01-29T09:20:51Z</time>
      </trkpt>
      <trkpt lat="47.2622" lon="-1.60097">
        <ele>19.536735534668</ele>
        <time>2012-01-29T09:20:55Z</time>
      </trkpt>
      <trkpt lat="47.26216" lon="-1.60102">
        <ele>20.198776245117</ele>
        <time>2012-01-29T09:21:03Z</time>
      </trkpt>
      <trkpt lat="47.26216" lon="-1.60103">
        <ele>20.232536315918</ele>
        <time>2012-01-29T09:21:04Z</time>
      </trkpt>
      <trkpt lat="47.2621" lon="-1.60113">
        <ele>21.280815124512</ele>
        <time>2012-01-29T09:21:17Z</time>
      </trkpt>
      <trkpt lat="47.26202" lon="-1.60129">
        <ele>22.784568786621</ele>
        <time>2012-01-29T09:21:23Z</time>
      </trkpt>
      <trkpt lat="47.26196" lon="-1.60132">
        <ele>23.570205688477</ele>
        <time>2012-01-29T09:21:27Z</time>
      </trkpt>
      <trkpt lat="47.26187" lon="-1.60139">
        <ele>24.763252258301</ele>
        <time>2012-01-29T09:21:33Z</time>
      </trkpt>
      <trkpt lat="47.26182" lon="-1.60148">
        <ele>25.666191101074</ele>
        <time>2012-01-29T09:21:38Z</time>
      </trkpt>
      <trkpt lat="47.26184" lon="-1.60154">
        <ele>25.673629760742</ele>
        <time>2012-01-29T09:21:42Z</time>
      </trkpt>
      <trkpt lat="47.26188" lon="-1.60156">
        <ele>25.472213745117</ele>
        <time>2012-01-29T09:21:45Z</time>
      </trkpt>
      <trkpt lat="47.26193" lon="-1.60163">
        <ele>25.287391662598</ele>
        <time>2012-01-29T09:21:50Z</time>
      </trkpt>
      <trkpt lat="47.26196" lon="-1.60178">
        <ele>26.219635009766</ele>
        <time>2012-01-29T09:21:58Z</time>
      </trkpt>
      <trkpt lat="47.26203" lon="-1.60195">
        <ele>27.008296966553</ele>
        <time>2012-01-29T09:22:08Z</time>
      </trkpt>
      <trkpt lat="47.26206" lon="-1.60208">
        <ele>27.947689056396</ele>
        <time>2012-01-29T09:22:14Z</time>
      </trkpt>
      <trkpt lat="47.26211" lon="-1.60223">
        <ele>28.836875915527</ele>
        <time>2012-01-29T09:22:21Z</time>
      </trkpt>
      <trkpt lat="47.26212" lon="-1.60227">
        <ele>29.124723434448</ele>
        <time>2012-01-29T09:22:25Z</time>
      </trkpt>
      <trkpt lat="47.26217" lon="-1.60239">
        <ele>29.773977279663</ele>
        <time>2012-01-29T09:22:42Z</time>
      </trkpt>
      <trkpt lat="47.26217" lon="-1.60239">
        <ele>29.78267288208</ele>
        <time>2012-01-29T09:22:43Z</time>
      </trkpt>
      <trkpt lat="47.26217" lon="-1.6024">
        <ele>29.892450332642</ele>
        <time>2012-01-29T09:22:47Z</time>
      </trkpt>
      <trkpt lat="47.26211" lon="-1.60241">
        <ele>30.480518341064</ele>
        <time>2012-01-29T09:22:57Z</time>
      </trkpt>
      <trkpt lat="47.26199" lon="-1.6024">
        <ele>31.477378845215</ele>
        <time>2012-01-29T09:23:06Z</time>
      </trkpt>
      <trkpt lat="47.26187" lon="-1.60242">
        <ele>32.55073928833</ele>
        <time>2012-01-29T09:23:12Z</time>
      </trkpt>
      <trkpt lat="47.26175" lon="-1.60243">
        <ele>33.735095977783</ele>
        <time>2012-01-29T09:23:17Z</time>
      </trkpt>
      <trkpt lat="47.26168" lon="-1.60244">
        <ele>34.369697570801</ele>
        <time>2012-01-29T09:23:20Z</time>
      </trkpt>
      <trkpt lat="47.26156" lon="-1.60252">
        <ele>35.377910614014</ele>
        <time>2012-01-29T09:23:25Z</time>
      </trkpt>
      <trkpt lat="47.26155" lon="-1.6026">
        <ele>36.025592803955</ele>
        <time>2012-01-29T09:23:29Z</time>
      </trkpt>
      <trkpt lat="47.26165" lon="-1.60268">
        <ele>36.547225952148</ele>
        <time>2012-01-29T09:23:36Z</time>
      </trkpt>
      <trkpt lat="47.26171" lon="-1.60269">
        <ele>36.173454284668</ele>
        <time>2012-01-29T09:23:39Z</time>
      </trkpt>
      <trkpt lat="47.26186" lon="-1.60262">
        <ele>34.319683074951</ele>
        <time>2012-01-29T09:23:44Z</time>
      </trkpt>
      <trkpt lat="47.26201" lon="-1.6026">
        <ele>32.868541717529</ele>
        <time>2012-01-29T09:23:48Z</time>
      </trkpt>
      <trkpt lat="47.26219" lon="-1.60264">
        <ele>31.587196350098</ele>
        <time>2012-01-29T09:23:52Z</time>
      </trkpt>
      <trkpt lat="47.26237" lon="-1.60273">
        <ele>30.50731086731</ele>
        <time>2012-01-29T09:23:56Z</time>
      </trkpt>
      <trkpt lat="47.26241" lon="-1.60276">
        <ele>30.390350341797</ele>
        <time>2012-01-29T09:23:57Z</time>
      </trkpt>
      <trkpt lat="47.26253" lon="-1.60301">
        <ele>30.682283401489</ele>
        <time>2012-01-29T09:24:04Z</time>
      </trkpt>
      <trkpt lat="47.26259" lon="-1.60306">
        <ele>30.137924194336</ele>
        <time>2012-01-29T09:24:08Z</time>
      </trkpt>
      <trkpt lat="47.26267" lon="-1.60307">
        <ele>29.104293823242</ele>
        <time>2012-01-29T09:24:12Z</time>
      </trkpt>
      <trkpt lat="47.26268" lon="-1.60307">
        <ele>29.002899169922</ele>
        <time>2012-01-29T09:24:13Z</time>
      </trkpt>
      <trkpt lat="47.26276" lon="-1.60313">
        <ele>28.178457260132</ele>
        <time>2012-01-29T09:24:22Z</time>
      </trkpt>
      <trkpt lat="47.26283" lon="-1.60327">
        <ele>27.72135925293</ele>
        <time>2012-01-29T09:24:26Z</time>
      </trkpt>
      <trkpt lat="47.26283" lon="-1.6033">
        <ele>27.764925003052</ele>
        <time>2012-01-29T09:24:29Z</time>
      </trkpt>
      <trkpt lat="47.26284" lon="-1.60332">
        <ele>27.697513580322</ele>
        <time>2012-01-29T09:24:31Z</time>
      </trkpt>
      <trkpt lat="47.26292" lon="-1.60317">
        <ele>26.0104637146</ele>
        <time>2012-01-29T09:24:47Z</time>
      </trkpt>
      <trkpt lat="47.26292" lon="-1.60314">
        <ele>26.032543182373</ele>
        <time>2012-01-29T09:24:49Z</time>
      </trkpt>
      <trkpt lat="47.26287" lon="-1.60314">
        <ele>26.663719177246</ele>
        <time>2012-01-29T09:24:53Z</time>
      </trkpt>
      <trkpt lat="47.26285" lon="-1.60312">
        <ele>26.893436431885</ele>
        <time>2012-01-29T09:24:55Z</time>
      </trkpt>
      <trkpt lat="47.26283" lon="-1.60309">
        <ele>27.111190795898</ele>
        <time>2012-01-29T09:24:58Z</time>
      </trkpt>
      <trkpt lat="47.26281" lon="-1.60313">
        <ele>27.426212310791</ele>
        <time>2012-01-29T09:25:04Z</time>
      </trkpt>
      <trkpt lat="47.26288" lon="-1.60325">
        <ele>26.871816635132</ele>
        <time>2012-01-29T09:25:09Z</time>
      </trkpt>
      <trkpt lat="47.2629" lon="-1.60333">
        <ele>26.72367477417</ele>
        <time>2012-01-29T09:25:11Z</time>
      </trkpt>
      <trkpt lat="47.26291" lon="-1.60337">
        <ele>26.602220535278</ele>
        <time>2012-01-29T09:25:14Z</time>
      </trkpt>
      <trkpt lat="47.26291" lon="-1.60343">
        <ele>26.734720230102</ele>
        <time>2012-01-29T09:25:23Z</time>
      </trkpt>
      <trkpt lat="47.26289" lon="-1.60342">
        <ele>27.09287071228</ele>
        <time>2012-01-29T09:25:26Z</time>
      </trkpt>
      <trkpt lat="47.26287" lon="-1.60342">
        <ele>27.402448654175</ele>
        <time>2012-01-29T09:25:28Z</time>
      </trkpt>
      <trkpt lat="47.26284" lon="-1.60339">
        <ele>27.781349182129</ele>
        <time>2012-01-29T09:25:33Z</time>
      </trkpt>
      <trkpt lat="47.26288" lon="-1.60318">
        <ele>26.620796203613</ele>
        <time>2012-01-29T09:25:50Z</time>
      </trkpt>
      <trkpt lat="47.26294" lon="-1.60308">
        <ele>25.628580093384</ele>
        <time>2012-01-29T09:25:52Z</time>
      </trkpt>
      <trkpt lat="47.263" lon="-1.60318">
        <ele>24.937112808227</ele>
        <time>2012-01-29T09:25:56Z</time>
      </trkpt>
      <trkpt lat="47.26302" lon="-1.60318">
        <ele>24.660165786743</ele>
        <time>2012-01-29T09:25:58Z</time>
      </trkpt>
      <trkpt lat="47.26309" lon="-1.60322">
        <ele>23.720632553101</ele>
        <time>2012-01-29T09:26:10Z</time>
      </trkpt>
      <trkpt lat="47.26311" lon="-1.60338">
        <ele>23.530878067017</ele>
        <time>2012-01-29T09:26:15Z</time>
      </trkpt>
      <trkpt lat="47.26308" lon="-1.60352">
        <ele>24.05375289917</ele>
        <time>2012-01-29T09:26:18Z</time>
      </trkpt>
      <trkpt lat="47.263" lon="-1.60376">
        <ele>25.570266723633</ele>
        <time>2012-01-29T09:26:23Z</time>
      </trkpt>
      <trkpt lat="47.26291" lon="-1.6041">
        <ele>27.648519515991</ele>
        <time>2012-01-29T09:26:29Z</time>
      </trkpt>
      <trkpt lat="47.26288" lon="-1.60416">
        <ele>28.265148162842</ele>
        <time>2012-01-29T09:26:30Z</time>
      </trkpt>
      <trkpt lat="47.26279" lon="-1.60437">
        <ele>29.199348449707</ele>
        <time>2012-01-29T09:26:33Z</time>
      </trkpt>
      <trkpt lat="47.26271" lon="-1.60467">
        <ele>29.2900390625</ele>
        <time>2012-01-29T09:26:38Z</time>
      </trkpt>
      <trkpt lat="47.26271" lon="-1.60471">
        <ele>29.051750183106</ele>
        <time>2012-01-29T09:26:39Z</time>
      </trkpt>
      <trkpt lat="47.26279" lon="-1.60497">
        <ele>26.612274169922</ele>
        <time>2012-01-29T09:26:45Z</time>
      </trkpt>
      <trkpt lat="47.26281" lon="-1.60522">
        <ele>25.0471534729</ele>
        <time>2012-01-29T09:26:50Z</time>
      </trkpt>
      <trkpt lat="47.2628" lon="-1.60548">
        <ele>23.779024124146</ele>
        <time>2012-01-29T09:26:55Z</time>
      </trkpt>
      <trkpt lat="47.26278" lon="-1.60585">
        <ele>21.883056640625</ele>
        <time>2012-01-29T09:27:02Z</time>
      </trkpt>
      <trkpt lat="47.26274" lon="-1.60621">
        <ele>19.681911468506</ele>
        <time>2012-01-29T09:27:09Z</time>
      </trkpt>
      <trkpt lat="47.26267" lon="-1.60658">
        <ele>16.916524887085</ele>
        <time>2012-01-29T09:27:16Z</time>
      </trkpt>
      <trkpt lat="47.26264" lon="-1.60668">
        <ele>16.103277206421</ele>
        <time>2012-01-29T09:27:18Z</time>
      </trkpt>
      <trkpt lat="47.2626" lon="-1.60688">
        <ele>17.9769115448</ele>
        <time>2012-01-29T09:27:23Z</time>
      </trkpt>
      <trkpt lat="47.26249" lon="-1.6071">
        <ele>20.28737449646</ele>
        <time>2012-01-29T09:27:29Z</time>
      </trkpt>
      <trkpt lat="47.26246" lon="-1.60718">
        <ele>21.328359603882</ele>
        <time>2012-01-29T09:27:31Z</time>
      </trkpt>
      <trkpt lat="47.26242" lon="-1.60724">
        <ele>22.273021697998</ele>
        <time>2012-01-29T09:27:33Z</time>
      </trkpt>
      <trkpt lat="47.26228" lon="-1.60721">
        <ele>22.650857925415</ele>
        <time>2012-01-29T09:27:39Z</time>
      </trkpt>
      <trkpt lat="47.26207" lon="-1.60705">
        <ele>22.3115234375</ele>
        <time>2012-01-29T09:27:47Z</time>
      </trkpt>
      <trkpt lat="47.26198" lon="-1.60704">
        <ele>22.690002441406</ele>
        <time>2012-01-29T09:27:51Z</time>
      </trkpt>
      <trkpt lat="47.26195" lon="-1.60699">
        <ele>22.526725769043</ele>
        <time>2012-01-29T09:27:56Z</time>
      </trkpt>
      <trkpt lat="47.262" lon="-1.60702">
        <ele>22.406190872192</ele>
        <time>2012-01-29T09:28:00Z</time>
      </trkpt>
      <trkpt lat="47.26206" lon="-1.60704">
        <ele>22.169870376587</ele>
        <time>2012-01-29T09:28:04Z</time>
      </trkpt>
      <trkpt lat="47.26211" lon="-1.60706">
        <ele>22.132036209106</ele>
        <time>2012-01-29T09:28:08Z</time>
      </trkpt>
      <trkpt lat="47.26215" lon="-1.60716">
        <ele>22.91619682312</ele>
        <time>2012-01-29T09:28:14Z</time>
      </trkpt>
      <trkpt lat="47.26215" lon="-1.60724">
        <ele>23.704374313354</ele>
        <time>2012-01-29T09:28:17Z</time>
      </trkpt>
      <trkpt lat="47.26215" lon="-1.60728">
        <ele>24.07412147522</ele>
        <time>2012-01-29T09:28:19Z</time>
      </trkpt>
      <trkpt lat="47.26217" lon="-1.60735">
        <ele>24.630844116211</ele>
        <time>2012-01-29T09:28:23Z</time>
      </trkpt>
      <trkpt lat="47.2622" lon="-1.60742">
        <ele>25.306365966797</ele>
        <time>2012-01-29T09:28:29Z</time>
      </trkpt>
      <trkpt lat="47.26225" lon="-1.60746">
        <ele>25.474956512451</ele>
        <time>2012-01-29T09:28:42Z</time>
      </trkpt>
      <trkpt lat="47.26225" lon="-1.60747">
        <ele>25.633153915405</ele>
        <time>2012-01-29T09:28:44Z</time>
      </trkpt>
      <trkpt lat="47.26228" lon="-1.60759">
        <ele>26.770753860474</ele>
        <time>2012-01-29T09:29:02Z</time>
      </trkpt>
      <trkpt lat="47.26228" lon="-1.60762">
        <ele>27.027639389038</ele>
        <time>2012-01-29T09:29:05Z</time>
      </trkpt>
      <trkpt lat="47.26228" lon="-1.6077">
        <ele>27.800401687622</ele>
        <time>2012-01-29T09:29:11Z</time>
      </trkpt>
      <trkpt lat="47.2623" lon="-1.60773">
        <ele>28.071180343628</ele>
        <time>2012-01-29T09:29:15Z</time>
      </trkpt>
      <trkpt lat="47.26231" lon="-1.6078">
        <ele>28.669992446899</ele>
        <time>2012-01-29T09:29:20Z</time>
      </trkpt>
      <trkpt lat="47.26233" lon="-1.6079">
        <ele>29.700584411621</ele>
        <time>2012-01-29T09:29:25Z</time>
      </trkpt>
      <trkpt lat="47.26234" lon="-1.60809">
        <ele>31.548986434936</ele>
        <time>2012-01-29T09:29:32Z</time>
      </trkpt>
      <trkpt lat="47.26233" lon="-1.60824">
        <ele>33.091720581055</ele>
        <time>2012-01-29T09:29:37Z</time>
      </trkpt>
      <trkpt lat="47.26233" lon="-1.60827">
        <ele>33.386714935303</ele>
        <time>2012-01-29T09:29:38Z</time>
      </trkpt>
      <trkpt lat="47.26235" lon="-1.60843">
        <ele>33.79663848877</ele>
        <time>2012-01-29T09:29:44Z</time>
      </trkpt>
      <trkpt lat="47.26234" lon="-1.60864">
        <ele>33.638450622559</ele>
        <time>2012-01-29T09:29:49Z</time>
      </trkpt>
      <trkpt lat="47.26236" lon="-1.60886">
        <ele>33.292987823486</ele>
        <time>2012-01-29T09:29:54Z</time>
      </trkpt>
      <trkpt lat="47.26237" lon="-1.6089">
        <ele>33.225845336914</ele>
        <time>2012-01-29T09:29:55Z</time>
      </trkpt>
      <trkpt lat="47.26231" lon="-1.60916">
        <ele>33.348373413086</ele>
        <time>2012-01-29T09:30:01Z</time>
      </trkpt>
      <trkpt lat="47.26232" lon="-1.60925">
        <ele>33.382411956787</ele>
        <time>2012-01-29T09:30:03Z</time>
      </trkpt>
      <trkpt lat="47.26233" lon="-1.60948">
        <ele>33.429874420166</ele>
        <time>2012-01-29T09:30:07Z</time>
      </trkpt>
      <trkpt lat="47.26228" lon="-1.60978">
        <ele>34.213188171387</ele>
        <time>2012-01-29T09:30:13Z</time>
      </trkpt>
      <trkpt lat="47.26221" lon="-1.60997">
        <ele>35.048324584961</ele>
        <time>2012-01-29T09:30:17Z</time>
      </trkpt>
      <trkpt lat="47.26215" lon="-1.61023">
        <ele>34.745315551758</ele>
        <time>2012-01-29T09:30:22Z</time>
      </trkpt>
      <trkpt lat="47.26208" lon="-1.61058">
        <ele>34.084743499756</ele>
        <time>2012-01-29T09:30:28Z</time>
      </trkpt>
      <trkpt lat="47.26207" lon="-1.61065">
        <ele>33.895393371582</ele>
        <time>2012-01-29T09:30:29Z</time>
      </trkpt>
      <trkpt lat="47.26197" lon="-1.61113">
        <ele>33.43489074707</ele>
        <time>2012-01-29T09:30:36Z</time>
      </trkpt>
      <trkpt lat="47.26186" lon="-1.61142">
        <ele>33.938453674316</ele>
        <time>2012-01-29T09:30:41Z</time>
      </trkpt>
      <trkpt lat="47.26176" lon="-1.61175">
        <ele>34.500247955322</ele>
        <time>2012-01-29T09:30:48Z</time>
      </trkpt>
      <trkpt lat="47.26168" lon="-1.61204">
        <ele>35.825862884521</ele>
        <time>2012-01-29T09:30:54Z</time>
      </trkpt>
      <trkpt lat="47.2616" lon="-1.61227">
        <ele>36.203418731689</ele>
        <time>2012-01-29T09:30:59Z</time>
      </trkpt>
      <trkpt lat="47.26154" lon="-1.6125">
        <ele>36.314830780029</ele>
        <time>2012-01-29T09:31:04Z</time>
      </trkpt>
      <trkpt lat="47.26149" lon="-1.61271">
        <ele>36.71183013916</ele>
        <time>2012-01-29T09:31:09Z</time>
      </trkpt>
      <trkpt lat="47.26141" lon="-1.61301">
        <ele>37.583194732666</ele>
        <time>2012-01-29T09:31:16Z</time>
      </trkpt>
      <trkpt lat="47.26135" lon="-1.61326">
        <ele>38.493633270264</ele>
        <time>2012-01-29T09:31:23Z</time>
      </trkpt>
      <trkpt lat="47.26133" lon="-1.61335">
        <ele>38.947784423828</ele>
        <time>2012-01-29T09:31:28Z</time>
      </trkpt>
      <trkpt lat="47.26132" lon="-1.61335">
        <ele>38.983821868896</ele>
        <time>2012-01-29T09:31:29Z</time>
      </trkpt>
      <trkpt lat="47.26131" lon="-1.6134">
        <ele>39.232418060303</ele>
        <time>2012-01-29T09:31:33Z</time>
      </trkpt>
      <trkpt lat="47.26136" lon="-1.61354">
        <ele>39.440013885498</ele>
        <time>2012-01-29T09:31:42Z</time>
      </trkpt>
      <trkpt lat="47.26137" lon="-1.61356">
        <ele>39.4616355896</ele>
        <time>2012-01-29T09:31:43Z</time>
      </trkpt>
      <trkpt lat="47.26146" lon="-1.61364">
        <ele>39.161151885986</ele>
        <time>2012-01-29T09:31:47Z</time>
      </trkpt>
      <trkpt lat="47.26145" lon="-1.61366">
        <ele>39.281433105469</ele>
        <time>2012-01-29T09:31:52Z</time>
      </trkpt>
      <trkpt lat="47.26157" lon="-1.61373">
        <ele>38.700050354004</ele>
        <time>2012-01-29T09:31:56Z</time>
      </trkpt>
      <trkpt lat="47.26158" lon="-1.61374">
        <ele>38.638332366943</ele>
        <time>2012-01-29T09:31:57Z</time>
      </trkpt>
      <trkpt lat="47.26171" lon="-1.61379">
        <ele>37.438457489014</ele>
        <time>2012-01-29T09:33:24Z</time>
      </trkpt>
      <trkpt lat="47.26182" lon="-1.61379">
        <ele>35.312377929688</ele>
        <time>2012-01-29T09:33:28Z</time>
      </trkpt>
      <trkpt lat="47.26191" lon="-1.61378">
        <ele>33.559314727783</ele>
        <time>2012-01-29T09:33:30Z</time>
      </trkpt>
      <trkpt lat="47.26212" lon="-1.61384">
        <ele>30.009527206421</ele>
        <time>2012-01-29T09:33:35Z</time>
      </trkpt>
      <trkpt lat="47.26216" lon="-1.61382">
        <ele>29.091012954712</ele>
        <time>2012-01-29T09:33:37Z</time>
      </trkpt>
      <trkpt lat="47.26231" lon="-1.61375">
        <ele>25.966600418091</ele>
        <time>2012-01-29T09:33:42Z</time>
      </trkpt>
      <trkpt lat="47.26241" lon="-1.61363">
        <ele>23.652265548706</ele>
        <time>2012-01-29T09:33:45Z</time>
      </trkpt>
      <trkpt lat="47.26251" lon="-1.6135">
        <ele>21.537000656128</ele>
        <time>2012-01-29T09:33:48Z</time>
      </trkpt>
      <trkpt lat="47.2627" lon="-1.6133">
        <ele>20.028467178345</ele>
        <time>2012-01-29T09:33:53Z</time>
      </trkpt>
      <trkpt lat="47.26283" lon="-1.61327">
        <ele>19.35040473938</ele>
        <time>2012-01-29T09:33:56Z</time>
      </trkpt>
      <trkpt lat="47.26295" lon="-1.61319">
        <ele>18.657751083374</ele>
        <time>2012-01-29T09:34:03Z</time>
      </trkpt>
      <trkpt lat="47.26305" lon="-1.61309">
        <ele>18.054075241089</ele>
        <time>2012-01-29T09:34:08Z</time>
      </trkpt>
      <trkpt lat="47.26312" lon="-1.61315">
        <ele>17.790575027466</ele>
        <time>2012-01-29T09:34:12Z</time>
      </trkpt>
      <trkpt lat="47.26313" lon="-1.61319">
        <ele>17.822618484497</ele>
        <time>2012-01-29T09:34:13Z</time>
      </trkpt>
      <trkpt lat="47.26317" lon="-1.61354">
        <ele>18.712289810181</ele>
        <time>2012-01-29T09:34:20Z</time>
      </trkpt>
      <trkpt lat="47.26325" lon="-1.61394">
        <ele>20.234802246094</ele>
        <time>2012-01-29T09:34:27Z</time>
      </trkpt>
      <trkpt lat="47.2633" lon="-1.61416">
        <ele>21.105173110962</ele>
        <time>2012-01-29T09:34:31Z</time>
      </trkpt>
      <trkpt lat="47.26346" lon="-1.61452">
        <ele>23.813373565674</ele>
        <time>2012-01-29T09:34:38Z</time>
      </trkpt>
      <trkpt lat="47.2636" lon="-1.61455">
        <ele>24.206966400146</ele>
        <time>2012-01-29T09:34:42Z</time>
      </trkpt>
      <trkpt lat="47.26363" lon="-1.61453">
        <ele>24.1936378479</ele>
        <time>2012-01-29T09:34:43Z</time>
      </trkpt>
      <trkpt lat="47.26365" lon="-1.61437">
        <ele>23.785484313965</ele>
        <time>2012-01-29T09:34:47Z</time>
      </trkpt>
      <trkpt lat="47.26364" lon="-1.61419">
        <ele>23.267471313477</ele>
        <time>2012-01-29T09:34:51Z</time>
      </trkpt>
      <trkpt lat="47.26376" lon="-1.61412">
        <ele>23.933578491211</ele>
        <time>2012-01-29T09:34:55Z</time>
      </trkpt>
      <trkpt lat="47.2639" lon="-1.6141">
        <ele>24.978744506836</ele>
        <time>2012-01-29T09:35:00Z</time>
      </trkpt>
      <trkpt lat="47.26403" lon="-1.61421">
        <ele>25.918581008911</ele>
        <time>2012-01-29T09:35:06Z</time>
      </trkpt>
      <trkpt lat="47.26415" lon="-1.6142">
        <ele>26.728567123413</ele>
        <time>2012-01-29T09:35:11Z</time>
      </trkpt>
      <trkpt lat="47.26421" lon="-1.61418">
        <ele>27.208297729492</ele>
        <time>2012-01-29T09:35:14Z</time>
      </trkpt>
      <trkpt lat="47.26428" lon="-1.61425">
        <ele>27.259637832642</ele>
        <time>2012-01-29T09:35:18Z</time>
      </trkpt>
      <trkpt lat="47.26437" lon="-1.61429">
        <ele>27.602006912231</ele>
        <time>2012-01-29T09:35:22Z</time>
      </trkpt>
      <trkpt lat="47.26449" lon="-1.61436">
        <ele>27.916952133179</ele>
        <time>2012-01-29T09:35:29Z</time>
      </trkpt>
      <trkpt lat="47.26453" lon="-1.61436">
        <ele>28.136157989502</ele>
        <time>2012-01-29T09:35:32Z</time>
      </trkpt>
      <trkpt lat="47.26461" lon="-1.61438">
        <ele>28.501100540161</ele>
        <time>2012-01-29T09:35:38Z</time>
      </trkpt>
      <trkpt lat="47.26462" lon="-1.61439">
        <ele>28.490310668945</ele>
        <time>2012-01-29T09:35:40Z</time>
      </trkpt>
      <trkpt lat="47.26463" lon="-1.61442">
        <ele>28.423669815064</ele>
        <time>2012-01-29T09:35:47Z</time>
      </trkpt>
      <trkpt lat="47.26465" lon="-1.61444">
        <ele>28.378063201904</ele>
        <time>2012-01-29T09:35:50Z</time>
      </trkpt>
      <trkpt lat="47.26468" lon="-1.61447">
        <ele>28.383924484253</ele>
        <time>2012-01-29T09:35:53Z</time>
      </trkpt>
      <trkpt lat="47.26474" lon="-1.61453">
        <ele>28.433835983276</ele>
        <time>2012-01-29T09:35:59Z</time>
      </trkpt>
      <trkpt lat="47.26476" lon="-1.61454">
        <ele>28.423179626465</ele>
        <time>2012-01-29T09:36:00Z</time>
      </trkpt>
      <trkpt lat="47.2648" lon="-1.61457">
        <ele>28.475477218628</ele>
        <time>2012-01-29T09:36:03Z</time>
      </trkpt>
      <trkpt lat="47.26489" lon="-1.61465">
        <ele>28.515506744385</ele>
        <time>2012-01-29T09:36:09Z</time>
      </trkpt>
      <trkpt lat="47.26491" lon="-1.61466">
        <ele>28.546754837036</ele>
        <time>2012-01-29T09:36:10Z</time>
      </trkpt>
      <trkpt lat="47.26503" lon="-1.61477">
        <ele>28.708848953247</ele>
        <time>2012-01-29T09:36:16Z</time>
      </trkpt>
      <trkpt lat="47.26505" lon="-1.61478">
        <ele>28.867031097412</ele>
        <time>2012-01-29T09:36:17Z</time>
      </trkpt>
      <trkpt lat="47.26513" lon="-1.61485">
        <ele>29.354801177979</ele>
        <time>2012-01-29T09:36:22Z</time>
      </trkpt>
      <trkpt lat="47.26516" lon="-1.61488">
        <ele>29.570016860962</ele>
        <time>2012-01-29T09:36:25Z</time>
      </trkpt>
      <trkpt lat="47.26521" lon="-1.61493">
        <ele>29.882131576538</ele>
        <time>2012-01-29T09:36:28Z</time>
      </trkpt>
      <trkpt lat="47.26526" lon="-1.61492">
        <ele>30.476728439331</ele>
        <time>2012-01-29T09:36:34Z</time>
      </trkpt>
      <trkpt lat="47.26531" lon="-1.61481">
        <ele>31.643997192383</ele>
        <time>2012-01-29T09:37:08Z</time>
      </trkpt>
      <trkpt lat="47.26533" lon="-1.6148">
        <ele>31.860298156738</ele>
        <time>2012-01-29T09:37:12Z</time>
      </trkpt>
      <trkpt lat="47.26535" lon="-1.61482">
        <ele>32.063529968262</ele>
        <time>2012-01-29T09:37:17Z</time>
      </trkpt>
      <trkpt lat="47.26538" lon="-1.61485">
        <ele>32.215015411377</ele>
        <time>2012-01-29T09:37:24Z</time>
      </trkpt>
      <trkpt lat="47.26541" lon="-1.61488">
        <ele>32.430824279785</ele>
        <time>2012-01-29T09:37:31Z</time>
      </trkpt>
      <trkpt lat="47.26545" lon="-1.6149">
        <ele>32.84810256958</ele>
        <time>2012-01-29T09:37:42Z</time>
      </trkpt>
      <trkpt lat="47.26551" lon="-1.61499">
        <ele>33.111331939697</ele>
        <time>2012-01-29T09:37:50Z</time>
      </trkpt>
      <trkpt lat="47.26553" lon="-1.61514">
        <ele>32.807434082031</ele>
        <time>2012-01-29T09:37:56Z</time>
      </trkpt>
      <trkpt lat="47.26562" lon="-1.61514">
        <ele>33.73314666748</ele>
        <time>2012-01-29T09:38:01Z</time>
      </trkpt>
      <trkpt lat="47.26569" lon="-1.6151">
        <ele>34.727569580078</ele>
        <time>2012-01-29T09:38:05Z</time>
      </trkpt>
      <trkpt lat="47.26573" lon="-1.61507">
        <ele>35.380802154541</ele>
        <time>2012-01-29T09:38:07Z</time>
      </trkpt>
      <trkpt lat="47.26583" lon="-1.61516">
        <ele>36.073516845703</ele>
        <time>2012-01-29T09:38:12Z</time>
      </trkpt>
      <trkpt lat="47.26592" lon="-1.61514">
        <ele>36.724258422852</ele>
        <time>2012-01-29T09:38:16Z</time>
      </trkpt>
      <trkpt lat="47.26602" lon="-1.61514">
        <ele>37.389057159424</ele>
        <time>2012-01-29T09:38:21Z</time>
      </trkpt>
      <trkpt lat="47.26605" lon="-1.61514">
        <ele>37.585586547852</ele>
        <time>2012-01-29T09:38:25Z</time>
      </trkpt>
      <trkpt lat="47.26614" lon="-1.61519">
        <ele>37.956481933594</ele>
        <time>2012-01-29T09:38:30Z</time>
      </trkpt>
      <trkpt lat="47.26622" lon="-1.61532">
        <ele>37.922451019287</ele>
        <time>2012-01-29T09:38:35Z</time>
      </trkpt>
      <trkpt lat="47.26625" lon="-1.61553">
        <ele>37.259937286377</ele>
        <time>2012-01-29T09:38:39Z</time>
      </trkpt>
      <trkpt lat="47.26636" lon="-1.61586">
        <ele>36.959037780762</ele>
        <time>2012-01-29T09:38:45Z</time>
      </trkpt>
      <trkpt lat="47.2664" lon="-1.61601">
        <ele>36.939613342285</ele>
        <time>2012-01-29T09:38:49Z</time>
      </trkpt>
      <trkpt lat="47.26642" lon="-1.61615">
        <ele>36.703491210938</ele>
        <time>2012-01-29T09:38:53Z</time>
      </trkpt>
      <trkpt lat="47.26638" lon="-1.61629">
        <ele>35.97241973877</ele>
        <time>2012-01-29T09:38:57Z</time>
      </trkpt>
      <trkpt lat="47.26638" lon="-1.61639">
        <ele>35.683822631836</ele>
        <time>2012-01-29T09:39:00Z</time>
      </trkpt>
      <trkpt lat="47.26639" lon="-1.61643">
        <ele>35.690814971924</ele>
        <time>2012-01-29T09:39:01Z</time>
      </trkpt>
      <trkpt lat="47.26654" lon="-1.61668">
        <ele>36.008964538574</ele>
        <time>2012-01-29T09:39:07Z</time>
      </trkpt>
      <trkpt lat="47.2666" lon="-1.61671">
        <ele>36.284839630127</ele>
        <time>2012-01-29T09:39:09Z</time>
      </trkpt>
      <trkpt lat="47.26662" lon="-1.61672">
        <ele>36.321147918701</ele>
        <time>2012-01-29T09:39:11Z</time>
      </trkpt>
      <trkpt lat="47.26668" lon="-1.61675">
        <ele>36.471130371094</ele>
        <time>2012-01-29T09:39:21Z</time>
      </trkpt>
      <trkpt lat="47.2667" lon="-1.61676">
        <ele>36.602649688721</ele>
        <time>2012-01-29T09:39:23Z</time>
      </trkpt>
      <trkpt lat="47.26673" lon="-1.61673">
        <ele>37.077869415283</ele>
        <time>2012-01-29T09:39:26Z</time>
      </trkpt>
      <trkpt lat="47.26681" lon="-1.61673">
        <ele>37.736873626709</ele>
        <time>2012-01-29T09:39:31Z</time>
      </trkpt>
      <trkpt lat="47.26683" lon="-1.61673">
        <ele>37.867755889893</ele>
        <time>2012-01-29T09:39:32Z</time>
      </trkpt>
      <trkpt lat="47.26695" lon="-1.61669">
        <ele>39.223217010498</ele>
        <time>2012-01-29T09:39:38Z</time>
      </trkpt>
      <trkpt lat="47.267" lon="-1.61668">
        <ele>39.698635101318</ele>
        <time>2012-01-29T09:39:40Z</time>
      </trkpt>
      <trkpt lat="47.26713" lon="-1.61669">
        <ele>40.691310882568</ele>
        <time>2012-01-29T09:39:47Z</time>
      </trkpt>
      <trkpt lat="47.26719" lon="-1.6167">
        <ele>41.130466461182</ele>
        <time>2012-01-29T09:39:50Z</time>
      </trkpt>
      <trkpt lat="47.26725" lon="-1.61673">
        <ele>41.376098632812</ele>
        <time>2012-01-29T09:39:53Z</time>
      </trkpt>
      <trkpt lat="47.26732" lon="-1.61672">
        <ele>42.019275665283</ele>
        <time>2012-01-29T09:39:58Z</time>
      </trkpt>
      <trkpt lat="47.26736" lon="-1.61675">
        <ele>42.131496429443</ele>
        <time>2012-01-29T09:40:03Z</time>
      </trkpt>
      <trkpt lat="47.26746" lon="-1.61686">
        <ele>42.066715240479</ele>
        <time>2012-01-29T09:40:28Z</time>
      </trkpt>
      <trkpt lat="47.26748" lon="-1.61698">
        <ele>41.195587158203</ele>
        <time>2012-01-29T09:40:32Z</time>
      </trkpt>
      <trkpt lat="47.26747" lon="-1.61701">
        <ele>40.872299194336</ele>
        <time>2012-01-29T09:40:34Z</time>
      </trkpt>
      <trkpt lat="47.26748" lon="-1.61702">
        <ele>40.810710906982</ele>
        <time>2012-01-29T09:40:35Z</time>
      </trkpt>
      <trkpt lat="47.26758" lon="-1.61706">
        <ele>41.345958709717</ele>
        <time>2012-01-29T09:40:41Z</time>
      </trkpt>
      <trkpt lat="47.2676" lon="-1.61708">
        <ele>41.340930938721</ele>
        <time>2012-01-29T09:40:45Z</time>
      </trkpt>
      <trkpt lat="47.26763" lon="-1.61711">
        <ele>41.39408493042</ele>
        <time>2012-01-29T09:40:51Z</time>
      </trkpt>
      <trkpt lat="47.26767" lon="-1.61717">
        <ele>41.347644805908</ele>
        <time>2012-01-29T09:40:58Z</time>
      </trkpt>
      <trkpt lat="47.26771" lon="-1.61719">
        <ele>41.653896331787</ele>
        <time>2012-01-29T09:41:05Z</time>
      </trkpt>
      <trkpt lat="47.26772" lon="-1.6172">
        <ele>41.656455993652</ele>
        <time>2012-01-29T09:41:08Z</time>
      </trkpt>
      <trkpt lat="47.26774" lon="-1.61718">
        <ele>41.975120544434</ele>
        <time>2012-01-29T09:41:14Z</time>
      </trkpt>
      <trkpt lat="47.26774" lon="-1.61717">
        <ele>42.006103515625</ele>
        <time>2012-01-29T09:41:15Z</time>
      </trkpt>
      <trkpt lat="47.26776" lon="-1.61711">
        <ele>42.528308868408</ele>
        <time>2012-01-29T09:41:20Z</time>
      </trkpt>
      <trkpt lat="47.26782" lon="-1.61713">
        <ele>42.983619689941</ele>
        <time>2012-01-29T09:41:26Z</time>
      </trkpt>
      <trkpt lat="47.26788" lon="-1.61711">
        <ele>43.596530914307</ele>
        <time>2012-01-29T09:41:31Z</time>
      </trkpt>
      <trkpt lat="47.26794" lon="-1.61697">
        <ele>44.587333679199</ele>
        <time>2012-01-29T09:41:38Z</time>
      </trkpt>
      <trkpt lat="47.26795" lon="-1.61695">
        <ele>44.722179412842</ele>
        <time>2012-01-29T09:41:39Z</time>
      </trkpt>
      <trkpt lat="47.26801" lon="-1.61696">
        <ele>45.094722747803</ele>
        <time>2012-01-29T09:41:43Z</time>
      </trkpt>
      <trkpt lat="47.2681" lon="-1.61707">
        <ele>45.570400238037</ele>
        <time>2012-01-29T09:41:50Z</time>
      </trkpt>
      <trkpt lat="47.26814" lon="-1.61716">
        <ele>45.753597259521</ele>
        <time>2012-01-29T09:41:54Z</time>
      </trkpt>
      <trkpt lat="47.26821" lon="-1.6173">
        <ele>46.389221191406</ele>
        <time>2012-01-29T09:41:59Z</time>
      </trkpt>
      <trkpt lat="47.26824" lon="-1.6174">
        <ele>46.77864074707</ele>
        <time>2012-01-29T09:42:04Z</time>
      </trkpt>
      <trkpt lat="47.26824" lon="-1.6174">
        <ele>46.778781890869</ele>
        <time>2012-01-29T09:42:05Z</time>
      </trkpt>
      <trkpt lat="47.26831" lon="-1.61744">
        <ele>47.686809539795</ele>
        <time>2012-01-29T09:42:47Z</time>
      </trkpt>
      <trkpt lat="47.26842" lon="-1.61741">
        <ele>47.900772094727</ele>
        <time>2012-01-29T09:42:53Z</time>
      </trkpt>
      <trkpt lat="47.26848" lon="-1.61749">
        <ele>47.98620223999</ele>
        <time>2012-01-29T09:42:58Z</time>
      </trkpt>
      <trkpt lat="47.26855" lon="-1.61746">
        <ele>47.96297454834</ele>
        <time>2012-01-29T09:43:02Z</time>
      </trkpt>
      <trkpt lat="47.26867" lon="-1.61741">
        <ele>47.938179016113</ele>
        <time>2012-01-29T09:43:07Z</time>
      </trkpt>
      <trkpt lat="47.26874" lon="-1.61753">
        <ele>47.752433776855</ele>
        <time>2012-01-29T09:43:11Z</time>
      </trkpt>
      <trkpt lat="47.26872" lon="-1.61765">
        <ele>46.892147064209</ele>
        <time>2012-01-29T09:43:14Z</time>
      </trkpt>
      <trkpt lat="47.26871" lon="-1.61776">
        <ele>46.041538238525</ele>
        <time>2012-01-29T09:43:18Z</time>
      </trkpt>
      <trkpt lat="47.2687" lon="-1.61781">
        <ele>45.643264770508</ele>
        <time>2012-01-29T09:43:20Z</time>
      </trkpt>
      <trkpt lat="47.26871" lon="-1.61787">
        <ele>45.214962005615</ele>
        <time>2012-01-29T09:43:22Z</time>
      </trkpt>
      <trkpt lat="47.26873" lon="-1.61816">
        <ele>43.178440093994</ele>
        <time>2012-01-29T09:43:27Z</time>
      </trkpt>
      <trkpt lat="47.26872" lon="-1.61827">
        <ele>42.288051605225</ele>
        <time>2012-01-29T09:43:29Z</time>
      </trkpt>
      <trkpt lat="47.26862" lon="-1.61841">
        <ele>40.703712463379</ele>
        <time>2012-01-29T09:43:33Z</time>
      </trkpt>
      <trkpt lat="47.26859" lon="-1.61858">
        <ele>39.560405731201</ele>
        <time>2012-01-29T09:43:37Z</time>
      </trkpt>
      <trkpt lat="47.26856" lon="-1.61869">
        <ele>38.79899597168</ele>
        <time>2012-01-29T09:43:41Z</time>
      </trkpt>
      <trkpt lat="47.26856" lon="-1.61869">
        <ele>38.803714752197</ele>
        <time>2012-01-29T09:43:42Z</time>
      </trkpt>
      <trkpt lat="47.26862" lon="-1.61881">
        <ele>38.626888275146</ele>
        <time>2012-01-29T09:43:54Z</time>
      </trkpt>
      <trkpt lat="47.26862" lon="-1.61883">
        <ele>38.482097625732</ele>
        <time>2012-01-29T09:43:58Z</time>
      </trkpt>
      <trkpt lat="47.26862" lon="-1.61884">
        <ele>38.410797119141</ele>
        <time>2012-01-29T09:44:40Z</time>
      </trkpt>
      <trkpt lat="47.26862" lon="-1.61898">
        <ele>37.665981292725</ele>
        <time>2012-01-29T09:44:46Z</time>
      </trkpt>
      <trkpt lat="47.26855" lon="-1.61914">
        <ele>36.4541015625</ele>
        <time>2012-01-29T09:44:50Z</time>
      </trkpt>
      <trkpt lat="47.26854" lon="-1.61927">
        <ele>35.700229644775</ele>
        <time>2012-01-29T09:44:53Z</time>
      </trkpt>
      <trkpt lat="47.26863" lon="-1.6193">
        <ele>35.999935150146</ele>
        <time>2012-01-29T09:44:56Z</time>
      </trkpt>
      <trkpt lat="47.26872" lon="-1.61929">
        <ele>36.504734039307</ele>
        <time>2012-01-29T09:45:00Z</time>
      </trkpt>
      <trkpt lat="47.26888" lon="-1.6194">
        <ele>36.300773620605</ele>
        <time>2012-01-29T09:45:05Z</time>
      </trkpt>
      <trkpt lat="47.26902" lon="-1.61947">
        <ele>36.260932922363</ele>
        <time>2012-01-29T09:45:09Z</time>
      </trkpt>
      <trkpt lat="47.26913" lon="-1.61949">
        <ele>36.370208740234</ele>
        <time>2012-01-29T09:45:11Z</time>
      </trkpt>
      <trkpt lat="47.26937" lon="-1.61963">
        <ele>34.964038848877</ele>
        <time>2012-01-29T09:45:16Z</time>
      </trkpt>
      <trkpt lat="47.26941" lon="-1.6197">
        <ele>34.250785827637</ele>
        <time>2012-01-29T09:45:18Z</time>
      </trkpt>
      <trkpt lat="47.26936" lon="-1.61978">
        <ele>33.429386138916</ele>
        <time>2012-01-29T09:45:21Z</time>
      </trkpt>
      <trkpt lat="47.26929" lon="-1.61983">
        <ele>32.846164703369</ele>
        <time>2012-01-29T09:45:24Z</time>
      </trkpt>
      <trkpt lat="47.26924" lon="-1.61989">
        <ele>32.220458984375</ele>
        <time>2012-01-29T09:45:28Z</time>
      </trkpt>
      <trkpt lat="47.26922" lon="-1.61989">
        <ele>32.144500732422</ele>
        <time>2012-01-29T09:45:29Z</time>
      </trkpt>
      <trkpt lat="47.26915" lon="-1.61995">
        <ele>31.532051086426</ele>
        <time>2012-01-29T09:45:32Z</time>
      </trkpt>
      <trkpt lat="47.26905" lon="-1.62005">
        <ele>30.523750305176</ele>
        <time>2012-01-29T09:45:36Z</time>
      </trkpt>
      <trkpt lat="47.26902" lon="-1.62013">
        <ele>29.675840377808</ele>
        <time>2012-01-29T09:45:39Z</time>
      </trkpt>
      <trkpt lat="47.26892" lon="-1.62018">
        <ele>29.328815460205</ele>
        <time>2012-01-29T09:45:43Z</time>
      </trkpt>
      <trkpt lat="47.26886" lon="-1.62026">
        <ele>28.55842590332</ele>
        <time>2012-01-29T09:45:46Z</time>
      </trkpt>
      <trkpt lat="47.26886" lon="-1.62044">
        <ele>26.637773513794</ele>
        <time>2012-01-29T09:45:49Z</time>
      </trkpt>
      <trkpt lat="47.26884" lon="-1.6207">
        <ele>23.928756713867</ele>
        <time>2012-01-29T09:45:53Z</time>
      </trkpt>
      <trkpt lat="47.26874" lon="-1.62084">
        <ele>23.005874633789</ele>
        <time>2012-01-29T09:45:56Z</time>
      </trkpt>
      <trkpt lat="47.26862" lon="-1.62093">
        <ele>22.959522247314</ele>
        <time>2012-01-29T09:46:00Z</time>
      </trkpt>
      <trkpt lat="47.26846" lon="-1.621">
        <ele>23.023693084717</ele>
        <time>2012-01-29T09:46:04Z</time>
      </trkpt>
      <trkpt lat="47.26826" lon="-1.62107">
        <ele>23.036279678345</ele>
        <time>2012-01-29T09:46:08Z</time>
      </trkpt>
      <trkpt lat="47.26802" lon="-1.62104">
        <ele>24.091899871826</ele>
        <time>2012-01-29T09:46:12Z</time>
      </trkpt>
      <trkpt lat="47.26791" lon="-1.621">
        <ele>24.713756561279</ele>
        <time>2012-01-29T09:46:14Z</time>
      </trkpt>
      <trkpt lat="47.26767" lon="-1.62082">
        <ele>25.813966751099</ele>
        <time>2012-01-29T09:46:20Z</time>
      </trkpt>
      <trkpt lat="47.26753" lon="-1.62093">
        <ele>25.926284790039</ele>
        <time>2012-01-29T09:46:24Z</time>
      </trkpt>
      <trkpt lat="47.26752" lon="-1.62115">
        <ele>25.899368286133</ele>
        <time>2012-01-29T09:46:28Z</time>
      </trkpt>
      <trkpt lat="47.26751" lon="-1.62142">
        <ele>25.955198287964</ele>
        <time>2012-01-29T09:46:33Z</time>
      </trkpt>
      <trkpt lat="47.26742" lon="-1.62167">
        <ele>27.406494140625</ele>
        <time>2012-01-29T09:46:38Z</time>
      </trkpt>
      <trkpt lat="47.2674" lon="-1.62182">
        <ele>27.79660987854</ele>
        <time>2012-01-29T09:46:42Z</time>
      </trkpt>
      <trkpt lat="47.26733" lon="-1.62208">
        <ele>28.888498306274</ele>
        <time>2012-01-29T09:46:47Z</time>
      </trkpt>
      <trkpt lat="47.26726" lon="-1.62228">
        <ele>30.399110794067</ele>
        <time>2012-01-29T09:46:51Z</time>
      </trkpt>
      <trkpt lat="47.26717" lon="-1.62228">
        <ele>32.452301025391</ele>
        <time>2012-01-29T09:46:55Z</time>
      </trkpt>
      <trkpt lat="47.26715" lon="-1.62224">
        <ele>32.751586914062</ele>
        <time>2012-01-29T09:46:56Z</time>
      </trkpt>
      <trkpt lat="47.26712" lon="-1.62207">
        <ele>33.228488922119</ele>
        <time>2012-01-29T09:47:02Z</time>
      </trkpt>
      <trkpt lat="47.26712" lon="-1.622">
        <ele>33.242458343506</ele>
        <time>2012-01-29T09:47:04Z</time>
      </trkpt>
      <trkpt lat="47.26708" lon="-1.62197">
        <ele>33.960178375244</ele>
        <time>2012-01-29T09:47:08Z</time>
      </trkpt>
      <trkpt lat="47.26707" lon="-1.62199">
        <ele>34.214645385742</ele>
        <time>2012-01-29T09:47:09Z</time>
      </trkpt>
      <trkpt lat="47.26702" lon="-1.62208">
        <ele>35.256572723389</ele>
        <time>2012-01-29T09:47:12Z</time>
      </trkpt>
      <trkpt lat="47.26703" lon="-1.62232">
        <ele>35.38911819458</ele>
        <time>2012-01-29T09:47:17Z</time>
      </trkpt>
      <trkpt lat="47.26704" lon="-1.62238">
        <ele>35.306934356689</ele>
        <time>2012-01-29T09:47:18Z</time>
      </trkpt>
      <trkpt lat="47.26717" lon="-1.62282">
        <ele>33.07377243042</ele>
        <time>2012-01-29T09:47:25Z</time>
      </trkpt>
      <trkpt lat="47.26717" lon="-1.62288">
        <ele>32.998973846436</ele>
        <time>2012-01-29T09:47:27Z</time>
      </trkpt>
      <trkpt lat="47.26723" lon="-1.62301">
        <ele>31.882610321045</ele>
        <time>2012-01-29T09:47:33Z</time>
      </trkpt>
      <trkpt lat="47.26726" lon="-1.62306">
        <ele>31.397018432617</ele>
        <time>2012-01-29T09:47:34Z</time>
      </trkpt>
      <trkpt lat="47.26736" lon="-1.62327">
        <ele>29.630954742432</ele>
        <time>2012-01-29T09:47:38Z</time>
      </trkpt>
      <trkpt lat="47.26744" lon="-1.62341">
        <ele>28.201137542725</ele>
        <time>2012-01-29T09:47:42Z</time>
      </trkpt>
      <trkpt lat="47.26744" lon="-1.62344">
        <ele>28.121196746826</ele>
        <time>2012-01-29T09:47:43Z</time>
      </trkpt>
      <trkpt lat="47.26744" lon="-1.62358">
        <ele>28.110584259033</ele>
        <time>2012-01-29T09:47:47Z</time>
      </trkpt>
      <trkpt lat="47.26744" lon="-1.62365">
        <ele>28.180679321289</ele>
        <time>2012-01-29T09:47:49Z</time>
      </trkpt>
      <trkpt lat="47.26748" lon="-1.62382">
        <ele>27.414838790894</ele>
        <time>2012-01-29T09:47:54Z</time>
      </trkpt>
      <trkpt lat="47.26748" lon="-1.62388">
        <ele>27.413110733032</ele>
        <time>2012-01-29T09:47:56Z</time>
      </trkpt>
      <trkpt lat="47.26745" lon="-1.62402">
        <ele>28.000978469849</ele>
        <time>2012-01-29T09:48:01Z</time>
      </trkpt>
      <trkpt lat="47.26747" lon="-1.62416">
        <ele>27.551054000854</ele>
        <time>2012-01-29T09:48:05Z</time>
      </trkpt>
      <trkpt lat="47.26743" lon="-1.62441">
        <ele>29.454616546631</ele>
        <time>2012-01-29T09:48:10Z</time>
      </trkpt>
      <trkpt lat="47.26739" lon="-1.62456">
        <ele>30.787866592407</ele>
        <time>2012-01-29T09:48:14Z</time>
      </trkpt>
      <trkpt lat="47.2674" lon="-1.62478">
        <ele>31.677061080933</ele>
        <time>2012-01-29T09:48:19Z</time>
      </trkpt>
      <trkpt lat="47.26739" lon="-1.62483">
        <ele>31.943586349487</ele>
        <time>2012-01-29T09:48:20Z</time>
      </trkpt>
      <trkpt lat="47.26738" lon="-1.62501">
        <ele>32.886463165283</ele>
        <time>2012-01-29T09:48:24Z</time>
      </trkpt>
      <trkpt lat="47.26741" lon="-1.62526">
        <ele>32.766300201416</ele>
        <time>2012-01-29T09:48:29Z</time>
      </trkpt>
      <trkpt lat="47.26744" lon="-1.62554">
        <ele>32.568031311035</ele>
        <time>2012-01-29T09:48:35Z</time>
      </trkpt>
      <trkpt lat="47.26745" lon="-1.62558">
        <ele>32.445865631104</ele>
        <time>2012-01-29T09:48:36Z</time>
      </trkpt>
      <trkpt lat="47.26743" lon="-1.62587">
        <ele>33.229877471924</ele>
        <time>2012-01-29T09:48:41Z</time>
      </trkpt>
      <trkpt lat="47.26743" lon="-1.62615">
        <ele>33.791698455811</ele>
        <time>2012-01-29T09:48:46Z</time>
      </trkpt>
      <trkpt lat="47.26746" lon="-1.62638">
        <ele>33.813930511475</ele>
        <time>2012-01-29T09:48:50Z</time>
      </trkpt>
      <trkpt lat="47.26747" lon="-1.62664">
        <ele>34.298515319824</ele>
        <time>2012-01-29T09:48:55Z</time>
      </trkpt>
      <trkpt lat="47.26747" lon="-1.62676">
        <ele>34.317691802979</ele>
        <time>2012-01-29T09:48:57Z</time>
      </trkpt>
      <trkpt lat="47.26746" lon="-1.62704">
        <ele>34.521606445312</ele>
        <time>2012-01-29T09:49:02Z</time>
      </trkpt>
      <trkpt lat="47.26746" lon="-1.62716">
        <ele>34.443706512451</ele>
        <time>2012-01-29T09:49:04Z</time>
      </trkpt>
      <trkpt lat="47.26751" lon="-1.62741">
        <ele>34.079467773438</ele>
        <time>2012-01-29T09:49:09Z</time>
      </trkpt>
      <trkpt lat="47.26752" lon="-1.6276">
        <ele>34.043617248535</ele>
        <time>2012-01-29T09:49:13Z</time>
      </trkpt>
      <trkpt lat="47.26755" lon="-1.62781">
        <ele>33.939903259277</ele>
        <time>2012-01-29T09:49:17Z</time>
      </trkpt>
      <trkpt lat="47.26753" lon="-1.62809">
        <ele>33.4319190979</ele>
        <time>2012-01-29T09:49:23Z</time>
      </trkpt>
      <trkpt lat="47.26753" lon="-1.6282">
        <ele>33.297092437744</ele>
        <time>2012-01-29T09:49:25Z</time>
      </trkpt>
      <trkpt lat="47.26759" lon="-1.6284">
        <ele>33.03475189209</ele>
        <time>2012-01-29T09:49:28Z</time>
      </trkpt>
      <trkpt lat="47.2676" lon="-1.62865">
        <ele>31.903814315796</ele>
        <time>2012-01-29T09:49:32Z</time>
      </trkpt>
      <trkpt lat="47.2676" lon="-1.62871">
        <ele>31.639947891235</ele>
        <time>2012-01-29T09:49:33Z</time>
      </trkpt>
      <trkpt lat="47.26759" lon="-1.62894">
        <ele>30.462217330933</ele>
        <time>2012-01-29T09:49:38Z</time>
      </trkpt>
      <trkpt lat="47.26757" lon="-1.62899">
        <ele>30.168190002441</ele>
        <time>2012-01-29T09:49:39Z</time>
      </trkpt>
      <trkpt lat="47.26748" lon="-1.62924">
        <ele>29.474988937378</ele>
        <time>2012-01-29T09:49:44Z</time>
      </trkpt>
      <trkpt lat="47.26744" lon="-1.62947">
        <ele>30.252256393433</ele>
        <time>2012-01-29T09:49:48Z</time>
      </trkpt>
      <trkpt lat="47.26745" lon="-1.62958">
        <ele>30.264366149902</ele>
        <time>2012-01-29T09:49:50Z</time>
      </trkpt>
      <trkpt lat="47.26738" lon="-1.62988">
        <ele>31.789138793945</ele>
        <time>2012-01-29T09:49:54Z</time>
      </trkpt>
      <trkpt lat="47.26732" lon="-1.63018">
        <ele>34.021511077881</ele>
        <time>2012-01-29T09:49:59Z</time>
      </trkpt>
      <trkpt lat="47.26734" lon="-1.63034">
        <ele>34.759544372559</ele>
        <time>2012-01-29T09:50:03Z</time>
      </trkpt>
      <trkpt lat="47.26746" lon="-1.6305">
        <ele>34.564273834229</ele>
        <time>2012-01-29T09:50:07Z</time>
      </trkpt>
      <trkpt lat="47.26761" lon="-1.63061">
        <ele>34.389190673828</ele>
        <time>2012-01-29T09:50:11Z</time>
      </trkpt>
      <trkpt lat="47.26767" lon="-1.63066">
        <ele>34.39387512207</ele>
        <time>2012-01-29T09:50:13Z</time>
      </trkpt>
      <trkpt lat="47.26787" lon="-1.6306">
        <ele>32.674736022949</ele>
        <time>2012-01-29T09:50:19Z</time>
      </trkpt>
      <trkpt lat="47.26799" lon="-1.63055">
        <ele>31.72566986084</ele>
        <time>2012-01-29T09:50:23Z</time>
      </trkpt>
      <trkpt lat="47.26802" lon="-1.63055">
        <ele>31.532943725586</ele>
        <time>2012-01-29T09:50:24Z</time>
      </trkpt>
      <trkpt lat="47.26815" lon="-1.63056">
        <ele>30.785449981689</ele>
        <time>2012-01-29T09:50:28Z</time>
      </trkpt>
      <trkpt lat="47.26814" lon="-1.63068">
        <ele>31.161952972412</ele>
        <time>2012-01-29T09:50:33Z</time>
      </trkpt>
      <trkpt lat="47.2682" lon="-1.63073">
        <ele>30.899162292481</ele>
        <time>2012-01-29T09:50:36Z</time>
      </trkpt>
      <trkpt lat="47.26829" lon="-1.6308">
        <ele>30.335279464722</ele>
        <time>2012-01-29T09:50:40Z</time>
      </trkpt>
      <trkpt lat="47.26833" lon="-1.63091">
        <ele>29.975261688232</ele>
        <time>2012-01-29T09:50:43Z</time>
      </trkpt>
      <trkpt lat="47.26836" lon="-1.63098">
        <ele>29.940992355347</ele>
        <time>2012-01-29T09:50:45Z</time>
      </trkpt>
      <trkpt lat="47.26836" lon="-1.63105">
        <ele>29.844841003418</ele>
        <time>2012-01-29T09:50:49Z</time>
      </trkpt>
      <trkpt lat="47.26834" lon="-1.63109">
        <ele>29.716806411743</ele>
        <time>2012-01-29T09:50:52Z</time>
      </trkpt>
      <trkpt lat="47.26831" lon="-1.6312">
        <ele>29.738105773926</ele>
        <time>2012-01-29T09:51:23Z</time>
      </trkpt>
      <trkpt lat="47.26831" lon="-1.6312">
        <ele>29.705595016479</ele>
        <time>2012-01-29T09:51:24Z</time>
      </trkpt>
      <trkpt lat="47.26834" lon="-1.6312">
        <ele>29.589769363403</ele>
        <time>2012-01-29T09:51:28Z</time>
      </trkpt>
      <trkpt lat="47.26836" lon="-1.6312">
        <ele>29.627487182617</ele>
        <time>2012-01-29T09:51:32Z</time>
      </trkpt>
      <trkpt lat="47.26837" lon="-1.63125">
        <ele>29.621549606323</ele>
        <time>2012-01-29T09:51:44Z</time>
      </trkpt>
      <trkpt lat="47.26828" lon="-1.63128">
        <ele>29.846584320068</ele>
        <time>2012-01-29T09:51:49Z</time>
      </trkpt>
      <trkpt lat="47.2682" lon="-1.63128">
        <ele>30.524188995361</ele>
        <time>2012-01-29T09:51:53Z</time>
      </trkpt>
      <trkpt lat="47.2681" lon="-1.63128">
        <ele>31.303924560547</ele>
        <time>2012-01-29T09:51:58Z</time>
      </trkpt>
      <trkpt lat="47.26804" lon="-1.63124">
        <ele>31.83963394165</ele>
        <time>2012-01-29T09:52:01Z</time>
      </trkpt>
      <trkpt lat="47.26793" lon="-1.63124">
        <ele>32.695484161377</ele>
        <time>2012-01-29T09:52:06Z</time>
      </trkpt>
      <trkpt lat="47.26777" lon="-1.63124">
        <ele>33.946796417236</ele>
        <time>2012-01-29T09:52:13Z</time>
      </trkpt>
      <trkpt lat="47.26775" lon="-1.63124">
        <ele>34.042240142822</ele>
        <time>2012-01-29T09:52:14Z</time>
      </trkpt>
      <trkpt lat="47.26767" lon="-1.63119">
        <ele>34.825241088867</ele>
        <time>2012-01-29T09:52:19Z</time>
      </trkpt>
      <trkpt lat="47.26762" lon="-1.63114">
        <ele>35.329627990723</ele>
        <time>2012-01-29T09:52:22Z</time>
      </trkpt>
      <trkpt lat="47.26756" lon="-1.6311">
        <ele>35.88650894165</ele>
        <time>2012-01-29T09:52:25Z</time>
      </trkpt>
      <trkpt lat="47.26747" lon="-1.63108">
        <ele>36.515277862549</ele>
        <time>2012-01-29T09:52:30Z</time>
      </trkpt>
      <trkpt lat="47.26741" lon="-1.63104">
        <ele>36.799663543701</ele>
        <time>2012-01-29T09:52:34Z</time>
      </trkpt>
      <trkpt lat="47.2673" lon="-1.63102">
        <ele>37.298435211182</ele>
        <time>2012-01-29T09:52:40Z</time>
      </trkpt>
      <trkpt lat="47.2672" lon="-1.63089">
        <ele>38.182949066162</ele>
        <time>2012-01-29T09:52:47Z</time>
      </trkpt>
      <trkpt lat="47.26714" lon="-1.63076">
        <ele>38.495323181152</ele>
        <time>2012-01-29T09:52:53Z</time>
      </trkpt>
      <trkpt lat="47.26709" lon="-1.63066">
        <ele>38.53902053833</ele>
        <time>2012-01-29T09:52:58Z</time>
      </trkpt>
      <trkpt lat="47.26704" lon="-1.63052">
        <ele>38.642143249512</ele>
        <time>2012-01-29T09:53:05Z</time>
      </trkpt>
      <trkpt lat="47.26698" lon="-1.63041">
        <ele>39.156646728516</ele>
        <time>2012-01-29T09:53:10Z</time>
      </trkpt>
      <trkpt lat="47.26696" lon="-1.63037">
        <ele>39.343299865723</ele>
        <time>2012-01-29T09:53:12Z</time>
      </trkpt>
      <trkpt lat="47.26693" lon="-1.63025">
        <ele>39.579780578613</ele>
        <time>2012-01-29T09:53:18Z</time>
      </trkpt>
      <trkpt lat="47.26693" lon="-1.63022">
        <ele>39.675201416016</ele>
        <time>2012-01-29T09:53:20Z</time>
      </trkpt>
      <trkpt lat="47.26694" lon="-1.63015">
        <ele>39.500045776367</ele>
        <time>2012-01-29T09:53:23Z</time>
      </trkpt>
      <trkpt lat="47.26699" lon="-1.63011">
        <ele>38.67195892334</ele>
        <time>2012-01-29T09:53:28Z</time>
      </trkpt>
      <trkpt lat="47.26704" lon="-1.63001">
        <ele>37.739868164062</ele>
        <time>2012-01-29T09:54:07Z</time>
      </trkpt>
      <trkpt lat="47.26711" lon="-1.62988">
        <ele>36.362098693848</ele>
        <time>2012-01-29T09:54:12Z</time>
      </trkpt>
      <trkpt lat="47.26712" lon="-1.62983">
        <ele>36.019504547119</ele>
        <time>2012-01-29T09:54:14Z</time>
      </trkpt>
      <trkpt lat="47.26717" lon="-1.62977">
        <ele>35.101707458496</ele>
        <time>2012-01-29T09:54:17Z</time>
      </trkpt>
      <trkpt lat="47.26726" lon="-1.62983">
        <ele>33.807487487793</ele>
        <time>2012-01-29T09:54:21Z</time>
      </trkpt>
      <trkpt lat="47.26735" lon="-1.62983">
        <ele>32.234382629395</ele>
        <time>2012-01-29T09:54:25Z</time>
      </trkpt>
      <trkpt lat="47.26736" lon="-1.62984">
        <ele>32.119216918945</ele>
        <time>2012-01-29T09:54:26Z</time>
      </trkpt>
      <trkpt lat="47.26736" lon="-1.62987">
        <ele>32.093585968018</ele>
        <time>2012-01-29T09:54:28Z</time>
      </trkpt>
      <trkpt lat="47.26736" lon="-1.6299">
        <ele>32.131336212158</ele>
        <time>2012-01-29T09:54:31Z</time>
      </trkpt>
      <trkpt lat="47.26736" lon="-1.62995">
        <ele>32.338493347168</ele>
        <time>2012-01-29T09:54:41Z</time>
      </trkpt>
      <trkpt lat="47.26731" lon="-1.63008">
        <ele>33.545627593994</ele>
        <time>2012-01-29T09:54:46Z</time>
      </trkpt>
      <trkpt lat="47.26733" lon="-1.63017">
        <ele>33.85326385498</ele>
        <time>2012-01-29T09:54:49Z</time>
      </trkpt>
      <trkpt lat="47.26734" lon="-1.63026">
        <ele>34.319713592529</ele>
        <time>2012-01-29T09:54:51Z</time>
      </trkpt>
      <trkpt lat="47.26743" lon="-1.63051">
        <ele>34.908679962158</ele>
        <time>2012-01-29T09:54:57Z</time>
      </trkpt>
      <trkpt lat="47.26762" lon="-1.63065">
        <ele>34.655853271484</ele>
        <time>2012-01-29T09:55:02Z</time>
      </trkpt>
      <trkpt lat="47.26778" lon="-1.63069">
        <ele>33.773178100586</ele>
        <time>2012-01-29T09:55:07Z</time>
      </trkpt>
      <trkpt lat="47.26787" lon="-1.63061">
        <ele>32.737586975098</ele>
        <time>2012-01-29T09:55:10Z</time>
      </trkpt>
      <trkpt lat="47.268" lon="-1.63057">
        <ele>31.726947784424</ele>
        <time>2012-01-29T09:55:14Z</time>
      </trkpt>
      <trkpt lat="47.26812" lon="-1.63059">
        <ele>31.01668548584</ele>
        <time>2012-01-29T09:55:18Z</time>
      </trkpt>
      <trkpt lat="47.26817" lon="-1.63067">
        <ele>30.912727355957</ele>
        <time>2012-01-29T09:55:23Z</time>
      </trkpt>
      <trkpt lat="47.2682" lon="-1.63067">
        <ele>30.719024658203</ele>
        <time>2012-01-29T09:55:26Z</time>
      </trkpt>
      <trkpt lat="47.2682" lon="-1.63074">
        <ele>30.869733810425</ele>
        <time>2012-01-29T09:55:29Z</time>
      </trkpt>
      <trkpt lat="47.26826" lon="-1.63081">
        <ele>30.5358543396</ele>
        <time>2012-01-29T09:55:32Z</time>
      </trkpt>
      <trkpt lat="47.26834" lon="-1.63101">
        <ele>29.815464019775</ele>
        <time>2012-01-29T09:55:39Z</time>
      </trkpt>
      <trkpt lat="47.26834" lon="-1.63107">
        <ele>29.744007110596</ele>
        <time>2012-01-29T09:55:43Z</time>
      </trkpt>
      <trkpt lat="47.26828" lon="-1.63115">
        <ele>30.078939437866</ele>
        <time>2012-01-29T09:55:47Z</time>
      </trkpt>
      <trkpt lat="47.26821" lon="-1.63123">
        <ele>30.504621505737</ele>
        <time>2012-01-29T09:55:52Z</time>
      </trkpt>
      <trkpt lat="47.26806" lon="-1.63126">
        <ele>31.62077331543</ele>
        <time>2012-01-29T09:55:59Z</time>
      </trkpt>
      <trkpt lat="47.26796" lon="-1.63127">
        <ele>32.41535949707</ele>
        <time>2012-01-29T09:56:04Z</time>
      </trkpt>
      <trkpt lat="47.26787" lon="-1.63129">
        <ele>33.032348632812</ele>
        <time>2012-01-29T09:56:08Z</time>
      </trkpt>
      <trkpt lat="47.26775" lon="-1.63132">
        <ele>33.917114257812</ele>
        <time>2012-01-29T09:56:13Z</time>
      </trkpt>
      <trkpt lat="47.26765" lon="-1.63126">
        <ele>34.780162811279</ele>
        <time>2012-01-29T09:56:18Z</time>
      </trkpt>
      <trkpt lat="47.26752" lon="-1.63113">
        <ele>36.121379852295</ele>
        <time>2012-01-29T09:56:25Z</time>
      </trkpt>
      <trkpt lat="47.2674" lon="-1.63107">
        <ele>36.763698577881</ele>
        <time>2012-01-29T09:56:31Z</time>
      </trkpt>
      <trkpt lat="47.26732" lon="-1.63095">
        <ele>37.455905914307</ele>
        <time>2012-01-29T09:56:37Z</time>
      </trkpt>
      <trkpt lat="47.26724" lon="-1.63083">
        <ele>38.216201782227</ele>
        <time>2012-01-29T09:56:43Z</time>
      </trkpt>
      <trkpt lat="47.26722" lon="-1.63082">
        <ele>38.311344146729</ele>
        <time>2012-01-29T09:56:44Z</time>
      </trkpt>
      <trkpt lat="47.26714" lon="-1.6309">
        <ele>38.462394714355</ele>
        <time>2012-01-29T09:56:50Z</time>
      </trkpt>
      <trkpt lat="47.26717" lon="-1.63096">
        <ele>38.048194885254</ele>
        <time>2012-01-29T09:56:56Z</time>
      </trkpt>
      <trkpt lat="47.26717" lon="-1.631">
        <ele>37.87181854248</ele>
        <time>2012-01-29T09:57:01Z</time>
      </trkpt>
      <trkpt lat="47.26716" lon="-1.631">
        <ele>37.888210296631</ele>
        <time>2012-01-29T09:57:03Z</time>
      </trkpt>
      <trkpt lat="47.26716" lon="-1.63095">
        <ele>38.116775512695</ele>
        <time>2012-01-29T09:57:07Z</time>
      </trkpt>
      <trkpt lat="47.26709" lon="-1.63076">
        <ele>38.778327941895</ele>
        <time>2012-01-29T09:57:14Z</time>
      </trkpt>
      <trkpt lat="47.26708" lon="-1.63073">
        <ele>38.780601501465</ele>
        <time>2012-01-29T09:57:15Z</time>
      </trkpt>
      <trkpt lat="47.26704" lon="-1.63064">
        <ele>38.826412200928</ele>
        <time>2012-01-29T09:57:19Z</time>
      </trkpt>
      <trkpt lat="47.26694" lon="-1.63045">
        <ele>39.587524414062</ele>
        <time>2012-01-29T09:57:25Z</time>
      </trkpt>
      <trkpt lat="47.26685" lon="-1.63043">
        <ele>40.474582672119</ele>
        <time>2012-01-29T09:57:29Z</time>
      </trkpt>
      <trkpt lat="47.26683" lon="-1.63045">
        <ele>40.648029327393</ele>
        <time>2012-01-29T09:57:31Z</time>
      </trkpt>
      <trkpt lat="47.26685" lon="-1.63051">
        <ele>40.402500152588</ele>
        <time>2012-01-29T09:57:35Z</time>
      </trkpt>
      <trkpt lat="47.26691" lon="-1.63059">
        <ele>39.850856781006</ele>
        <time>2012-01-29T09:57:40Z</time>
      </trkpt>
      <trkpt lat="47.26699" lon="-1.63065">
        <ele>39.275856018066</ele>
        <time>2012-01-29T09:57:45Z</time>
      </trkpt>
      <trkpt lat="47.26705" lon="-1.63073">
        <ele>38.943115234375</ele>
        <time>2012-01-29T09:57:49Z</time>
      </trkpt>
      <trkpt lat="47.26713" lon="-1.6309">
        <ele>38.479305267334</ele>
        <time>2012-01-29T09:57:55Z</time>
      </trkpt>
      <trkpt lat="47.26723" lon="-1.63107">
        <ele>37.365795135498</ele>
        <time>2012-01-29T09:58:00Z</time>
      </trkpt>
      <trkpt lat="47.26725" lon="-1.63113">
        <ele>37.033420562744</ele>
        <time>2012-01-29T09:58:01Z</time>
      </trkpt>
      <trkpt lat="47.26739" lon="-1.63134">
        <ele>35.983810424805</ele>
        <time>2012-01-29T09:58:04Z</time>
      </trkpt>
      <trkpt lat="47.26765" lon="-1.63149">
        <ele>34.266426086426</ele>
        <time>2012-01-29T09:58:08Z</time>
      </trkpt>
      <trkpt lat="47.26787" lon="-1.63158">
        <ele>32.482456207275</ele>
        <time>2012-01-29T09:58:11Z</time>
      </trkpt>
      <trkpt lat="47.26825" lon="-1.63178">
        <ele>28.752979278564</ele>
        <time>2012-01-29T09:58:16Z</time>
      </trkpt>
      <trkpt lat="47.26834" lon="-1.63182">
        <ele>27.874443054199</ele>
        <time>2012-01-29T09:58:17Z</time>
      </trkpt>
      <trkpt lat="47.26862" lon="-1.63192">
        <ele>27.808614730835</ele>
        <time>2012-01-29T09:58:21Z</time>
      </trkpt>
      <trkpt lat="47.26869" lon="-1.63198">
        <ele>27.677099227905</ele>
        <time>2012-01-29T09:58:25Z</time>
      </trkpt>
      <trkpt lat="47.26869" lon="-1.63198">
        <ele>27.682487487793</ele>
        <time>2012-01-29T09:58:26Z</time>
      </trkpt>
      <trkpt lat="47.26868" lon="-1.63198">
        <ele>27.592678070068</ele>
        <time>2012-01-29T09:59:06Z</time>
      </trkpt>
      <trkpt lat="47.26864" lon="-1.63186">
        <ele>28.213888168335</ele>
        <time>2012-01-29T09:59:11Z</time>
      </trkpt>
      <trkpt lat="47.26863" lon="-1.63184">
        <ele>28.300640106201</ele>
        <time>2012-01-29T09:59:12Z</time>
      </trkpt>
      <trkpt lat="47.26851" lon="-1.63157">
        <ele>29.40033531189</ele>
        <time>2012-01-29T09:59:19Z</time>
      </trkpt>
      <trkpt lat="47.26845" lon="-1.63141">
        <ele>29.57615852356</ele>
        <time>2012-01-29T09:59:25Z</time>
      </trkpt>
      <trkpt lat="47.2684" lon="-1.63129">
        <ele>29.652366638184</ele>
        <time>2012-01-29T09:59:31Z</time>
      </trkpt>
      <trkpt lat="47.2684" lon="-1.63122">
        <ele>29.73770904541</ele>
        <time>2012-01-29T09:59:36Z</time>
      </trkpt>
      <trkpt lat="47.26834" lon="-1.63116">
        <ele>29.652166366577</ele>
        <time>2012-01-29T10:00:23Z</time>
      </trkpt>
      <trkpt lat="47.26833" lon="-1.63117">
        <ele>29.591577529907</ele>
        <time>2012-01-29T10:00:24Z</time>
      </trkpt>
      <trkpt lat="47.26826" lon="-1.63123">
        <ele>30.125806808472</ele>
        <time>2012-01-29T10:00:28Z</time>
      </trkpt>
      <trkpt lat="47.26813" lon="-1.63125">
        <ele>31.071723937988</ele>
        <time>2012-01-29T10:00:35Z</time>
      </trkpt>
      <trkpt lat="47.26808" lon="-1.63123">
        <ele>31.524129867554</ele>
        <time>2012-01-29T10:00:39Z</time>
      </trkpt>
      <trkpt lat="47.26804" lon="-1.63123">
        <ele>31.847787857056</ele>
        <time>2012-01-29T10:00:41Z</time>
      </trkpt>
      <trkpt lat="47.26796" lon="-1.63124">
        <ele>32.406227111816</ele>
        <time>2012-01-29T10:00:44Z</time>
      </trkpt>
      <trkpt lat="47.26785" lon="-1.63125">
        <ele>33.250274658203</ele>
        <time>2012-01-29T10:00:49Z</time>
      </trkpt>
      <trkpt lat="47.26773" lon="-1.63125">
        <ele>34.223964691162</ele>
        <time>2012-01-29T10:00:55Z</time>
      </trkpt>
      <trkpt lat="47.26761" lon="-1.63121">
        <ele>35.24694442749</ele>
        <time>2012-01-29T10:01:01Z</time>
      </trkpt>
      <trkpt lat="47.26753" lon="-1.63116">
        <ele>36.001499176025</ele>
        <time>2012-01-29T10:01:06Z</time>
      </trkpt>
      <trkpt lat="47.26749" lon="-1.63115">
        <ele>36.280883789062</ele>
        <time>2012-01-29T10:01:08Z</time>
      </trkpt>
      <trkpt lat="47.26738" lon="-1.63105">
        <ele>36.910068511963</ele>
        <time>2012-01-29T10:01:14Z</time>
      </trkpt>
      <trkpt lat="47.26725" lon="-1.63101">
        <ele>37.491710662842</ele>
        <time>2012-01-29T10:01:20Z</time>
      </trkpt>
      <trkpt lat="47.26724" lon="-1.631">
        <ele>37.596096038818</ele>
        <time>2012-01-29T10:01:21Z</time>
      </trkpt>
      <trkpt lat="47.2672" lon="-1.63103">
        <ele>37.612598419189</ele>
        <time>2012-01-29T10:01:27Z</time>
      </trkpt>
      <trkpt lat="47.26722" lon="-1.63107">
        <ele>37.374599456787</ele>
        <time>2012-01-29T10:01:32Z</time>
      </trkpt>
      <trkpt lat="47.26727" lon="-1.63113">
        <ele>37.013519287109</ele>
        <time>2012-01-29T10:02:09Z</time>
      </trkpt>
      <trkpt lat="47.26728" lon="-1.63115">
        <ele>36.911792755127</ele>
        <time>2012-01-29T10:02:10Z</time>
      </trkpt>
      <trkpt lat="47.26735" lon="-1.63126">
        <ele>36.319271087646</ele>
        <time>2012-01-29T10:02:13Z</time>
      </trkpt>
      <trkpt lat="47.26746" lon="-1.63139">
        <ele>35.721935272217</ele>
        <time>2012-01-29T10:02:15Z</time>
      </trkpt>
      <trkpt lat="47.26768" lon="-1.63155">
        <ele>33.938961029053</ele>
        <time>2012-01-29T10:02:18Z</time>
      </trkpt>
      <trkpt lat="47.2681" lon="-1.63174">
        <ele>30.132278442383</ele>
        <time>2012-01-29T10:02:23Z</time>
      </trkpt>
      <trkpt lat="47.26818" lon="-1.63178">
        <ele>29.303153991699</ele>
        <time>2012-01-29T10:02:24Z</time>
      </trkpt>
      <trkpt lat="47.26857" lon="-1.63195">
        <ele>27.499805450439</ele>
        <time>2012-01-29T10:02:29Z</time>
      </trkpt>
      <trkpt lat="47.26867" lon="-1.632">
        <ele>27.475023269653</ele>
        <time>2012-01-29T10:02:32Z</time>
      </trkpt>
      <trkpt lat="47.26867" lon="-1.63193">
        <ele>27.885572433472</ele>
        <time>2012-01-29T10:02:36Z</time>
      </trkpt>
      <trkpt lat="47.26862" lon="-1.63179">
        <ele>28.590900421143</ele>
        <time>2012-01-29T10:03:00Z</time>
      </trkpt>
      <trkpt lat="47.26858" lon="-1.63172">
        <ele>28.982835769653</ele>
        <time>2012-01-29T10:03:03Z</time>
      </trkpt>
      <trkpt lat="47.26854" lon="-1.6316">
        <ele>29.386623382568</ele>
        <time>2012-01-29T10:03:07Z</time>
      </trkpt>
      <trkpt lat="47.26846" lon="-1.63141">
        <ele>29.60054397583</ele>
        <time>2012-01-29T10:03:14Z</time>
      </trkpt>
      <trkpt lat="47.26844" lon="-1.63129">
        <ele>29.759286880493</ele>
        <time>2012-01-29T10:03:20Z</time>
      </trkpt>
      <trkpt lat="47.26839" lon="-1.63124">
        <ele>29.679084777832</ele>
        <time>2012-01-29T10:05:58Z</time>
      </trkpt>
      <trkpt lat="47.2683" lon="-1.63129">
        <ele>29.75154876709</ele>
        <time>2012-01-29T10:06:04Z</time>
      </trkpt>
      <trkpt lat="47.26818" lon="-1.63129">
        <ele>30.605829238892</ele>
        <time>2012-01-29T10:06:11Z</time>
      </trkpt>
      <trkpt lat="47.26815" lon="-1.6313">
        <ele>30.87939453125</ele>
        <time>2012-01-29T10:06:13Z</time>
      </trkpt>
      <trkpt lat="47.2681" lon="-1.63127">
        <ele>31.278888702393</ele>
        <time>2012-01-29T10:06:17Z</time>
      </trkpt>
      <trkpt lat="47.26801" lon="-1.63128">
        <ele>32.008029937744</ele>
        <time>2012-01-29T10:06:24Z</time>
      </trkpt>
      <trkpt lat="47.26796" lon="-1.63127">
        <ele>32.38383102417</ele>
        <time>2012-01-29T10:06:27Z</time>
      </trkpt>
      <trkpt lat="47.26781" lon="-1.63132">
        <ele>33.468292236328</ele>
        <time>2012-01-29T10:06:35Z</time>
      </trkpt>
      <trkpt lat="47.26778" lon="-1.63132">
        <ele>33.667934417725</ele>
        <time>2012-01-29T10:06:36Z</time>
      </trkpt>
      <trkpt lat="47.26774" lon="-1.63129">
        <ele>34.020893096924</ele>
        <time>2012-01-29T10:06:39Z</time>
      </trkpt>
      <trkpt lat="47.26765" lon="-1.63122">
        <ele>34.888473510742</ele>
        <time>2012-01-29T10:06:44Z</time>
      </trkpt>
      <trkpt lat="47.26757" lon="-1.63114">
        <ele>35.724002838135</ele>
        <time>2012-01-29T10:06:49Z</time>
      </trkpt>
      <trkpt lat="47.26753" lon="-1.63114">
        <ele>36.016109466553</ele>
        <time>2012-01-29T10:06:51Z</time>
      </trkpt>
      <trkpt lat="47.2675" lon="-1.63114">
        <ele>36.27721786499</ele>
        <time>2012-01-29T10:06:53Z</time>
      </trkpt>
      <trkpt lat="47.26741" lon="-1.63107">
        <ele>36.752124786377</ele>
        <time>2012-01-29T10:07:00Z</time>
      </trkpt>
      <trkpt lat="47.26738" lon="-1.63106">
        <ele>36.873203277588</ele>
        <time>2012-01-29T10:07:02Z</time>
      </trkpt>
      <trkpt lat="47.26727" lon="-1.63099">
        <ele>37.527400970459</ele>
        <time>2012-01-29T10:07:10Z</time>
      </trkpt>
      <trkpt lat="47.26723" lon="-1.63097">
        <ele>37.755256652832</ele>
        <time>2012-01-29T10:07:15Z</time>
      </trkpt>
      <trkpt lat="47.26723" lon="-1.63096">
        <ele>37.790466308594</ele>
        <time>2012-01-29T10:07:16Z</time>
      </trkpt>
      <trkpt lat="47.26719" lon="-1.63102">
        <ele>37.72473526001</ele>
        <time>2012-01-29T10:08:11Z</time>
      </trkpt>
      <trkpt lat="47.26722" lon="-1.63107">
        <ele>37.395801544189</ele>
        <time>2012-01-29T10:08:13Z</time>
      </trkpt>
      <trkpt lat="47.26749" lon="-1.63144">
        <ele>35.554077148438</ele>
        <time>2012-01-29T10:08:19Z</time>
      </trkpt>
      <trkpt lat="47.26787" lon="-1.63163">
        <ele>32.416763305664</ele>
        <time>2012-01-29T10:08:24Z</time>
      </trkpt>
      <trkpt lat="47.2683" lon="-1.63182">
        <ele>28.079208374023</ele>
        <time>2012-01-29T10:08:29Z</time>
      </trkpt>
      <trkpt lat="47.26855" lon="-1.63193">
        <ele>27.640085220337</ele>
        <time>2012-01-29T10:08:33Z</time>
      </trkpt>
      <trkpt lat="47.26863" lon="-1.63194">
        <ele>27.737728118896</ele>
        <time>2012-01-29T10:08:36Z</time>
      </trkpt>
      <trkpt lat="47.26863" lon="-1.63195">
        <ele>27.720151901245</ele>
        <time>2012-01-29T10:08:37Z</time>
      </trkpt>
      <trkpt lat="47.26865" lon="-1.63188">
        <ele>28.145727157593</ele>
        <time>2012-01-29T10:08:43Z</time>
      </trkpt>
      <trkpt lat="47.26867" lon="-1.63182">
        <ele>28.511613845825</ele>
        <time>2012-01-29T10:08:48Z</time>
      </trkpt>
      <trkpt lat="47.26868" lon="-1.63183">
        <ele>28.495597839356</ele>
        <time>2012-01-29T10:08:49Z</time>
      </trkpt>
      <trkpt lat="47.26867" lon="-1.63186">
        <ele>28.29522895813</ele>
        <time>2012-01-29T10:08:53Z</time>
      </trkpt>
      <trkpt lat="47.26862" lon="-1.63188">
        <ele>28.045026779175</ele>
        <time>2012-01-29T10:09:55Z</time>
      </trkpt>
      <trkpt lat="47.26863" lon="-1.63192">
        <ele>27.890995025635</ele>
        <time>2012-01-29T10:09:59Z</time>
      </trkpt>
      <trkpt lat="47.2687" lon="-1.63204">
        <ele>27.359708786011</ele>
        <time>2012-01-29T10:10:05Z</time>
      </trkpt>
      <trkpt lat="47.26874" lon="-1.63215">
        <ele>26.87896156311</ele>
        <time>2012-01-29T10:10:09Z</time>
      </trkpt>
      <trkpt lat="47.26887" lon="-1.63226">
        <ele>26.771856307983</ele>
        <time>2012-01-29T10:10:17Z</time>
      </trkpt>
      <trkpt lat="47.26902" lon="-1.63235">
        <ele>26.938802719116</ele>
        <time>2012-01-29T10:10:24Z</time>
      </trkpt>
      <trkpt lat="47.26917" lon="-1.63242">
        <ele>27.266332626343</ele>
        <time>2012-01-29T10:10:31Z</time>
      </trkpt>
      <trkpt lat="47.26928" lon="-1.63249">
        <ele>28.716558456421</ele>
        <time>2012-01-29T10:10:37Z</time>
      </trkpt>
      <trkpt lat="47.2694" lon="-1.63259">
        <ele>30.459930419922</ele>
        <time>2012-01-29T10:10:43Z</time>
      </trkpt>
      <trkpt lat="47.26951" lon="-1.63267">
        <ele>32.038600921631</ele>
        <time>2012-01-29T10:10:49Z</time>
      </trkpt>
      <trkpt lat="47.26954" lon="-1.63279">
        <ele>32.603782653809</ele>
        <time>2012-01-29T10:10:54Z</time>
      </trkpt>
      <trkpt lat="47.26955" lon="-1.63294">
        <ele>32.75904083252</ele>
        <time>2012-01-29T10:11:00Z</time>
      </trkpt>
      <trkpt lat="47.26949" lon="-1.63317">
        <ele>32.086536407471</ele>
        <time>2012-01-29T10:11:07Z</time>
      </trkpt>
      <trkpt lat="47.26941" lon="-1.63347">
        <ele>31.635559082031</ele>
        <time>2012-01-29T10:11:13Z</time>
      </trkpt>
      <trkpt lat="47.26936" lon="-1.63369">
        <ele>31.7767162323</ele>
        <time>2012-01-29T10:11:17Z</time>
      </trkpt>
      <trkpt lat="47.26933" lon="-1.63378">
        <ele>31.691984176636</ele>
        <time>2012-01-29T10:11:19Z</time>
      </trkpt>
      <trkpt lat="47.26921" lon="-1.6338">
        <ele>30.288146972656</ele>
        <time>2012-01-29T10:11:23Z</time>
      </trkpt>
      <trkpt lat="47.26917" lon="-1.63378">
        <ele>29.690650939941</ele>
        <time>2012-01-29T10:11:24Z</time>
      </trkpt>
      <trkpt lat="47.26907" lon="-1.63373">
        <ele>28.762647628784</ele>
        <time>2012-01-29T10:11:26Z</time>
      </trkpt>
      <trkpt lat="47.26897" lon="-1.63369">
        <ele>27.881500244141</ele>
        <time>2012-01-29T10:11:28Z</time>
      </trkpt>
      <trkpt lat="47.26871" lon="-1.63362">
        <ele>25.924652099609</ele>
        <time>2012-01-29T10:11:33Z</time>
      </trkpt>
      <trkpt lat="47.2687" lon="-1.63374">
        <ele>26.133226394653</ele>
        <time>2012-01-29T10:11:35Z</time>
      </trkpt>
      <trkpt lat="47.26871" lon="-1.6338">
        <ele>26.310913085938</ele>
        <time>2012-01-29T10:11:36Z</time>
      </trkpt>
      <trkpt lat="47.26872" lon="-1.63403">
        <ele>26.956764221191</ele>
        <time>2012-01-29T10:11:40Z</time>
      </trkpt>
      <trkpt lat="47.26861" lon="-1.63452">
        <ele>27.859697341919</ele>
        <time>2012-01-29T10:11:48Z</time>
      </trkpt>
      <trkpt lat="47.26859" lon="-1.63458">
        <ele>27.991485595703</ele>
        <time>2012-01-29T10:11:49Z</time>
      </trkpt>
      <trkpt lat="47.26849" lon="-1.6349">
        <ele>28.655614852905</ele>
        <time>2012-01-29T10:11:55Z</time>
      </trkpt>
      <trkpt lat="47.26833" lon="-1.63531">
        <ele>29.845418930054</ele>
        <time>2012-01-29T10:12:03Z</time>
      </trkpt>
      <trkpt lat="47.26813" lon="-1.63578">
        <ele>30.818244934082</ele>
        <time>2012-01-29T10:12:12Z</time>
      </trkpt>
      <trkpt lat="47.26808" lon="-1.63588">
        <ele>30.814403533936</ele>
        <time>2012-01-29T10:12:14Z</time>
      </trkpt>
      <trkpt lat="47.26788" lon="-1.63608">
        <ele>29.770935058594</ele>
        <time>2012-01-29T10:12:19Z</time>
      </trkpt>
      <trkpt lat="47.26779" lon="-1.63615">
        <ele>29.224863052368</ele>
        <time>2012-01-29T10:12:21Z</time>
      </trkpt>
      <trkpt lat="47.26765" lon="-1.6364">
        <ele>28.762315750122</ele>
        <time>2012-01-29T10:12:26Z</time>
      </trkpt>
      <trkpt lat="47.26761" lon="-1.63667">
        <ele>29.386308670044</ele>
        <time>2012-01-29T10:12:30Z</time>
      </trkpt>
      <trkpt lat="47.2675" lon="-1.63693">
        <ele>29.577617645264</ele>
        <time>2012-01-29T10:12:33Z</time>
      </trkpt>
      <trkpt lat="47.2674" lon="-1.63723">
        <ele>31.514793395996</ele>
        <time>2012-01-29T10:12:36Z</time>
      </trkpt>
      <trkpt lat="47.26732" lon="-1.63782">
        <ele>34.141288757324</ele>
        <time>2012-01-29T10:12:42Z</time>
      </trkpt>
      <trkpt lat="47.26729" lon="-1.63832">
        <ele>35.944595336914</ele>
        <time>2012-01-29T10:12:48Z</time>
      </trkpt>
      <trkpt lat="47.26721" lon="-1.63876">
        <ele>35.682521820068</ele>
        <time>2012-01-29T10:12:54Z</time>
      </trkpt>
      <trkpt lat="47.26719" lon="-1.63891">
        <ele>35.638179779053</ele>
        <time>2012-01-29T10:12:56Z</time>
      </trkpt>
      <trkpt lat="47.26724" lon="-1.63904">
        <ele>35.350555419922</ele>
        <time>2012-01-29T10:12:59Z</time>
      </trkpt>
      <trkpt lat="47.2673" lon="-1.63913">
        <ele>35.012413024902</ele>
        <time>2012-01-29T10:13:03Z</time>
      </trkpt>
      <trkpt lat="47.26734" lon="-1.63921">
        <ele>34.642635345459</ele>
        <time>2012-01-29T10:13:06Z</time>
      </trkpt>
      <trkpt lat="47.26739" lon="-1.63928">
        <ele>34.164245605469</ele>
        <time>2012-01-29T10:13:09Z</time>
      </trkpt>
      <trkpt lat="47.26751" lon="-1.63941">
        <ele>33.15238571167</ele>
        <time>2012-01-29T10:13:15Z</time>
      </trkpt>
      <trkpt lat="47.26761" lon="-1.63947">
        <ele>33.523666381836</ele>
        <time>2012-01-29T10:13:20Z</time>
      </trkpt>
      <trkpt lat="47.26764" lon="-1.63946">
        <ele>33.741580963135</ele>
        <time>2012-01-29T10:13:22Z</time>
      </trkpt>
      <trkpt lat="47.26773" lon="-1.63941">
        <ele>34.468627929688</ele>
        <time>2012-01-29T10:13:28Z</time>
      </trkpt>
      <trkpt lat="47.26785" lon="-1.63929">
        <ele>35.553516387939</ele>
        <time>2012-01-29T10:13:36Z</time>
      </trkpt>
      <trkpt lat="47.26793" lon="-1.63913">
        <ele>36.772846221924</ele>
        <time>2012-01-29T10:13:43Z</time>
      </trkpt>
      <trkpt lat="47.26796" lon="-1.63906">
        <ele>37.341617584229</ele>
        <time>2012-01-29T10:13:47Z</time>
      </trkpt>
      <trkpt lat="47.26804" lon="-1.63901">
        <ele>38.095600128174</ele>
        <time>2012-01-29T10:13:53Z</time>
      </trkpt>
      <trkpt lat="47.26813" lon="-1.63894">
        <ele>39.15584564209</ele>
        <time>2012-01-29T10:14:01Z</time>
      </trkpt>
      <trkpt lat="47.26821" lon="-1.63883">
        <ele>40.429679870605</ele>
        <time>2012-01-29T10:14:08Z</time>
      </trkpt>
      <trkpt lat="47.26828" lon="-1.63872">
        <ele>41.705612182617</ele>
        <time>2012-01-29T10:14:14Z</time>
      </trkpt>
      <trkpt lat="47.26838" lon="-1.63859">
        <ele>43.325939178467</ele>
        <time>2012-01-29T10:14:20Z</time>
      </trkpt>
      <trkpt lat="47.2685" lon="-1.63846">
        <ele>44.687786102295</ele>
        <time>2012-01-29T10:14:27Z</time>
      </trkpt>
      <trkpt lat="47.26862" lon="-1.63832">
        <ele>46.022212982178</ele>
        <time>2012-01-29T10:14:32Z</time>
      </trkpt>
      <trkpt lat="47.26872" lon="-1.63823">
        <ele>46.21057510376</ele>
        <time>2012-01-29T10:14:37Z</time>
      </trkpt>
      <trkpt lat="47.26876" lon="-1.63831">
        <ele>46.508255004883</ele>
        <time>2012-01-29T10:14:42Z</time>
      </trkpt>
      <trkpt lat="47.26878" lon="-1.63833">
        <ele>46.586116790771</ele>
        <time>2012-01-29T10:14:43Z</time>
      </trkpt>
      <trkpt lat="47.26887" lon="-1.63853">
        <ele>45.672958374023</ele>
        <time>2012-01-29T10:14:51Z</time>
      </trkpt>
      <trkpt lat="47.26896" lon="-1.63859">
        <ele>45.632350921631</ele>
        <time>2012-01-29T10:14:55Z</time>
      </trkpt>
      <trkpt lat="47.26899" lon="-1.63874">
        <ele>44.783699035645</ele>
        <time>2012-01-29T10:15:00Z</time>
      </trkpt>
      <trkpt lat="47.26899" lon="-1.63879">
        <ele>44.518569946289</ele>
        <time>2012-01-29T10:15:04Z</time>
      </trkpt>
      <trkpt lat="47.26899" lon="-1.63881">
        <ele>44.403678894043</ele>
        <time>2012-01-29T10:15:11Z</time>
      </trkpt>
      <trkpt lat="47.26899" lon="-1.63883">
        <ele>44.270233154297</ele>
        <time>2012-01-29T10:15:15Z</time>
      </trkpt>
      <trkpt lat="47.26895" lon="-1.63886">
        <ele>43.90795135498</ele>
        <time>2012-01-29T10:15:23Z</time>
      </trkpt>
      <trkpt lat="47.26894" lon="-1.63886">
        <ele>43.843059539795</ele>
        <time>2012-01-29T10:15:24Z</time>
      </trkpt>
      <trkpt lat="47.2689" lon="-1.639">
        <ele>42.804882049561</ele>
        <time>2012-01-29T10:15:30Z</time>
      </trkpt>
      <trkpt lat="47.26897" lon="-1.63915">
        <ele>42.151435852051</ele>
        <time>2012-01-29T10:15:33Z</time>
      </trkpt>
      <trkpt lat="47.26904" lon="-1.63933">
        <ele>41.585487365723</ele>
        <time>2012-01-29T10:15:37Z</time>
      </trkpt>
      <trkpt lat="47.26905" lon="-1.63939">
        <ele>41.380638122559</ele>
        <time>2012-01-29T10:15:38Z</time>
      </trkpt>
      <trkpt lat="47.26908" lon="-1.63955">
        <ele>40.721458435059</ele>
        <time>2012-01-29T10:15:41Z</time>
      </trkpt>
      <trkpt lat="47.26917" lon="-1.63983">
        <ele>39.919479370117</ele>
        <time>2012-01-29T10:15:45Z</time>
      </trkpt>
      <trkpt lat="47.26928" lon="-1.63995">
        <ele>40.903774261475</ele>
        <time>2012-01-29T10:15:50Z</time>
      </trkpt>
      <trkpt lat="47.26927" lon="-1.64017">
        <ele>40.714794158936</ele>
        <time>2012-01-29T10:15:55Z</time>
      </trkpt>
      <trkpt lat="47.26918" lon="-1.64038">
        <ele>39.680450439453</ele>
        <time>2012-01-29T10:15:59Z</time>
      </trkpt>
      <trkpt lat="47.26917" lon="-1.64059">
        <ele>39.708648681641</ele>
        <time>2012-01-29T10:16:02Z</time>
      </trkpt>
      <trkpt lat="47.26917" lon="-1.64066">
        <ele>39.854816436768</ele>
        <time>2012-01-29T10:16:03Z</time>
      </trkpt>
      <trkpt lat="47.26918" lon="-1.64072">
        <ele>40.00704574585</ele>
        <time>2012-01-29T10:16:05Z</time>
      </trkpt>
      <trkpt lat="47.26918" lon="-1.64073">
        <ele>40.052131652832</ele>
        <time>2012-01-29T10:16:07Z</time>
      </trkpt>
      <trkpt lat="47.26916" lon="-1.64077">
        <ele>39.953983306885</ele>
        <time>2012-01-29T10:16:22Z</time>
      </trkpt>
      <trkpt lat="47.26922" lon="-1.6407">
        <ele>40.388439178467</ele>
        <time>2012-01-29T10:16:29Z</time>
      </trkpt>
      <trkpt lat="47.26925" lon="-1.64066">
        <ele>40.72435760498</ele>
        <time>2012-01-29T10:16:32Z</time>
      </trkpt>
      <trkpt lat="47.26929" lon="-1.64062">
        <ele>41.169647216797</ele>
        <time>2012-01-29T10:16:37Z</time>
      </trkpt>
      <trkpt lat="47.26936" lon="-1.64058">
        <ele>41.900314331055</ele>
        <time>2012-01-29T10:16:44Z</time>
      </trkpt>
      <trkpt lat="47.26944" lon="-1.64056">
        <ele>42.830394744873</ele>
        <time>2012-01-29T10:16:53Z</time>
      </trkpt>
      <trkpt lat="47.26944" lon="-1.64056">
        <ele>42.873764038086</ele>
        <time>2012-01-29T10:16:54Z</time>
      </trkpt>
      <trkpt lat="47.26944" lon="-1.64057">
        <ele>42.824275970459</ele>
        <time>2012-01-29T10:17:22Z</time>
      </trkpt>
      <trkpt lat="47.26945" lon="-1.64062">
        <ele>42.86865234375</ele>
        <time>2012-01-29T10:17:28Z</time>
      </trkpt>
      <trkpt lat="47.26949" lon="-1.64072">
        <ele>43.223346710205</ele>
        <time>2012-01-29T10:17:34Z</time>
      </trkpt>
      <trkpt lat="47.2695" lon="-1.64074">
        <ele>43.357486724854</ele>
        <time>2012-01-29T10:17:35Z</time>
      </trkpt>
      <trkpt lat="47.26961" lon="-1.6409">
        <ele>43.945087432861</ele>
        <time>2012-01-29T10:17:43Z</time>
      </trkpt>
      <trkpt lat="47.26971" lon="-1.64098">
        <ele>44.380928039551</ele>
        <time>2012-01-29T10:17:50Z</time>
      </trkpt>
      <trkpt lat="47.26973" lon="-1.64103">
        <ele>44.340106964111</ele>
        <time>2012-01-29T10:17:52Z</time>
      </trkpt>
      <trkpt lat="47.26982" lon="-1.6411">
        <ele>44.490962982178</ele>
        <time>2012-01-29T10:17:59Z</time>
      </trkpt>
      <trkpt lat="47.26982" lon="-1.6411">
        <ele>44.497219085693</ele>
        <time>2012-01-29T10:18:00Z</time>
      </trkpt>
      <trkpt lat="47.26989" lon="-1.64111">
        <ele>44.918212890625</ele>
        <time>2012-01-29T10:18:17Z</time>
      </trkpt>
      <trkpt lat="47.26994" lon="-1.6411">
        <ele>45.35334777832</ele>
        <time>2012-01-29T10:18:21Z</time>
      </trkpt>
      <trkpt lat="47.26999" lon="-1.64107">
        <ele>45.888431549072</ele>
        <time>2012-01-29T10:18:24Z</time>
      </trkpt>
      <trkpt lat="47.27" lon="-1.6411">
        <ele>45.728408813477</ele>
        <time>2012-01-29T10:18:26Z</time>
      </trkpt>
      <trkpt lat="47.27" lon="-1.64112">
        <ele>45.527946472168</ele>
        <time>2012-01-29T10:18:28Z</time>
      </trkpt>
      <trkpt lat="47.26997" lon="-1.64117">
        <ele>44.99242401123</ele>
        <time>2012-01-29T10:18:32Z</time>
      </trkpt>
      <trkpt lat="47.26994" lon="-1.64136">
        <ele>43.3479347229</ele>
        <time>2012-01-29T10:18:38Z</time>
      </trkpt>
      <trkpt lat="47.26987" lon="-1.64154">
        <ele>41.724910736084</ele>
        <time>2012-01-29T10:18:42Z</time>
      </trkpt>
      <trkpt lat="47.26983" lon="-1.64189">
        <ele>40.434246063232</ele>
        <time>2012-01-29T10:18:47Z</time>
      </trkpt>
      <trkpt lat="47.26981" lon="-1.6419">
        <ele>40.437503814697</ele>
        <time>2012-01-29T10:18:49Z</time>
      </trkpt>
      <trkpt lat="47.26978" lon="-1.64188">
        <ele>40.506484985352</ele>
        <time>2012-01-29T10:18:51Z</time>
      </trkpt>
      <trkpt lat="47.26975" lon="-1.64182">
        <ele>40.58589553833</ele>
        <time>2012-01-29T10:18:54Z</time>
      </trkpt>
      <trkpt lat="47.2697" lon="-1.64171">
        <ele>40.633266448975</ele>
        <time>2012-01-29T10:19:01Z</time>
      </trkpt>
      <trkpt lat="47.26965" lon="-1.64163">
        <ele>40.752960205078</ele>
        <time>2012-01-29T10:19:08Z</time>
      </trkpt>
      <trkpt lat="47.26961" lon="-1.64159">
        <ele>40.878772735596</ele>
        <time>2012-01-29T10:19:12Z</time>
      </trkpt>
      <trkpt lat="47.26954" lon="-1.64152">
        <ele>40.979106903076</ele>
        <time>2012-01-29T10:19:20Z</time>
      </trkpt>
      <trkpt lat="47.26949" lon="-1.64144">
        <ele>41.09822845459</ele>
        <time>2012-01-29T10:19:28Z</time>
      </trkpt>
      <trkpt lat="47.26944" lon="-1.6414">
        <ele>41.070777893066</ele>
        <time>2012-01-29T10:19:32Z</time>
      </trkpt>
      <trkpt lat="47.26943" lon="-1.64134">
        <ele>41.180553436279</ele>
        <time>2012-01-29T10:19:35Z</time>
      </trkpt>
      <trkpt lat="47.26937" lon="-1.64122">
        <ele>41.163219451904</ele>
        <time>2012-01-29T10:19:41Z</time>
      </trkpt>
      <trkpt lat="47.26931" lon="-1.64114">
        <ele>40.96076965332</ele>
        <time>2012-01-29T10:19:46Z</time>
      </trkpt>
      <trkpt lat="47.2693" lon="-1.64112">
        <ele>40.910671234131</ele>
        <time>2012-01-29T10:19:47Z</time>
      </trkpt>
      <trkpt lat="47.26923" lon="-1.64097">
        <ele>40.517944335938</ele>
        <time>2012-01-29T10:19:54Z</time>
      </trkpt>
      <trkpt lat="47.26922" lon="-1.64093">
        <ele>40.446090698242</ele>
        <time>2012-01-29T10:19:56Z</time>
      </trkpt>
      <trkpt lat="47.26923" lon="-1.64088">
        <ele>40.612670898438</ele>
        <time>2012-01-29T10:19:59Z</time>
      </trkpt>
      <trkpt lat="47.26922" lon="-1.64083">
        <ele>40.493457794189</ele>
        <time>2012-01-29T10:20:02Z</time>
      </trkpt>
      <trkpt lat="47.2692" lon="-1.64075">
        <ele>40.23168182373</ele>
        <time>2012-01-29T10:20:08Z</time>
      </trkpt>
      <trkpt lat="47.26926" lon="-1.64065">
        <ele>40.76252746582</ele>
        <time>2012-01-29T10:20:15Z</time>
      </trkpt>
      <trkpt lat="47.26928" lon="-1.64063">
        <ele>40.961963653564</ele>
        <time>2012-01-29T10:20:17Z</time>
      </trkpt>
      <trkpt lat="47.26932" lon="-1.64061">
        <ele>41.423732757568</ele>
        <time>2012-01-29T10:20:21Z</time>
      </trkpt>
      <trkpt lat="47.26939" lon="-1.64058">
        <ele>42.250595092773</ele>
        <time>2012-01-29T10:20:26Z</time>
      </trkpt>
      <trkpt lat="47.26945" lon="-1.64054">
        <ele>42.935085296631</ele>
        <time>2012-01-29T10:20:32Z</time>
      </trkpt>
      <trkpt lat="47.26947" lon="-1.64059">
        <ele>43.196144104004</ele>
        <time>2012-01-29T10:20:42Z</time>
      </trkpt>
      <trkpt lat="47.26949" lon="-1.64066">
        <ele>43.248275756836</ele>
        <time>2012-01-29T10:20:47Z</time>
      </trkpt>
      <trkpt lat="47.26951" lon="-1.64075">
        <ele>43.38402557373</ele>
        <time>2012-01-29T10:20:54Z</time>
      </trkpt>
      <trkpt lat="47.26955" lon="-1.64084">
        <ele>43.693477630615</ele>
        <time>2012-01-29T10:21:01Z</time>
      </trkpt>
      <trkpt lat="47.2696" lon="-1.6409">
        <ele>43.851455688477</ele>
        <time>2012-01-29T10:21:06Z</time>
      </trkpt>
      <trkpt lat="47.26967" lon="-1.64094">
        <ele>44.268699645996</ele>
        <time>2012-01-29T10:21:11Z</time>
      </trkpt>
      <trkpt lat="47.26974" lon="-1.64102">
        <ele>44.444774627686</ele>
        <time>2012-01-29T10:21:18Z</time>
      </trkpt>
      <trkpt lat="47.26984" lon="-1.6411">
        <ele>44.654914855957</ele>
        <time>2012-01-29T10:21:26Z</time>
      </trkpt>
      <trkpt lat="47.26988" lon="-1.64112">
        <ele>44.794101715088</ele>
        <time>2012-01-29T10:21:30Z</time>
      </trkpt>
      <trkpt lat="47.26992" lon="-1.64107">
        <ele>45.449348449707</ele>
        <time>2012-01-29T10:21:44Z</time>
      </trkpt>
      <trkpt lat="47.26999" lon="-1.64105">
        <ele>46.057178497314</ele>
        <time>2012-01-29T10:21:50Z</time>
      </trkpt>
      <trkpt lat="47.27" lon="-1.64106">
        <ele>46.140964508057</ele>
        <time>2012-01-29T10:21:53Z</time>
      </trkpt>
      <trkpt lat="47.26998" lon="-1.64117">
        <ele>45.0973777771</ele>
        <time>2012-01-29T10:22:12Z</time>
      </trkpt>
      <trkpt lat="47.26997" lon="-1.64121">
        <ele>44.63109588623</ele>
        <time>2012-01-29T10:22:14Z</time>
      </trkpt>
      <trkpt lat="47.27" lon="-1.64133">
        <ele>43.842678070068</ele>
        <time>2012-01-29T10:22:19Z</time>
      </trkpt>
      <trkpt lat="47.27006" lon="-1.64142">
        <ele>43.575756072998</ele>
        <time>2012-01-29T10:22:23Z</time>
      </trkpt>
      <trkpt lat="47.27014" lon="-1.64153">
        <ele>43.453544616699</ele>
        <time>2012-01-29T10:22:27Z</time>
      </trkpt>
      <trkpt lat="47.27019" lon="-1.64154">
        <ele>43.841899871826</ele>
        <time>2012-01-29T10:22:31Z</time>
      </trkpt>
      <trkpt lat="47.27022" lon="-1.64156">
        <ele>44.033737182617</ele>
        <time>2012-01-29T10:22:36Z</time>
      </trkpt>
      <trkpt lat="47.27028" lon="-1.6416">
        <ele>44.379608154297</ele>
        <time>2012-01-29T10:24:28Z</time>
      </trkpt>
      <trkpt lat="47.27034" lon="-1.64174">
        <ele>44.488204956055</ele>
        <time>2012-01-29T10:24:35Z</time>
      </trkpt>
      <trkpt lat="47.27046" lon="-1.6419">
        <ele>45.277290344238</ele>
        <time>2012-01-29T10:24:42Z</time>
      </trkpt>
      <trkpt lat="47.2705" lon="-1.64199">
        <ele>45.45934677124</ele>
        <time>2012-01-29T10:24:46Z</time>
      </trkpt>
      <trkpt lat="47.27056" lon="-1.64222">
        <ele>45.521938323975</ele>
        <time>2012-01-29T10:24:52Z</time>
      </trkpt>
      <trkpt lat="47.27058" lon="-1.64225">
        <ele>45.612995147705</ele>
        <time>2012-01-29T10:24:53Z</time>
      </trkpt>
      <trkpt lat="47.27068" lon="-1.64234">
        <ele>46.625972747803</ele>
        <time>2012-01-29T10:24:58Z</time>
      </trkpt>
      <trkpt lat="47.27077" lon="-1.64242">
        <ele>47.411083221436</ele>
        <time>2012-01-29T10:25:02Z</time>
      </trkpt>
      <trkpt lat="47.27091" lon="-1.64264">
        <ele>47.1591796875</ele>
        <time>2012-01-29T10:25:09Z</time>
      </trkpt>
      <trkpt lat="47.27092" lon="-1.64289">
        <ele>45.994579315186</ele>
        <time>2012-01-29T10:25:15Z</time>
      </trkpt>
      <trkpt lat="47.27089" lon="-1.64305">
        <ele>45.249500274658</ele>
        <time>2012-01-29T10:25:20Z</time>
      </trkpt>
      <trkpt lat="47.27089" lon="-1.64315">
        <ele>44.8083152771</ele>
        <time>2012-01-29T10:25:23Z</time>
      </trkpt>
      <trkpt lat="47.27092" lon="-1.64326">
        <ele>44.253032684326</ele>
        <time>2012-01-29T10:25:27Z</time>
      </trkpt>
      <trkpt lat="47.27098" lon="-1.64339">
        <ele>43.726573944092</ele>
        <time>2012-01-29T10:25:32Z</time>
      </trkpt>
      <trkpt lat="47.27102" lon="-1.64342">
        <ele>43.635520935059</ele>
        <time>2012-01-29T10:25:35Z</time>
      </trkpt>
      <trkpt lat="47.27105" lon="-1.64345">
        <ele>43.566860198975</ele>
        <time>2012-01-29T10:25:39Z</time>
      </trkpt>
      <trkpt lat="47.27108" lon="-1.64361">
        <ele>43.330837249756</ele>
        <time>2012-01-29T10:25:49Z</time>
      </trkpt>
      <trkpt lat="47.27108" lon="-1.64366">
        <ele>43.264625549316</ele>
        <time>2012-01-29T10:25:51Z</time>
      </trkpt>
      <trkpt lat="47.27108" lon="-1.6437">
        <ele>43.217426300049</ele>
        <time>2012-01-29T10:25:53Z</time>
      </trkpt>
      <trkpt lat="47.27109" lon="-1.64378">
        <ele>43.116340637207</ele>
        <time>2012-01-29T10:25:59Z</time>
      </trkpt>
      <trkpt lat="47.27107" lon="-1.6439">
        <ele>42.933528900146</ele>
        <time>2012-01-29T10:26:04Z</time>
      </trkpt>
      <trkpt lat="47.27106" lon="-1.64397">
        <ele>42.830612182617</ele>
        <time>2012-01-29T10:26:06Z</time>
      </trkpt>
      <trkpt lat="47.27104" lon="-1.64406">
        <ele>42.647010803223</ele>
        <time>2012-01-29T10:26:09Z</time>
      </trkpt>
      <trkpt lat="47.27098" lon="-1.64426">
        <ele>42.270683288574</ele>
        <time>2012-01-29T10:26:14Z</time>
      </trkpt>
      <trkpt lat="47.27097" lon="-1.64436">
        <ele>42.156520843506</ele>
        <time>2012-01-29T10:26:18Z</time>
      </trkpt>
      <trkpt lat="47.27097" lon="-1.64439">
        <ele>42.135234832764</ele>
        <time>2012-01-29T10:26:20Z</time>
      </trkpt>
      <trkpt lat="47.27094" lon="-1.6445">
        <ele>41.968364715576</ele>
        <time>2012-01-29T10:26:25Z</time>
      </trkpt>
      <trkpt lat="47.2709" lon="-1.64459">
        <ele>41.723171234131</ele>
        <time>2012-01-29T10:26:28Z</time>
      </trkpt>
      <trkpt lat="47.2708" lon="-1.64464">
        <ele>41.331554412842</ele>
        <time>2012-01-29T10:26:32Z</time>
      </trkpt>
      <trkpt lat="47.27072" lon="-1.64466">
        <ele>41.04679107666</ele>
        <time>2012-01-29T10:26:36Z</time>
      </trkpt>
      <trkpt lat="47.27065" lon="-1.64468">
        <ele>40.799156188965</ele>
        <time>2012-01-29T10:26:39Z</time>
      </trkpt>
      <trkpt lat="47.27064" lon="-1.6447">
        <ele>40.733734130859</ele>
        <time>2012-01-29T10:26:40Z</time>
      </trkpt>
      <trkpt lat="47.27061" lon="-1.64475">
        <ele>40.585243225098</ele>
        <time>2012-01-29T10:26:42Z</time>
      </trkpt>
      <trkpt lat="47.2705" lon="-1.6447">
        <ele>40.306297302246</ele>
        <time>2012-01-29T10:26:46Z</time>
      </trkpt>
      <trkpt lat="47.27042" lon="-1.64459">
        <ele>40.240386962891</ele>
        <time>2012-01-29T10:26:48Z</time>
      </trkpt>
      <trkpt lat="47.27024" lon="-1.64441">
        <ele>40.088714599609</ele>
        <time>2012-01-29T10:26:52Z</time>
      </trkpt>
      <trkpt lat="47.27018" lon="-1.64442">
        <ele>39.886867523193</ele>
        <time>2012-01-29T10:26:54Z</time>
      </trkpt>
      <trkpt lat="47.27005" lon="-1.64456">
        <ele>39.197574615479</ele>
        <time>2012-01-29T10:27:00Z</time>
      </trkpt>
      <trkpt lat="47.27001" lon="-1.64466">
        <ele>38.843372344971</ele>
        <time>2012-01-29T10:27:06Z</time>
      </trkpt>
      <trkpt lat="47.2699" lon="-1.64464">
        <ele>40.326515197754</ele>
        <time>2012-01-29T10:27:13Z</time>
      </trkpt>
      <trkpt lat="47.2698" lon="-1.64459">
        <ele>42.017200469971</ele>
        <time>2012-01-29T10:27:21Z</time>
      </trkpt>
      <trkpt lat="47.26976" lon="-1.64458">
        <ele>42.666728973389</ele>
        <time>2012-01-29T10:27:25Z</time>
      </trkpt>
      <trkpt lat="47.26973" lon="-1.64459">
        <ele>43.031925201416</ele>
        <time>2012-01-29T10:27:28Z</time>
      </trkpt>
      <trkpt lat="47.26972" lon="-1.6446">
        <ele>43.16703414917</ele>
        <time>2012-01-29T10:27:30Z</time>
      </trkpt>
      <trkpt lat="47.26968" lon="-1.64461">
        <ele>43.657093048096</ele>
        <time>2012-01-29T10:27:37Z</time>
      </trkpt>
      <trkpt lat="47.26968" lon="-1.6446">
        <ele>43.729270935059</ele>
        <time>2012-01-29T10:27:38Z</time>
      </trkpt>
      <trkpt lat="47.26968" lon="-1.6446">
        <ele>43.808826446533</ele>
        <time>2012-01-29T10:27:39Z</time>
      </trkpt>
      <trkpt lat="47.26963" lon="-1.64458">
        <ele>44.60595703125</ele>
        <time>2012-01-29T10:27:56Z</time>
      </trkpt>
      <trkpt lat="47.26959" lon="-1.64457">
        <ele>45.207759857178</ele>
        <time>2012-01-29T10:28:03Z</time>
      </trkpt>
      <trkpt lat="47.26956" lon="-1.64456">
        <ele>45.673748016357</ele>
        <time>2012-01-29T10:28:08Z</time>
      </trkpt>
      <trkpt lat="47.26951" lon="-1.64459">
        <ele>46.366973876953</ele>
        <time>2012-01-29T10:28:31Z</time>
      </trkpt>
      <trkpt lat="47.26947" lon="-1.64457">
        <ele>46.947429656982</ele>
        <time>2012-01-29T10:28:37Z</time>
      </trkpt>
      <trkpt lat="47.26947" lon="-1.64454">
        <ele>47.198577880859</ele>
        <time>2012-01-29T10:28:40Z</time>
      </trkpt>
      <trkpt lat="47.26944" lon="-1.6445">
        <ele>47.815937042236</ele>
        <time>2012-01-29T10:28:46Z</time>
      </trkpt>
      <trkpt lat="47.2694" lon="-1.64451">
        <ele>48.332077026367</ele>
        <time>2012-01-29T10:28:50Z</time>
      </trkpt>
      <trkpt lat="47.26935" lon="-1.64458">
        <ele>48.816326141357</ele>
        <time>2012-01-29T10:28:55Z</time>
      </trkpt>
      <trkpt lat="47.26928" lon="-1.64469">
        <ele>49.247180938721</ele>
        <time>2012-01-29T10:29:02Z</time>
      </trkpt>
      <trkpt lat="47.26925" lon="-1.64477">
        <ele>49.135494232178</ele>
        <time>2012-01-29T10:29:06Z</time>
      </trkpt>
      <trkpt lat="47.26919" lon="-1.64506">
        <ele>48.647941589355</ele>
        <time>2012-01-29T10:29:15Z</time>
      </trkpt>
      <trkpt lat="47.26916" lon="-1.64533">
        <ele>48.657165527344</ele>
        <time>2012-01-29T10:29:21Z</time>
      </trkpt>
      <trkpt lat="47.26913" lon="-1.64548">
        <ele>48.620403289795</ele>
        <time>2012-01-29T10:29:24Z</time>
      </trkpt>
      <trkpt lat="47.26912" lon="-1.64578">
        <ele>48.347175598145</ele>
        <time>2012-01-29T10:29:31Z</time>
      </trkpt>
      <trkpt lat="47.26907" lon="-1.64612">
        <ele>48.274772644043</ele>
        <time>2012-01-29T10:29:39Z</time>
      </trkpt>
      <trkpt lat="47.26904" lon="-1.64638">
        <ele>48.230335235596</ele>
        <time>2012-01-29T10:29:45Z</time>
      </trkpt>
      <trkpt lat="47.26897" lon="-1.64668">
        <ele>48.392902374268</ele>
        <time>2012-01-29T10:29:52Z</time>
      </trkpt>
      <trkpt lat="47.26885" lon="-1.64699">
        <ele>48.897445678711</ele>
        <time>2012-01-29T10:29:59Z</time>
      </trkpt>
      <trkpt lat="47.26876" lon="-1.64725">
        <ele>49.218307495117</ele>
        <time>2012-01-29T10:30:05Z</time>
      </trkpt>
      <trkpt lat="47.26867" lon="-1.64759">
        <ele>49.042465209961</ele>
        <time>2012-01-29T10:30:13Z</time>
      </trkpt>
      <trkpt lat="47.2686" lon="-1.64778">
        <ele>48.421241760254</ele>
        <time>2012-01-29T10:30:18Z</time>
      </trkpt>
      <trkpt lat="47.26855" lon="-1.64794">
        <ele>47.867782592773</ele>
        <time>2012-01-29T10:30:22Z</time>
      </trkpt>
      <trkpt lat="47.26852" lon="-1.64807">
        <ele>47.397388458252</ele>
        <time>2012-01-29T10:30:25Z</time>
      </trkpt>
      <trkpt lat="47.26844" lon="-1.64834">
        <ele>46.874694824219</ele>
        <time>2012-01-29T10:30:30Z</time>
      </trkpt>
      <trkpt lat="47.26839" lon="-1.64846">
        <ele>46.786239624023</ele>
        <time>2012-01-29T10:30:34Z</time>
      </trkpt>
      <trkpt lat="47.26842" lon="-1.6487">
        <ele>45.434688568115</ele>
        <time>2012-01-29T10:30:39Z</time>
      </trkpt>
      <trkpt lat="47.26837" lon="-1.64887">
        <ele>45.095211029053</ele>
        <time>2012-01-29T10:30:43Z</time>
      </trkpt>
      <trkpt lat="47.26835" lon="-1.6489">
        <ele>45.147041320801</ele>
        <time>2012-01-29T10:30:44Z</time>
      </trkpt>
      <trkpt lat="47.26831" lon="-1.64896">
        <ele>45.070224761963</ele>
        <time>2012-01-29T10:30:46Z</time>
      </trkpt>
      <trkpt lat="47.2683" lon="-1.64916">
        <ele>44.178558349609</ele>
        <time>2012-01-29T10:30:51Z</time>
      </trkpt>
      <trkpt lat="47.26833" lon="-1.64916">
        <ele>44.073169708252</ele>
        <time>2012-01-29T10:30:53Z</time>
      </trkpt>
      <trkpt lat="47.2684" lon="-1.64916">
        <ele>43.534778594971</ele>
        <time>2012-01-29T10:30:57Z</time>
      </trkpt>
      <trkpt lat="47.26846" lon="-1.64912">
        <ele>43.263374328613</ele>
        <time>2012-01-29T10:31:00Z</time>
      </trkpt>
      <trkpt lat="47.26852" lon="-1.64904">
        <ele>43.113502502441</ele>
        <time>2012-01-29T10:31:04Z</time>
      </trkpt>
      <trkpt lat="47.2686" lon="-1.64889">
        <ele>43.106430053711</ele>
        <time>2012-01-29T10:31:08Z</time>
      </trkpt>
      <trkpt lat="47.26863" lon="-1.64879">
        <ele>43.191066741943</ele>
        <time>2012-01-29T10:31:12Z</time>
      </trkpt>
      <trkpt lat="47.26872" lon="-1.6488">
        <ele>42.328941345215</ele>
        <time>2012-01-29T10:31:16Z</time>
      </trkpt>
      <trkpt lat="47.26876" lon="-1.64883">
        <ele>41.911762237549</ele>
        <time>2012-01-29T10:31:17Z</time>
      </trkpt>
      <trkpt lat="47.26881" lon="-1.64891">
        <ele>41.306365966797</ele>
        <time>2012-01-29T10:31:22Z</time>
      </trkpt>
      <trkpt lat="47.26881" lon="-1.64905">
        <ele>40.906845092773</ele>
        <time>2012-01-29T10:31:37Z</time>
      </trkpt>
      <trkpt lat="47.26878" lon="-1.64911">
        <ele>40.911350250244</ele>
        <time>2012-01-29T10:31:40Z</time>
      </trkpt>
      <trkpt lat="47.26874" lon="-1.64912">
        <ele>41.186996459961</ele>
        <time>2012-01-29T10:31:46Z</time>
      </trkpt>
      <trkpt lat="47.26875" lon="-1.64916">
        <ele>41.050128936768</ele>
        <time>2012-01-29T10:31:53Z</time>
      </trkpt>
      <trkpt lat="47.26878" lon="-1.64925">
        <ele>40.576713562012</ele>
        <time>2012-01-29T10:31:59Z</time>
      </trkpt>
      <trkpt lat="47.26874" lon="-1.64933">
        <ele>40.674640655518</ele>
        <time>2012-01-29T10:32:05Z</time>
      </trkpt>
      <trkpt lat="47.2687" lon="-1.64938">
        <ele>40.814125061035</ele>
        <time>2012-01-29T10:32:10Z</time>
      </trkpt>
      <trkpt lat="47.26862" lon="-1.64943">
        <ele>41.11852645874</ele>
        <time>2012-01-29T10:32:16Z</time>
      </trkpt>
      <trkpt lat="47.26855" lon="-1.64946">
        <ele>41.425075531006</ele>
        <time>2012-01-29T10:32:21Z</time>
      </trkpt>
      <trkpt lat="47.26851" lon="-1.64948">
        <ele>41.524154663086</ele>
        <time>2012-01-29T10:32:23Z</time>
      </trkpt>
      <trkpt lat="47.2684" lon="-1.64963">
        <ele>41.450973510742</ele>
        <time>2012-01-29T10:32:28Z</time>
      </trkpt>
      <trkpt lat="47.26832" lon="-1.64981">
        <ele>41.041790008545</ele>
        <time>2012-01-29T10:32:33Z</time>
      </trkpt>
      <trkpt lat="47.2683" lon="-1.6499">
        <ele>40.88468170166</ele>
        <time>2012-01-29T10:32:37Z</time>
      </trkpt>
      <trkpt lat="47.2683" lon="-1.64991">
        <ele>40.802803039551</ele>
        <time>2012-01-29T10:32:39Z</time>
      </trkpt>
      <trkpt lat="47.26838" lon="-1.65009">
        <ele>39.503513336182</ele>
        <time>2012-01-29T10:33:21Z</time>
      </trkpt>
      <trkpt lat="47.26847" lon="-1.65015">
        <ele>39.084636688232</ele>
        <time>2012-01-29T10:33:25Z</time>
      </trkpt>
      <trkpt lat="47.26848" lon="-1.65021">
        <ele>38.878322601318</ele>
        <time>2012-01-29T10:33:27Z</time>
      </trkpt>
      <trkpt lat="47.26846" lon="-1.65039">
        <ele>38.18346786499</ele>
        <time>2012-01-29T10:33:32Z</time>
      </trkpt>
      <trkpt lat="47.2684" lon="-1.6507">
        <ele>36.834487915039</ele>
        <time>2012-01-29T10:33:38Z</time>
      </trkpt>
      <trkpt lat="47.26838" lon="-1.65082">
        <ele>36.22904586792</ele>
        <time>2012-01-29T10:33:40Z</time>
      </trkpt>
      <trkpt lat="47.26831" lon="-1.65106">
        <ele>34.985210418701</ele>
        <time>2012-01-29T10:33:44Z</time>
      </trkpt>
      <trkpt lat="47.2682" lon="-1.65127">
        <ele>35.630367279053</ele>
        <time>2012-01-29T10:33:48Z</time>
      </trkpt>
      <trkpt lat="47.26812" lon="-1.65134">
        <ele>36.372833251953</ele>
        <time>2012-01-29T10:33:50Z</time>
      </trkpt>
      <trkpt lat="47.26802" lon="-1.65154">
        <ele>37.014259338379</ele>
        <time>2012-01-29T10:33:54Z</time>
      </trkpt>
      <trkpt lat="47.2679" lon="-1.65173">
        <ele>38.054798126221</ele>
        <time>2012-01-29T10:33:59Z</time>
      </trkpt>
      <trkpt lat="47.26773" lon="-1.65195">
        <ele>39.738243103027</ele>
        <time>2012-01-29T10:34:05Z</time>
      </trkpt>
      <trkpt lat="47.26771" lon="-1.65208">
        <ele>39.477737426758</ele>
        <time>2012-01-29T10:34:08Z</time>
      </trkpt>
      <trkpt lat="47.26777" lon="-1.65226">
        <ele>37.906631469727</ele>
        <time>2012-01-29T10:34:12Z</time>
      </trkpt>
      <trkpt lat="47.26778" lon="-1.65231">
        <ele>37.519477844238</ele>
        <time>2012-01-29T10:34:13Z</time>
      </trkpt>
      <trkpt lat="47.2677" lon="-1.65252">
        <ele>37.586414337158</ele>
        <time>2012-01-29T10:34:18Z</time>
      </trkpt>
      <trkpt lat="47.26758" lon="-1.65267">
        <ele>38.893817901611</ele>
        <time>2012-01-29T10:34:23Z</time>
      </trkpt>
      <trkpt lat="47.26757" lon="-1.65289">
        <ele>38.769187927246</ele>
        <time>2012-01-29T10:34:28Z</time>
      </trkpt>
      <trkpt lat="47.26756" lon="-1.6531">
        <ele>38.636287689209</ele>
        <time>2012-01-29T10:34:34Z</time>
      </trkpt>
      <trkpt lat="47.26753" lon="-1.65323">
        <ele>38.840438842773</ele>
        <time>2012-01-29T10:34:39Z</time>
      </trkpt>
      <trkpt lat="47.26752" lon="-1.65326">
        <ele>38.849922180176</ele>
        <time>2012-01-29T10:34:41Z</time>
      </trkpt>
      <trkpt lat="47.26748" lon="-1.65334">
        <ele>39.295337677002</ele>
        <time>2012-01-29T10:34:46Z</time>
      </trkpt>
      <trkpt lat="47.26742" lon="-1.65346">
        <ele>40.139633178711</ele>
        <time>2012-01-29T10:34:51Z</time>
      </trkpt>
      <trkpt lat="47.26746" lon="-1.6536">
        <ele>39.985778808594</ele>
        <time>2012-01-29T10:34:55Z</time>
      </trkpt>
      <trkpt lat="47.26755" lon="-1.65379">
        <ele>39.61710357666</ele>
        <time>2012-01-29T10:34:59Z</time>
      </trkpt>
      <trkpt lat="47.26756" lon="-1.65385">
        <ele>39.67102432251</ele>
        <time>2012-01-29T10:35:00Z</time>
      </trkpt>
      <trkpt lat="47.26759" lon="-1.65412">
        <ele>39.88565826416</ele>
        <time>2012-01-29T10:35:04Z</time>
      </trkpt>
      <trkpt lat="47.26757" lon="-1.65436">
        <ele>40.261470794678</ele>
        <time>2012-01-29T10:35:08Z</time>
      </trkpt>
      <trkpt lat="47.26757" lon="-1.6544">
        <ele>40.214866638184</ele>
        <time>2012-01-29T10:35:09Z</time>
      </trkpt>
      <trkpt lat="47.26762" lon="-1.65471">
        <ele>39.565807342529</ele>
        <time>2012-01-29T10:35:16Z</time>
      </trkpt>
      <trkpt lat="47.26763" lon="-1.65496">
        <ele>39.430149078369</ele>
        <time>2012-01-29T10:35:21Z</time>
      </trkpt>
      <trkpt lat="47.26762" lon="-1.65502">
        <ele>39.439743041992</ele>
        <time>2012-01-29T10:35:23Z</time>
      </trkpt>
      <trkpt lat="47.26767" lon="-1.65521">
        <ele>38.180179595947</ele>
        <time>2012-01-29T10:35:27Z</time>
      </trkpt>
      <trkpt lat="47.26778" lon="-1.65527">
        <ele>36.748943328857</ele>
        <time>2012-01-29T10:35:30Z</time>
      </trkpt>
      <trkpt lat="47.26802" lon="-1.65525">
        <ele>34.296649932861</ele>
        <time>2012-01-29T10:35:35Z</time>
      </trkpt>
      <trkpt lat="47.26806" lon="-1.65526">
        <ele>33.843490600586</ele>
        <time>2012-01-29T10:35:36Z</time>
      </trkpt>
      <trkpt lat="47.26829" lon="-1.65532">
        <ele>31.465211868286</ele>
        <time>2012-01-29T10:35:40Z</time>
      </trkpt>
      <trkpt lat="47.26836" lon="-1.65533">
        <ele>31.289489746094</ele>
        <time>2012-01-29T10:35:43Z</time>
      </trkpt>
      <trkpt lat="47.26839" lon="-1.65532">
        <ele>31.660278320312</ele>
        <time>2012-01-29T10:35:45Z</time>
      </trkpt>
      <trkpt lat="47.26852" lon="-1.65545">
        <ele>33.019836425781</ele>
        <time>2012-01-29T10:35:52Z</time>
      </trkpt>
      <trkpt lat="47.26864" lon="-1.65566">
        <ele>34.338195800781</ele>
        <time>2012-01-29T10:35:58Z</time>
      </trkpt>
      <trkpt lat="47.26876" lon="-1.65579">
        <ele>35.656555175781</ele>
        <time>2012-01-29T10:36:04Z</time>
      </trkpt>
      <trkpt lat="47.26885" lon="-1.65591">
        <ele>36.74369430542</ele>
        <time>2012-01-29T10:36:10Z</time>
      </trkpt>
      <trkpt lat="47.26892" lon="-1.65596">
        <ele>37.610897064209</ele>
        <time>2012-01-29T10:36:15Z</time>
      </trkpt>
      <trkpt lat="47.269" lon="-1.65605">
        <ele>38.712982177734</ele>
        <time>2012-01-29T10:36:21Z</time>
      </trkpt>
      <trkpt lat="47.26908" lon="-1.6561">
        <ele>39.647380828857</ele>
        <time>2012-01-29T10:36:25Z</time>
      </trkpt>
      <trkpt lat="47.26915" lon="-1.65617">
        <ele>40.562549591064</ele>
        <time>2012-01-29T10:36:30Z</time>
      </trkpt>
      <trkpt lat="47.26919" lon="-1.65617">
        <ele>40.947456359863</ele>
        <time>2012-01-29T10:36:33Z</time>
      </trkpt>
      <trkpt lat="47.26934" lon="-1.65621">
        <ele>41.981113433838</ele>
        <time>2012-01-29T10:36:41Z</time>
      </trkpt>
      <trkpt lat="47.26937" lon="-1.65622">
        <ele>42.191562652588</ele>
        <time>2012-01-29T10:36:43Z</time>
      </trkpt>
      <trkpt lat="47.26948" lon="-1.65631">
        <ele>42.983917236328</ele>
        <time>2012-01-29T10:36:51Z</time>
      </trkpt>
      <trkpt lat="47.26957" lon="-1.65633">
        <ele>43.538761138916</ele>
        <time>2012-01-29T10:36:56Z</time>
      </trkpt>
      <trkpt lat="47.26965" lon="-1.65637">
        <ele>44.036682128906</ele>
        <time>2012-01-29T10:37:00Z</time>
      </trkpt>
      <trkpt lat="47.26976" lon="-1.6564">
        <ele>44.686359405518</ele>
        <time>2012-01-29T10:37:06Z</time>
      </trkpt>
      <trkpt lat="47.26988" lon="-1.65638">
        <ele>45.33899307251</ele>
        <time>2012-01-29T10:37:14Z</time>
      </trkpt>
      <trkpt lat="47.27003" lon="-1.65642">
        <ele>46.154586791992</ele>
        <time>2012-01-29T10:37:21Z</time>
      </trkpt>
      <trkpt lat="47.27014" lon="-1.65642">
        <ele>46.629196166992</ele>
        <time>2012-01-29T10:37:27Z</time>
      </trkpt>
      <trkpt lat="47.27025" lon="-1.65643">
        <ele>47.123264312744</ele>
        <time>2012-01-29T10:37:33Z</time>
      </trkpt>
      <trkpt lat="47.27029" lon="-1.65645">
        <ele>47.302368164062</ele>
        <time>2012-01-29T10:37:35Z</time>
      </trkpt>
      <trkpt lat="47.27034" lon="-1.65659">
        <ele>47.574962615967</ele>
        <time>2012-01-29T10:37:39Z</time>
      </trkpt>
      <trkpt lat="47.2704" lon="-1.65691">
        <ele>48.077518463135</ele>
        <time>2012-01-29T10:37:43Z</time>
      </trkpt>
      <trkpt lat="47.27043" lon="-1.65721">
        <ele>48.369155883789</ele>
        <time>2012-01-29T10:37:48Z</time>
      </trkpt>
      <trkpt lat="47.27042" lon="-1.65725">
        <ele>48.375675201416</ele>
        <time>2012-01-29T10:37:49Z</time>
      </trkpt>
      <trkpt lat="47.27041" lon="-1.65728">
        <ele>48.350215911865</ele>
        <time>2012-01-29T10:37:50Z</time>
      </trkpt>
      <trkpt lat="47.27029" lon="-1.65738">
        <ele>47.949928283691</ele>
        <time>2012-01-29T10:37:56Z</time>
      </trkpt>
      <trkpt lat="47.27018" lon="-1.6574">
        <ele>47.562587738037</ele>
        <time>2012-01-29T10:38:00Z</time>
      </trkpt>
      <trkpt lat="47.27006" lon="-1.65736">
        <ele>47.046829223633</ele>
        <time>2012-01-29T10:38:05Z</time>
      </trkpt>
      <trkpt lat="47.26994" lon="-1.65731">
        <ele>46.53475189209</ele>
        <time>2012-01-29T10:38:10Z</time>
      </trkpt>
      <trkpt lat="47.26982" lon="-1.65726">
        <ele>45.989864349365</ele>
        <time>2012-01-29T10:38:15Z</time>
      </trkpt>
      <trkpt lat="47.26973" lon="-1.65718">
        <ele>45.50891494751</ele>
        <time>2012-01-29T10:38:19Z</time>
      </trkpt>
      <trkpt lat="47.26967" lon="-1.65716">
        <ele>45.228298187256</ele>
        <time>2012-01-29T10:38:21Z</time>
      </trkpt>
      <trkpt lat="47.26949" lon="-1.65703">
        <ele>44.266235351562</ele>
        <time>2012-01-29T10:38:26Z</time>
      </trkpt>
      <trkpt lat="47.26942" lon="-1.65703">
        <ele>43.980457305908</ele>
        <time>2012-01-29T10:38:28Z</time>
      </trkpt>
      <trkpt lat="47.2694" lon="-1.65712">
        <ele>44.046268463135</ele>
        <time>2012-01-29T10:38:32Z</time>
      </trkpt>
      <trkpt lat="47.26931" lon="-1.65715">
        <ele>43.741291046143</ele>
        <time>2012-01-29T10:38:36Z</time>
      </trkpt>
      <trkpt lat="47.26921" lon="-1.65712">
        <ele>43.262229919434</ele>
        <time>2012-01-29T10:38:39Z</time>
      </trkpt>
      <trkpt lat="47.26903" lon="-1.65705">
        <ele>41.731475830078</ele>
        <time>2012-01-29T10:38:44Z</time>
      </trkpt>
      <trkpt lat="47.26899" lon="-1.65691">
        <ele>40.868633270264</ele>
        <time>2012-01-29T10:38:47Z</time>
      </trkpt>
      <trkpt lat="47.26897" lon="-1.65687">
        <ele>40.525856018066</ele>
        <time>2012-01-29T10:38:50Z</time>
      </trkpt>
      <trkpt lat="47.26897" lon="-1.65687">
        <ele>40.525856018066</ele>
        <time>2012-01-29T10:38:51Z</time>
      </trkpt>
      <trkpt lat="47.26897" lon="-1.65696">
        <ele>40.891448974609</ele>
        <time>2012-01-29T10:39:01Z</time>
      </trkpt>
      <trkpt lat="47.26897" lon="-1.65697">
        <ele>40.883720397949</ele>
        <time>2012-01-29T10:39:03Z</time>
      </trkpt>
      <trkpt lat="47.26896" lon="-1.65699">
        <ele>40.8727684021</ele>
        <time>2012-01-29T10:39:23Z</time>
      </trkpt>
      <trkpt lat="47.26896" lon="-1.65699">
        <ele>40.825119018555</ele>
        <time>2012-01-29T10:39:24Z</time>
      </trkpt>
      <trkpt lat="47.26893" lon="-1.65697">
        <ele>40.503589630127</ele>
        <time>2012-01-29T10:40:13Z</time>
      </trkpt>
      <trkpt lat="47.26889" lon="-1.65691">
        <ele>39.806804656982</ele>
        <time>2012-01-29T10:40:16Z</time>
      </trkpt>
      <trkpt lat="47.26882" lon="-1.6569">
        <ele>39.110504150391</ele>
        <time>2012-01-29T10:40:20Z</time>
      </trkpt>
      <trkpt lat="47.26881" lon="-1.65691">
        <ele>39.083667755127</ele>
        <time>2012-01-29T10:40:23Z</time>
      </trkpt>
      <trkpt lat="47.2688" lon="-1.65695">
        <ele>39.118579864502</ele>
        <time>2012-01-29T10:42:50Z</time>
      </trkpt>
      <trkpt lat="47.26879" lon="-1.65696">
        <ele>39.125427246094</ele>
        <time>2012-01-29T10:42:51Z</time>
      </trkpt>
      <trkpt lat="47.26876" lon="-1.65709">
        <ele>39.621055603027</ele>
        <time>2012-01-29T10:42:58Z</time>
      </trkpt>
      <trkpt lat="47.26876" lon="-1.65718">
        <ele>40.138031005859</ele>
        <time>2012-01-29T10:43:01Z</time>
      </trkpt>
      <trkpt lat="47.2688" lon="-1.65727">
        <ele>41.004810333252</ele>
        <time>2012-01-29T10:43:06Z</time>
      </trkpt>
      <trkpt lat="47.26886" lon="-1.65735">
        <ele>41.759811401367</ele>
        <time>2012-01-29T10:43:12Z</time>
      </trkpt>
      <trkpt lat="47.26887" lon="-1.65737">
        <ele>41.930644989014</ele>
        <time>2012-01-29T10:43:13Z</time>
      </trkpt>
      <trkpt lat="47.26887" lon="-1.65746">
        <ele>42.369312286377</ele>
        <time>2012-01-29T10:43:17Z</time>
      </trkpt>
      <trkpt lat="47.26888" lon="-1.65765">
        <ele>43.604606628418</ele>
        <time>2012-01-29T10:43:25Z</time>
      </trkpt>
      <trkpt lat="47.26892" lon="-1.65786">
        <ele>45.088283538818</ele>
        <time>2012-01-29T10:43:33Z</time>
      </trkpt>
      <trkpt lat="47.26894" lon="-1.65804">
        <ele>46.306301116943</ele>
        <time>2012-01-29T10:43:39Z</time>
      </trkpt>
      <trkpt lat="47.26896" lon="-1.65831">
        <ele>48.11795425415</ele>
        <time>2012-01-29T10:43:46Z</time>
      </trkpt>
      <trkpt lat="47.26897" lon="-1.65842">
        <ele>48.67166519165</ele>
        <time>2012-01-29T10:43:51Z</time>
      </trkpt>
      <trkpt lat="47.26897" lon="-1.65843">
        <ele>48.735210418701</ele>
        <time>2012-01-29T10:43:52Z</time>
      </trkpt>
      <trkpt lat="47.26891" lon="-1.65856">
        <ele>49.069271087646</ele>
        <time>2012-01-29T10:43:57Z</time>
      </trkpt>
      <trkpt lat="47.26888" lon="-1.65859">
        <ele>49.100601196289</ele>
        <time>2012-01-29T10:43:58Z</time>
      </trkpt>
      <trkpt lat="47.26868" lon="-1.65876">
        <ele>49.015281677246</ele>
        <time>2012-01-29T10:44:04Z</time>
      </trkpt>
      <trkpt lat="47.2686" lon="-1.6588">
        <ele>48.825611114502</ele>
        <time>2012-01-29T10:44:06Z</time>
      </trkpt>
      <trkpt lat="47.26838" lon="-1.65886">
        <ele>48.103267669678</ele>
        <time>2012-01-29T10:44:12Z</time>
      </trkpt>
      <trkpt lat="47.26819" lon="-1.65893">
        <ele>48.214424133301</ele>
        <time>2012-01-29T10:44:17Z</time>
      </trkpt>
      <trkpt lat="47.26797" lon="-1.65899">
        <ele>48.833961486816</ele>
        <time>2012-01-29T10:44:23Z</time>
      </trkpt>
      <trkpt lat="47.26774" lon="-1.65901">
        <ele>49.375244140625</ele>
        <time>2012-01-29T10:44:29Z</time>
      </trkpt>
      <trkpt lat="47.26752" lon="-1.65903">
        <ele>50.001346588135</ele>
        <time>2012-01-29T10:44:35Z</time>
      </trkpt>
      <trkpt lat="47.26749" lon="-1.65903">
        <ele>49.947998046875</ele>
        <time>2012-01-29T10:44:36Z</time>
      </trkpt>
      <trkpt lat="47.26715" lon="-1.65896">
        <ele>48.467704772949</ele>
        <time>2012-01-29T10:44:43Z</time>
      </trkpt>
      <trkpt lat="47.26711" lon="-1.65896">
        <ele>48.350612640381</ele>
        <time>2012-01-29T10:44:44Z</time>
      </trkpt>
      <trkpt lat="47.26681" lon="-1.65905">
        <ele>48.927616119385</ele>
        <time>2012-01-29T10:44:50Z</time>
      </trkpt>
      <trkpt lat="47.26676" lon="-1.65908">
        <ele>49.131828308105</ele>
        <time>2012-01-29T10:44:51Z</time>
      </trkpt>
      <trkpt lat="47.26655" lon="-1.65922">
        <ele>48.228717803955</ele>
        <time>2012-01-29T10:44:55Z</time>
      </trkpt>
      <trkpt lat="47.26619" lon="-1.65937">
        <ele>42.831275939941</ele>
        <time>2012-01-29T10:45:00Z</time>
      </trkpt>
      <trkpt lat="47.26586" lon="-1.65946">
        <ele>38.05419921875</ele>
        <time>2012-01-29T10:45:04Z</time>
      </trkpt>
      <trkpt lat="47.26544" lon="-1.65961">
        <ele>35.213039398193</ele>
        <time>2012-01-29T10:45:09Z</time>
      </trkpt>
      <trkpt lat="47.2653" lon="-1.65967">
        <ele>34.243049621582</ele>
        <time>2012-01-29T10:45:12Z</time>
      </trkpt>
      <trkpt lat="47.26529" lon="-1.65965">
        <ele>34.141906738281</ele>
        <time>2012-01-29T10:45:15Z</time>
      </trkpt>
      <trkpt lat="47.26532" lon="-1.65977">
        <ele>34.446033477783</ele>
        <time>2012-01-29T10:45:56Z</time>
      </trkpt>
      <trkpt lat="47.26528" lon="-1.6599">
        <ele>34.257225036621</ele>
        <time>2012-01-29T10:46:03Z</time>
      </trkpt>
      <trkpt lat="47.26527" lon="-1.65999">
        <ele>34.231029510498</ele>
        <time>2012-01-29T10:46:11Z</time>
      </trkpt>
      <trkpt lat="47.26527" lon="-1.66009">
        <ele>34.460884094238</ele>
        <time>2012-01-29T10:46:21Z</time>
      </trkpt>
      <trkpt lat="47.26531" lon="-1.66024">
        <ele>35.143707275391</ele>
        <time>2012-01-29T10:46:26Z</time>
      </trkpt>
      <trkpt lat="47.26536" lon="-1.66036">
        <ele>35.764293670654</ele>
        <time>2012-01-29T10:46:29Z</time>
      </trkpt>
      <trkpt lat="47.26555" lon="-1.66045">
        <ele>37.166088104248</ele>
        <time>2012-01-29T10:46:34Z</time>
      </trkpt>
      <trkpt lat="47.26577" lon="-1.66046">
        <ele>38.569400787354</ele>
        <time>2012-01-29T10:46:39Z</time>
      </trkpt>
      <trkpt lat="47.26598" lon="-1.66055">
        <ele>40.544956207275</ele>
        <time>2012-01-29T10:46:44Z</time>
      </trkpt>
      <trkpt lat="47.26614" lon="-1.66066">
        <ele>42.128807067871</ele>
        <time>2012-01-29T10:46:48Z</time>
      </trkpt>
      <trkpt lat="47.26621" lon="-1.66074">
        <ele>42.799121856689</ele>
        <time>2012-01-29T10:46:50Z</time>
      </trkpt>
      <trkpt lat="47.26635" lon="-1.66095">
        <ele>43.759429931641</ele>
        <time>2012-01-29T10:46:54Z</time>
      </trkpt>
      <trkpt lat="47.2664" lon="-1.66108">
        <ele>43.972282409668</ele>
        <time>2012-01-29T10:46:56Z</time>
      </trkpt>
      <trkpt lat="47.26648" lon="-1.66123">
        <ele>44.396877288818</ele>
        <time>2012-01-29T10:47:00Z</time>
      </trkpt>
      <trkpt lat="47.26649" lon="-1.66135">
        <ele>44.169921875</ele>
        <time>2012-01-29T10:47:02Z</time>
      </trkpt>
      <trkpt lat="47.26654" lon="-1.66152">
        <ele>44.307643890381</ele>
        <time>2012-01-29T10:47:06Z</time>
      </trkpt>
      <trkpt lat="47.2666" lon="-1.66157">
        <ele>44.650451660156</ele>
        <time>2012-01-29T10:47:09Z</time>
      </trkpt>
      <trkpt lat="47.26668" lon="-1.66174">
        <ele>45.040027618408</ele>
        <time>2012-01-29T10:47:16Z</time>
      </trkpt>
      <trkpt lat="47.26669" lon="-1.66192">
        <ele>44.907157897949</ele>
        <time>2012-01-29T10:47:21Z</time>
      </trkpt>
      <trkpt lat="47.26671" lon="-1.66209">
        <ele>44.929946899414</ele>
        <time>2012-01-29T10:47:26Z</time>
      </trkpt>
      <trkpt lat="47.26679" lon="-1.66235">
        <ele>45.440406799316</ele>
        <time>2012-01-29T10:47:33Z</time>
      </trkpt>
      <trkpt lat="47.26683" lon="-1.66252">
        <ele>45.732643127441</ele>
        <time>2012-01-29T10:47:38Z</time>
      </trkpt>
      <trkpt lat="47.26685" lon="-1.66254">
        <ele>45.798301696777</ele>
        <time>2012-01-29T10:47:39Z</time>
      </trkpt>
      <trkpt lat="47.267" lon="-1.66263">
        <ele>47.127052307129</ele>
        <time>2012-01-29T10:47:47Z</time>
      </trkpt>
      <trkpt lat="47.26703" lon="-1.66265">
        <ele>47.459911346436</ele>
        <time>2012-01-29T10:47:49Z</time>
      </trkpt>
      <trkpt lat="47.26714" lon="-1.6627">
        <ele>48.512691497803</ele>
        <time>2012-01-29T10:47:56Z</time>
      </trkpt>
      <trkpt lat="47.26718" lon="-1.6627">
        <ele>48.999164581299</ele>
        <time>2012-01-29T10:47:59Z</time>
      </trkpt>
      <trkpt lat="47.26722" lon="-1.66273">
        <ele>49.463733673096</ele>
        <time>2012-01-29T10:48:03Z</time>
      </trkpt>
      <trkpt lat="47.26725" lon="-1.66276">
        <ele>49.755794525146</ele>
        <time>2012-01-29T10:48:05Z</time>
      </trkpt>
      <trkpt lat="47.26728" lon="-1.6628">
        <ele>50.038471221924</ele>
        <time>2012-01-29T10:48:07Z</time>
      </trkpt>
      <trkpt lat="47.26735" lon="-1.66296">
        <ele>50.52014541626</ele>
        <time>2012-01-29T10:48:13Z</time>
      </trkpt>
      <trkpt lat="47.2674" lon="-1.66309">
        <ele>50.992496490479</ele>
        <time>2012-01-29T10:48:18Z</time>
      </trkpt>
      <trkpt lat="47.26749" lon="-1.66319">
        <ele>51.988143920898</ele>
        <time>2012-01-29T10:48:23Z</time>
      </trkpt>
      <trkpt lat="47.26759" lon="-1.66325">
        <ele>52.30207824707</ele>
        <time>2012-01-29T10:48:29Z</time>
      </trkpt>
      <trkpt lat="47.26768" lon="-1.66331">
        <ele>52.463806152344</ele>
        <time>2012-01-29T10:48:34Z</time>
      </trkpt>
      <trkpt lat="47.26786" lon="-1.6634">
        <ele>52.591648101807</ele>
        <time>2012-01-29T10:48:41Z</time>
      </trkpt>
      <trkpt lat="47.26798" lon="-1.66344">
        <ele>52.745445251465</ele>
        <time>2012-01-29T10:48:47Z</time>
      </trkpt>
      <trkpt lat="47.26809" lon="-1.66349">
        <ele>52.952796936035</ele>
        <time>2012-01-29T10:48:53Z</time>
      </trkpt>
      <trkpt lat="47.26811" lon="-1.6635">
        <ele>52.998332977295</ele>
        <time>2012-01-29T10:48:54Z</time>
      </trkpt>
      <trkpt lat="47.26823" lon="-1.66356">
        <ele>53.322780609131</ele>
        <time>2012-01-29T10:48:59Z</time>
      </trkpt>
      <trkpt lat="47.26828" lon="-1.66356">
        <ele>53.522285461426</ele>
        <time>2012-01-29T10:49:01Z</time>
      </trkpt>
      <trkpt lat="47.26852" lon="-1.66363">
        <ele>54.312545776367</ele>
        <time>2012-01-29T10:49:11Z</time>
      </trkpt>
      <trkpt lat="47.26865" lon="-1.66369">
        <ele>54.693634033203</ele>
        <time>2012-01-29T10:49:17Z</time>
      </trkpt>
      <trkpt lat="47.26877" lon="-1.66387">
        <ele>54.936820983887</ele>
        <time>2012-01-29T10:49:22Z</time>
      </trkpt>
      <trkpt lat="47.26891" lon="-1.66406">
        <ele>55.205615997314</ele>
        <time>2012-01-29T10:49:28Z</time>
      </trkpt>
      <trkpt lat="47.26899" lon="-1.6642">
        <ele>55.293056488037</ele>
        <time>2012-01-29T10:49:34Z</time>
      </trkpt>
      <trkpt lat="47.26901" lon="-1.66438">
        <ele>55.095718383789</ele>
        <time>2012-01-29T10:49:40Z</time>
      </trkpt>
      <trkpt lat="47.26904" lon="-1.66466">
        <ele>54.74227142334</ele>
        <time>2012-01-29T10:49:48Z</time>
      </trkpt>
      <trkpt lat="47.26907" lon="-1.66488">
        <ele>54.612689971924</ele>
        <time>2012-01-29T10:49:54Z</time>
      </trkpt>
      <trkpt lat="47.2692" lon="-1.66508">
        <ele>54.623485565186</ele>
        <time>2012-01-29T10:50:00Z</time>
      </trkpt>
      <trkpt lat="47.26938" lon="-1.6651">
        <ele>54.9660987854</ele>
        <time>2012-01-29T10:50:05Z</time>
      </trkpt>
      <trkpt lat="47.26969" lon="-1.66507">
        <ele>55.861930847168</ele>
        <time>2012-01-29T10:50:13Z</time>
      </trkpt>
      <trkpt lat="47.26999" lon="-1.66505">
        <ele>56.713497161865</ele>
        <time>2012-01-29T10:50:20Z</time>
      </trkpt>
      <trkpt lat="47.27027" lon="-1.66508">
        <ele>57.046310424805</ele>
        <time>2012-01-29T10:50:27Z</time>
      </trkpt>
      <trkpt lat="47.27051" lon="-1.66523">
        <ele>57.031177520752</ele>
        <time>2012-01-29T10:50:33Z</time>
      </trkpt>
      <trkpt lat="47.271" lon="-1.6655">
        <ele>57.906848907471</ele>
        <time>2012-01-29T10:50:44Z</time>
      </trkpt>
      <trkpt lat="47.27134" lon="-1.66575">
        <ele>58.859302520752</ele>
        <time>2012-01-29T10:50:52Z</time>
      </trkpt>
      <trkpt lat="47.27178" lon="-1.66607">
        <ele>60.171875</ele>
        <time>2012-01-29T10:51:02Z</time>
      </trkpt>
      <trkpt lat="47.27208" lon="-1.66621">
        <ele>60.723514556885</ele>
        <time>2012-01-29T10:51:09Z</time>
      </trkpt>
      <trkpt lat="47.27241" lon="-1.66627">
        <ele>61.358093261719</ele>
        <time>2012-01-29T10:51:16Z</time>
      </trkpt>
      <trkpt lat="47.27273" lon="-1.66632">
        <ele>61.539920806885</ele>
        <time>2012-01-29T10:51:23Z</time>
      </trkpt>
      <trkpt lat="47.273" lon="-1.66637">
        <ele>61.47208404541</ele>
        <time>2012-01-29T10:51:30Z</time>
      </trkpt>
      <trkpt lat="47.27312" lon="-1.66649">
        <ele>61.355926513672</ele>
        <time>2012-01-29T10:51:34Z</time>
      </trkpt>
      <trkpt lat="47.27335" lon="-1.66687">
        <ele>61.522491455078</ele>
        <time>2012-01-29T10:51:41Z</time>
      </trkpt>
      <trkpt lat="47.27372" lon="-1.66735">
        <ele>62.807846069336</ele>
        <time>2012-01-29T10:51:50Z</time>
      </trkpt>
      <trkpt lat="47.27397" lon="-1.66771">
        <ele>63.685794830322</ele>
        <time>2012-01-29T10:51:57Z</time>
      </trkpt>
      <trkpt lat="47.27423" lon="-1.66813">
        <ele>65.228637695312</ele>
        <time>2012-01-29T10:52:05Z</time>
      </trkpt>
      <trkpt lat="47.27429" lon="-1.66823">
        <ele>65.530921936035</ele>
        <time>2012-01-29T10:52:07Z</time>
      </trkpt>
      <trkpt lat="47.27446" lon="-1.66856">
        <ele>65.404151916504</ele>
        <time>2012-01-29T10:52:14Z</time>
      </trkpt>
      <trkpt lat="47.27448" lon="-1.66859">
        <ele>65.392822265625</ele>
        <time>2012-01-29T10:52:15Z</time>
      </trkpt>
      <trkpt lat="47.27445" lon="-1.66861">
        <ele>65.342720031738</ele>
        <time>2012-01-29T10:52:19Z</time>
      </trkpt>
      <trkpt lat="47.27443" lon="-1.66856">
        <ele>65.384819030762</ele>
        <time>2012-01-29T10:52:21Z</time>
      </trkpt>
      <trkpt lat="47.27434" lon="-1.66835">
        <ele>65.763542175293</ele>
        <time>2012-01-29T10:52:28Z</time>
      </trkpt>
      <trkpt lat="47.27427" lon="-1.66823">
        <ele>65.525749206543</ele>
        <time>2012-01-29T10:52:34Z</time>
      </trkpt>
      <trkpt lat="47.27427" lon="-1.66819">
        <ele>65.400215148926</ele>
        <time>2012-01-29T10:52:38Z</time>
      </trkpt>
      <trkpt lat="47.2743" lon="-1.6682">
        <ele>65.414947509766</ele>
        <time>2012-01-29T10:52:59Z</time>
      </trkpt>
      <trkpt lat="47.2743" lon="-1.6682">
        <ele>65.408447265625</ele>
        <time>2012-01-29T10:53:01Z</time>
      </trkpt>
      <trkpt lat="47.2743" lon="-1.66818">
        <ele>65.360290527344</ele>
        <time>2012-01-29T10:53:14Z</time>
      </trkpt>
      <trkpt lat="47.27437" lon="-1.6682">
        <ele>65.340217590332</ele>
        <time>2012-01-29T10:55:32Z</time>
      </trkpt>
      <trkpt lat="47.27444" lon="-1.66841">
        <ele>65.575393676758</ele>
        <time>2012-01-29T10:55:41Z</time>
      </trkpt>
      <trkpt lat="47.27456" lon="-1.66867">
        <ele>65.459297180176</ele>
        <time>2012-01-29T10:55:49Z</time>
      </trkpt>
      <trkpt lat="47.27467" lon="-1.66893">
        <ele>65.858840942383</ele>
        <time>2012-01-29T10:55:56Z</time>
      </trkpt>
      <trkpt lat="47.27477" lon="-1.66922">
        <ele>66.624458312988</ele>
        <time>2012-01-29T10:56:03Z</time>
      </trkpt>
      <trkpt lat="47.27486" lon="-1.66947">
        <ele>66.99974822998</ele>
        <time>2012-01-29T10:56:09Z</time>
      </trkpt>
      <trkpt lat="47.27497" lon="-1.6698">
        <ele>67.134010314941</ele>
        <time>2012-01-29T10:56:16Z</time>
      </trkpt>
      <trkpt lat="47.27515" lon="-1.67038">
        <ele>66.066276550293</ele>
        <time>2012-01-29T10:56:28Z</time>
      </trkpt>
      <trkpt lat="47.27523" lon="-1.67065">
        <ele>65.599998474121</ele>
        <time>2012-01-29T10:56:35Z</time>
      </trkpt>
      <trkpt lat="47.27523" lon="-1.67065">
        <ele>65.594825744629</ele>
        <time>2012-01-29T10:56:37Z</time>
      </trkpt>
      <trkpt lat="47.27526" lon="-1.67076">
        <ele>65.433944702148</ele>
        <time>2012-01-29T10:56:42Z</time>
      </trkpt>
      <trkpt lat="47.27531" lon="-1.67096">
        <ele>65.43147277832</ele>
        <time>2012-01-29T10:56:47Z</time>
      </trkpt>
      <trkpt lat="47.27539" lon="-1.67141">
        <ele>65.784828186035</ele>
        <time>2012-01-29T10:56:55Z</time>
      </trkpt>
      <trkpt lat="47.27549" lon="-1.67201">
        <ele>66.500221252441</ele>
        <time>2012-01-29T10:57:05Z</time>
      </trkpt>
      <trkpt lat="47.27559" lon="-1.67255">
        <ele>67.556823730469</ele>
        <time>2012-01-29T10:57:14Z</time>
      </trkpt>
      <trkpt lat="47.27565" lon="-1.67277">
        <ele>67.923034667969</ele>
        <time>2012-01-29T10:57:18Z</time>
      </trkpt>
      <trkpt lat="47.27575" lon="-1.67298">
        <ele>68.518127441406</ele>
        <time>2012-01-29T10:57:22Z</time>
      </trkpt>
      <trkpt lat="47.27602" lon="-1.67337">
        <ele>69.010879516602</ele>
        <time>2012-01-29T10:57:31Z</time>
      </trkpt>
      <trkpt lat="47.27629" lon="-1.67374">
        <ele>69.266357421875</ele>
        <time>2012-01-29T10:57:39Z</time>
      </trkpt>
      <trkpt lat="47.27657" lon="-1.67394">
        <ele>69.640739440918</ele>
        <time>2012-01-29T10:57:46Z</time>
      </trkpt>
      <trkpt lat="47.27686" lon="-1.67405">
        <ele>69.354110717773</ele>
        <time>2012-01-29T10:57:53Z</time>
      </trkpt>
      <trkpt lat="47.27718" lon="-1.67414">
        <ele>68.722709655762</ele>
        <time>2012-01-29T10:57:59Z</time>
      </trkpt>
      <trkpt lat="47.27755" lon="-1.67423">
        <ele>67.766578674316</ele>
        <time>2012-01-29T10:58:06Z</time>
      </trkpt>
      <trkpt lat="47.27794" lon="-1.67428">
        <ele>65.68448638916</ele>
        <time>2012-01-29T10:58:13Z</time>
      </trkpt>
      <trkpt lat="47.2783" lon="-1.67429">
        <ele>63.761249542236</ele>
        <time>2012-01-29T10:58:18Z</time>
      </trkpt>
      <trkpt lat="47.27881" lon="-1.67429">
        <ele>62.312690734863</ele>
        <time>2012-01-29T10:58:24Z</time>
      </trkpt>
      <trkpt lat="47.27935" lon="-1.67437">
        <ele>60.714912414551</ele>
        <time>2012-01-29T10:58:30Z</time>
      </trkpt>
      <trkpt lat="47.27975" lon="-1.67452">
        <ele>59.503730773926</ele>
        <time>2012-01-29T10:58:35Z</time>
      </trkpt>
      <trkpt lat="47.28008" lon="-1.6747">
        <ele>58.979133605957</ele>
        <time>2012-01-29T10:58:40Z</time>
      </trkpt>
      <trkpt lat="47.28014" lon="-1.67489">
        <ele>58.754379272461</ele>
        <time>2012-01-29T10:58:43Z</time>
      </trkpt>
      <trkpt lat="47.28007" lon="-1.67562">
        <ele>58.867408752441</ele>
        <time>2012-01-29T10:58:53Z</time>
      </trkpt>
      <trkpt lat="47.28001" lon="-1.67622">
        <ele>59.012268066406</ele>
        <time>2012-01-29T10:59:00Z</time>
      </trkpt>
      <trkpt lat="47.27994" lon="-1.67705">
        <ele>58.042144775391</ele>
        <time>2012-01-29T10:59:09Z</time>
      </trkpt>
      <trkpt lat="47.27993" lon="-1.67714">
        <ele>57.825584411621</ele>
        <time>2012-01-29T10:59:10Z</time>
      </trkpt>
      <trkpt lat="47.27979" lon="-1.67745">
        <ele>57.113174438477</ele>
        <time>2012-01-29T10:59:14Z</time>
      </trkpt>
      <trkpt lat="47.27965" lon="-1.6775">
        <ele>56.998485565186</ele>
        <time>2012-01-29T10:59:16Z</time>
      </trkpt>
      <trkpt lat="47.27935" lon="-1.67749">
        <ele>57.008682250977</ele>
        <time>2012-01-29T10:59:20Z</time>
      </trkpt>
      <trkpt lat="47.27899" lon="-1.67764">
        <ele>57.829200744629</ele>
        <time>2012-01-29T10:59:25Z</time>
      </trkpt>
      <trkpt lat="47.27878" lon="-1.67775">
        <ele>58.738513946533</ele>
        <time>2012-01-29T10:59:28Z</time>
      </trkpt>
      <trkpt lat="47.2785" lon="-1.67773">
        <ele>60.290580749512</ele>
        <time>2012-01-29T10:59:32Z</time>
      </trkpt>
      <trkpt lat="47.27825" lon="-1.67774">
        <ele>61.09090423584</ele>
        <time>2012-01-29T10:59:36Z</time>
      </trkpt>
      <trkpt lat="47.27795" lon="-1.67795">
        <ele>60.40966796875</ele>
        <time>2012-01-29T10:59:43Z</time>
      </trkpt>
      <trkpt lat="47.27765" lon="-1.67827">
        <ele>59.9123878479</ele>
        <time>2012-01-29T10:59:51Z</time>
      </trkpt>
      <trkpt lat="47.27737" lon="-1.67861">
        <ele>59.496379852295</ele>
        <time>2012-01-29T10:59:58Z</time>
      </trkpt>
      <trkpt lat="47.2771" lon="-1.67899">
        <ele>59.561820983887</ele>
        <time>2012-01-29T11:00:05Z</time>
      </trkpt>
      <trkpt lat="47.27684" lon="-1.67937">
        <ele>60.323436737061</ele>
        <time>2012-01-29T11:00:12Z</time>
      </trkpt>
      <trkpt lat="47.27658" lon="-1.67976">
        <ele>61.196899414062</ele>
        <time>2012-01-29T11:00:19Z</time>
      </trkpt>
      <trkpt lat="47.27636" lon="-1.68005">
        <ele>61.680782318115</ele>
        <time>2012-01-29T11:00:25Z</time>
      </trkpt>
      <trkpt lat="47.27615" lon="-1.68019">
        <ele>61.946319580078</ele>
        <time>2012-01-29T11:00:30Z</time>
      </trkpt>
      <trkpt lat="47.2758" lon="-1.68019">
        <ele>62.522365570068</ele>
        <time>2012-01-29T11:00:37Z</time>
      </trkpt>
      <trkpt lat="47.27565" lon="-1.68019">
        <ele>62.485996246338</ele>
        <time>2012-01-29T11:00:40Z</time>
      </trkpt>
      <trkpt lat="47.27552" lon="-1.68034">
        <ele>62.042156219482</ele>
        <time>2012-01-29T11:00:44Z</time>
      </trkpt>
      <trkpt lat="47.27536" lon="-1.68047">
        <ele>61.548099517822</ele>
        <time>2012-01-29T11:00:48Z</time>
      </trkpt>
      <trkpt lat="47.27523" lon="-1.68067">
        <ele>60.810791015625</ele>
        <time>2012-01-29T11:00:52Z</time>
      </trkpt>
      <trkpt lat="47.27523" lon="-1.68075">
        <ele>60.565162658691</ele>
        <time>2012-01-29T11:00:53Z</time>
      </trkpt>
      <trkpt lat="47.27516" lon="-1.6813">
        <ele>60.302791595459</ele>
        <time>2012-01-29T11:01:00Z</time>
      </trkpt>
      <trkpt lat="47.27506" lon="-1.68187">
        <ele>59.927230834961</ele>
        <time>2012-01-29T11:01:07Z</time>
      </trkpt>
      <trkpt lat="47.27502" lon="-1.68245">
        <ele>59.169162750244</ele>
        <time>2012-01-29T11:01:14Z</time>
      </trkpt>
      <trkpt lat="47.27504" lon="-1.68299">
        <ele>57.945629119873</ele>
        <time>2012-01-29T11:01:21Z</time>
      </trkpt>
      <trkpt lat="47.27504" lon="-1.68331">
        <ele>57.158897399902</ele>
        <time>2012-01-29T11:01:25Z</time>
      </trkpt>
      <trkpt lat="47.27496" lon="-1.68363">
        <ele>55.366779327393</ele>
        <time>2012-01-29T11:01:29Z</time>
      </trkpt>
      <trkpt lat="47.27488" lon="-1.68372">
        <ele>54.05757522583</ele>
        <time>2012-01-29T11:01:31Z</time>
      </trkpt>
      <trkpt lat="47.27477" lon="-1.68387">
        <ele>51.871906280518</ele>
        <time>2012-01-29T11:01:36Z</time>
      </trkpt>
      <trkpt lat="47.27473" lon="-1.68392">
        <ele>51.205730438232</ele>
        <time>2012-01-29T11:01:40Z</time>
      </trkpt>
      <trkpt lat="47.27465" lon="-1.68404">
        <ele>49.542625427246</ele>
        <time>2012-01-29T11:01:45Z</time>
      </trkpt>
      <trkpt lat="47.27463" lon="-1.68408">
        <ele>49.107006072998</ele>
        <time>2012-01-29T11:01:46Z</time>
      </trkpt>
      <trkpt lat="47.27467" lon="-1.68429">
        <ele>48.932106018066</ele>
        <time>2012-01-29T11:01:51Z</time>
      </trkpt>
      <trkpt lat="47.2747" lon="-1.6844">
        <ele>48.953010559082</ele>
        <time>2012-01-29T11:01:53Z</time>
      </trkpt>
      <trkpt lat="47.2747" lon="-1.68454">
        <ele>48.572540283203</ele>
        <time>2012-01-29T11:01:55Z</time>
      </trkpt>
      <trkpt lat="47.2747" lon="-1.68475">
        <ele>47.84782409668</ele>
        <time>2012-01-29T11:01:59Z</time>
      </trkpt>
      <trkpt lat="47.27469" lon="-1.68479">
        <ele>47.690521240234</ele>
        <time>2012-01-29T11:02:02Z</time>
      </trkpt>
      <trkpt lat="47.2747" lon="-1.68487">
        <ele>47.490665435791</ele>
        <time>2012-01-29T11:02:17Z</time>
      </trkpt>
      <trkpt lat="47.27468" lon="-1.68488">
        <ele>47.248775482178</ele>
        <time>2012-01-29T11:02:18Z</time>
      </trkpt>
      <trkpt lat="47.27458" lon="-1.685">
        <ele>45.96142578125</ele>
        <time>2012-01-29T11:02:24Z</time>
      </trkpt>
      <trkpt lat="47.27453" lon="-1.68503">
        <ele>45.759181976318</ele>
        <time>2012-01-29T11:02:29Z</time>
      </trkpt>
      <trkpt lat="47.27453" lon="-1.68504">
        <ele>45.773601531982</ele>
        <time>2012-01-29T11:02:30Z</time>
      </trkpt>
      <trkpt lat="47.27452" lon="-1.68506">
        <ele>45.80696105957</ele>
        <time>2012-01-29T11:02:34Z</time>
      </trkpt>
      <trkpt lat="47.27446" lon="-1.68515">
        <ele>46.029685974121</ele>
        <time>2012-01-29T11:02:41Z</time>
      </trkpt>
      <trkpt lat="47.27444" lon="-1.68517">
        <ele>46.003379821777</ele>
        <time>2012-01-29T11:02:43Z</time>
      </trkpt>
      <trkpt lat="47.27443" lon="-1.68529">
        <ele>46.926338195801</ele>
        <time>2012-01-29T11:02:48Z</time>
      </trkpt>
      <trkpt lat="47.27447" lon="-1.68538">
        <ele>47.884410858154</ele>
        <time>2012-01-29T11:02:53Z</time>
      </trkpt>
      <trkpt lat="47.27451" lon="-1.6854">
        <ele>48.250461578369</ele>
        <time>2012-01-29T11:02:57Z</time>
      </trkpt>
      <trkpt lat="47.27452" lon="-1.68543">
        <ele>48.557849884033</ele>
        <time>2012-01-29T11:03:01Z</time>
      </trkpt>
      <trkpt lat="47.27451" lon="-1.68542">
        <ele>48.424884796143</ele>
        <time>2012-01-29T11:03:05Z</time>
      </trkpt>
      <trkpt lat="47.27453" lon="-1.68546">
        <ele>48.742347717285</ele>
        <time>2012-01-29T11:03:24Z</time>
      </trkpt>
      <trkpt lat="47.27457" lon="-1.68548">
        <ele>49.152000427246</ele>
        <time>2012-01-29T11:03:32Z</time>
      </trkpt>
      <trkpt lat="47.27465" lon="-1.68559">
        <ele>50.115783691406</ele>
        <time>2012-01-29T11:03:37Z</time>
      </trkpt>
      <trkpt lat="47.27473" lon="-1.68574">
        <ele>51.214656829834</ele>
        <time>2012-01-29T11:03:42Z</time>
      </trkpt>
      <trkpt lat="47.27483" lon="-1.68589">
        <ele>52.096591949463</ele>
        <time>2012-01-29T11:03:47Z</time>
      </trkpt>
      <trkpt lat="47.27491" lon="-1.68595">
        <ele>52.549983978271</ele>
        <time>2012-01-29T11:03:50Z</time>
      </trkpt>
      <trkpt lat="47.27507" lon="-1.68605">
        <ele>53.266551971436</ele>
        <time>2012-01-29T11:03:55Z</time>
      </trkpt>
      <trkpt lat="47.27509" lon="-1.68607">
        <ele>53.34676361084</ele>
        <time>2012-01-29T11:03:56Z</time>
      </trkpt>
      <trkpt lat="47.27522" lon="-1.68616">
        <ele>53.604621887207</ele>
        <time>2012-01-29T11:04:02Z</time>
      </trkpt>
      <trkpt lat="47.27533" lon="-1.68628">
        <ele>53.804244995117</ele>
        <time>2012-01-29T11:04:07Z</time>
      </trkpt>
      <trkpt lat="47.27541" lon="-1.68647">
        <ele>54.029487609863</ele>
        <time>2012-01-29T11:04:12Z</time>
      </trkpt>
      <trkpt lat="47.27548" lon="-1.68667">
        <ele>54.105731964111</ele>
        <time>2012-01-29T11:04:17Z</time>
      </trkpt>
      <trkpt lat="47.27552" lon="-1.68683">
        <ele>54.637397766113</ele>
        <time>2012-01-29T11:04:21Z</time>
      </trkpt>
      <trkpt lat="47.27558" lon="-1.68705">
        <ele>55.414405822754</ele>
        <time>2012-01-29T11:04:26Z</time>
      </trkpt>
      <trkpt lat="47.27562" lon="-1.68719">
        <ele>55.963737487793</ele>
        <time>2012-01-29T11:04:32Z</time>
      </trkpt>
      <trkpt lat="47.27562" lon="-1.68719">
        <ele>55.939823150635</ele>
        <time>2012-01-29T11:04:33Z</time>
      </trkpt>
      <trkpt lat="47.27569" lon="-1.68725">
        <ele>55.989250183105</ele>
        <time>2012-01-29T11:04:42Z</time>
      </trkpt>
      <trkpt lat="47.27571" lon="-1.68727">
        <ele>56.058544158936</ele>
        <time>2012-01-29T11:04:44Z</time>
      </trkpt>
      <trkpt lat="47.27583" lon="-1.68731">
        <ele>55.861640930176</ele>
        <time>2012-01-29T11:04:50Z</time>
      </trkpt>
      <trkpt lat="47.27589" lon="-1.68733">
        <ele>55.735321044922</ele>
        <time>2012-01-29T11:04:52Z</time>
      </trkpt>
      <trkpt lat="47.27608" lon="-1.68737">
        <ele>54.938774108887</ele>
        <time>2012-01-29T11:04:57Z</time>
      </trkpt>
      <trkpt lat="47.27612" lon="-1.68737">
        <ele>54.681369781494</ele>
        <time>2012-01-29T11:04:58Z</time>
      </trkpt>
      <trkpt lat="47.27637" lon="-1.68725">
        <ele>53.077186584473</ele>
        <time>2012-01-29T11:05:03Z</time>
      </trkpt>
      <trkpt lat="47.27641" lon="-1.68724">
        <ele>52.832820892334</ele>
        <time>2012-01-29T11:05:04Z</time>
      </trkpt>
      <trkpt lat="47.27658" lon="-1.68718">
        <ele>51.962085723877</ele>
        <time>2012-01-29T11:05:09Z</time>
      </trkpt>
      <trkpt lat="47.27671" lon="-1.68712">
        <ele>51.462310791016</ele>
        <time>2012-01-29T11:05:13Z</time>
      </trkpt>
      <trkpt lat="47.27677" lon="-1.68706">
        <ele>51.209323883057</ele>
        <time>2012-01-29T11:05:17Z</time>
      </trkpt>
      <trkpt lat="47.27681" lon="-1.68706">
        <ele>51.089107513428</ele>
        <time>2012-01-29T11:05:29Z</time>
      </trkpt>
      <trkpt lat="47.27683" lon="-1.68715">
        <ele>51.318504333496</ele>
        <time>2012-01-29T11:05:36Z</time>
      </trkpt>
      <trkpt lat="47.27689" lon="-1.68718">
        <ele>51.310241699219</ele>
        <time>2012-01-29T11:05:41Z</time>
      </trkpt>
      <trkpt lat="47.2769" lon="-1.68716">
        <ele>51.226398468018</ele>
        <time>2012-01-29T11:05:43Z</time>
      </trkpt>
      <trkpt lat="47.27693" lon="-1.68712">
        <ele>51.027126312256</ele>
        <time>2012-01-29T11:05:47Z</time>
      </trkpt>
      <trkpt lat="47.27697" lon="-1.68717">
        <ele>51.188621520996</ele>
        <time>2012-01-29T11:05:55Z</time>
      </trkpt>
      <trkpt lat="47.27698" lon="-1.6872">
        <ele>51.316612243652</ele>
        <time>2012-01-29T11:05:57Z</time>
      </trkpt>
      <trkpt lat="47.27698" lon="-1.68729">
        <ele>51.727352142334</ele>
        <time>2012-01-29T11:06:04Z</time>
      </trkpt>
      <trkpt lat="47.27696" lon="-1.68734">
        <ele>51.982028961182</ele>
        <time>2012-01-29T11:06:09Z</time>
      </trkpt>
      <trkpt lat="47.277" lon="-1.68741">
        <ele>52.357021331787</ele>
        <time>2012-01-29T11:06:15Z</time>
      </trkpt>
      <trkpt lat="47.27706" lon="-1.68744">
        <ele>52.619976043701</ele>
        <time>2012-01-29T11:06:20Z</time>
      </trkpt>
      <trkpt lat="47.27711" lon="-1.68744">
        <ele>52.64966583252</ele>
        <time>2012-01-29T11:06:25Z</time>
      </trkpt>
      <trkpt lat="47.27713" lon="-1.68734">
        <ele>52.085681915283</ele>
        <time>2012-01-29T11:06:30Z</time>
      </trkpt>
      <trkpt lat="47.27703" lon="-1.68727">
        <ele>51.610321044922</ele>
        <time>2012-01-29T11:06:34Z</time>
      </trkpt>
      <trkpt lat="47.27695" lon="-1.6872">
        <ele>51.331161499023</ele>
        <time>2012-01-29T11:06:38Z</time>
      </trkpt>
      <trkpt lat="47.27689" lon="-1.68719">
        <ele>51.362411499023</ele>
        <time>2012-01-29T11:06:43Z</time>
      </trkpt>
      <trkpt lat="47.27687" lon="-1.68723">
        <ele>51.517578125</ele>
        <time>2012-01-29T11:06:44Z</time>
      </trkpt>
      <trkpt lat="47.27684" lon="-1.68716">
        <ele>51.334602355957</ele>
        <time>2012-01-29T11:06:49Z</time>
      </trkpt>
      <trkpt lat="47.27685" lon="-1.68704">
        <ele>50.928268432617</ele>
        <time>2012-01-29T11:06:54Z</time>
      </trkpt>
      <trkpt lat="47.27687" lon="-1.68701">
        <ele>50.732261657715</ele>
        <time>2012-01-29T11:06:58Z</time>
      </trkpt>
      <trkpt lat="47.27684" lon="-1.68713">
        <ele>51.229084014893</ele>
        <time>2012-01-29T11:07:12Z</time>
      </trkpt>
      <trkpt lat="47.27684" lon="-1.68722">
        <ele>51.527187347412</ele>
        <time>2012-01-29T11:07:17Z</time>
      </trkpt>
      <trkpt lat="47.27682" lon="-1.68725">
        <ele>51.613040924072</ele>
        <time>2012-01-29T11:07:19Z</time>
      </trkpt>
      <trkpt lat="47.27678" lon="-1.68729">
        <ele>51.740962982178</ele>
        <time>2012-01-29T11:07:23Z</time>
      </trkpt>
      <trkpt lat="47.27676" lon="-1.68743">
        <ele>52.052219390869</ele>
        <time>2012-01-29T11:07:31Z</time>
      </trkpt>
      <trkpt lat="47.27676" lon="-1.6875">
        <ele>52.215087890625</ele>
        <time>2012-01-29T11:07:35Z</time>
      </trkpt>
      <trkpt lat="47.27676" lon="-1.68761">
        <ele>53.393005371094</ele>
        <time>2012-01-29T11:07:42Z</time>
      </trkpt>
      <trkpt lat="47.27675" lon="-1.68769">
        <ele>54.172637939453</ele>
        <time>2012-01-29T11:07:47Z</time>
      </trkpt>
      <trkpt lat="47.2767" lon="-1.68777">
        <ele>54.962471008301</ele>
        <time>2012-01-29T11:07:54Z</time>
      </trkpt>
      <trkpt lat="47.27665" lon="-1.6878">
        <ele>55.327857971191</ele>
        <time>2012-01-29T11:08:01Z</time>
      </trkpt>
      <trkpt lat="47.27658" lon="-1.68783">
        <ele>55.985061645508</ele>
        <time>2012-01-29T11:08:06Z</time>
      </trkpt>
      <trkpt lat="47.27648" lon="-1.68783">
        <ele>56.439956665039</ele>
        <time>2012-01-29T11:08:13Z</time>
      </trkpt>
      <trkpt lat="47.27646" lon="-1.68784">
        <ele>56.593940734863</ele>
        <time>2012-01-29T11:08:14Z</time>
      </trkpt>
      <trkpt lat="47.27634" lon="-1.68793">
        <ele>58.026363372803</ele>
        <time>2012-01-29T11:08:21Z</time>
      </trkpt>
      <trkpt lat="47.27631" lon="-1.68795">
        <ele>58.341117858887</ele>
        <time>2012-01-29T11:08:23Z</time>
      </trkpt>
      <trkpt lat="47.27619" lon="-1.6879">
        <ele>58.340202331543</ele>
        <time>2012-01-29T11:08:29Z</time>
      </trkpt>
      <trkpt lat="47.27607" lon="-1.68787">
        <ele>58.582920074463</ele>
        <time>2012-01-29T11:08:36Z</time>
      </trkpt>
      <trkpt lat="47.276" lon="-1.68788">
        <ele>58.98051071167</ele>
        <time>2012-01-29T11:08:40Z</time>
      </trkpt>
      <trkpt lat="47.27591" lon="-1.68787">
        <ele>59.304386138916</ele>
        <time>2012-01-29T11:08:46Z</time>
      </trkpt>
      <trkpt lat="47.27578" lon="-1.68782">
        <ele>59.324840545654</ele>
        <time>2012-01-29T11:08:53Z</time>
      </trkpt>
      <trkpt lat="47.27576" lon="-1.68782">
        <ele>59.344184875488</ele>
        <time>2012-01-29T11:08:54Z</time>
      </trkpt>
      <trkpt lat="47.27573" lon="-1.68772">
        <ele>58.70051574707</ele>
        <time>2012-01-29T11:08:59Z</time>
      </trkpt>
      <trkpt lat="47.27573" lon="-1.68769">
        <ele>58.522552490234</ele>
        <time>2012-01-29T11:09:00Z</time>
      </trkpt>
      <trkpt lat="47.27567" lon="-1.6876">
        <ele>58.044273376465</ele>
        <time>2012-01-29T11:09:04Z</time>
      </trkpt>
      <trkpt lat="47.27557" lon="-1.6875">
        <ele>57.652828216553</ele>
        <time>2012-01-29T11:09:09Z</time>
      </trkpt>
      <trkpt lat="47.27553" lon="-1.68739">
        <ele>57.206916809082</ele>
        <time>2012-01-29T11:09:13Z</time>
      </trkpt>
      <trkpt lat="47.27552" lon="-1.68726">
        <ele>56.630233764648</ele>
        <time>2012-01-29T11:09:17Z</time>
      </trkpt>
      <trkpt lat="47.2755" lon="-1.68713">
        <ele>56.113716125488</ele>
        <time>2012-01-29T11:09:22Z</time>
      </trkpt>
      <trkpt lat="47.27551" lon="-1.68708">
        <ele>55.849571228027</ele>
        <time>2012-01-29T11:09:24Z</time>
      </trkpt>
      <trkpt lat="47.27556" lon="-1.687">
        <ele>55.243789672852</ele>
        <time>2012-01-29T11:09:27Z</time>
      </trkpt>
      <trkpt lat="47.27557" lon="-1.68693">
        <ele>54.870407104492</ele>
        <time>2012-01-29T11:09:31Z</time>
      </trkpt>
      <trkpt lat="47.27556" lon="-1.68688">
        <ele>54.675819396973</ele>
        <time>2012-01-29T11:09:38Z</time>
      </trkpt>
      <trkpt lat="47.27556" lon="-1.68687">
        <ele>54.641971588135</ele>
        <time>2012-01-29T11:09:39Z</time>
      </trkpt>
      <trkpt lat="47.27555" lon="-1.68686">
        <ele>54.642776489258</ele>
        <time>2012-01-29T11:09:42Z</time>
      </trkpt>
      <trkpt lat="47.27552" lon="-1.68679">
        <ele>54.434825897217</ele>
        <time>2012-01-29T11:09:46Z</time>
      </trkpt>
      <trkpt lat="47.27552" lon="-1.68676">
        <ele>54.326015472412</ele>
        <time>2012-01-29T11:09:47Z</time>
      </trkpt>
      <trkpt lat="47.27547" lon="-1.68665">
        <ele>54.143455505371</ele>
        <time>2012-01-29T11:09:52Z</time>
      </trkpt>
      <trkpt lat="47.27534" lon="-1.6865">
        <ele>54.454208374023</ele>
        <time>2012-01-29T11:09:59Z</time>
      </trkpt>
      <trkpt lat="47.27523" lon="-1.68654">
        <ele>55.109741210938</ele>
        <time>2012-01-29T11:10:05Z</time>
      </trkpt>
      <trkpt lat="47.27522" lon="-1.68654">
        <ele>55.200885772705</ele>
        <time>2012-01-29T11:10:06Z</time>
      </trkpt>
      <trkpt lat="47.27511" lon="-1.68649">
        <ele>55.438571929932</ele>
        <time>2012-01-29T11:10:13Z</time>
      </trkpt>
      <trkpt lat="47.27509" lon="-1.68646">
        <ele>55.352340698242</ele>
        <time>2012-01-29T11:10:15Z</time>
      </trkpt>
      <trkpt lat="47.27497" lon="-1.6863">
        <ele>54.740005493164</ele>
        <time>2012-01-29T11:10:21Z</time>
      </trkpt>
      <trkpt lat="47.27478" lon="-1.68614">
        <ele>53.411693572998</ele>
        <time>2012-01-29T11:10:29Z</time>
      </trkpt>
      <trkpt lat="47.27467" lon="-1.68603">
        <ele>52.601432800293</ele>
        <time>2012-01-29T11:10:33Z</time>
      </trkpt>
      <trkpt lat="47.27458" lon="-1.68589">
        <ele>51.760715484619</ele>
        <time>2012-01-29T11:10:37Z</time>
      </trkpt>
      <trkpt lat="47.27457" lon="-1.6858">
        <ele>51.22745513916</ele>
        <time>2012-01-29T11:10:40Z</time>
      </trkpt>
      <trkpt lat="47.27456" lon="-1.68574">
        <ele>50.81803894043</ele>
        <time>2012-01-29T11:10:43Z</time>
      </trkpt>
      <trkpt lat="47.27454" lon="-1.68555">
        <ele>49.448463439941</ele>
        <time>2012-01-29T11:10:48Z</time>
      </trkpt>
      <trkpt lat="47.27442" lon="-1.68546">
        <ele>48.206687927246</ele>
        <time>2012-01-29T11:10:52Z</time>
      </trkpt>
      <trkpt lat="47.27439" lon="-1.68546">
        <ele>48.063098907471</ele>
        <time>2012-01-29T11:10:53Z</time>
      </trkpt>
      <trkpt lat="47.27431" lon="-1.6855">
        <ele>48.060321807861</ele>
        <time>2012-01-29T11:10:57Z</time>
      </trkpt>
      <trkpt lat="47.27426" lon="-1.68561">
        <ele>48.86646270752</ele>
        <time>2012-01-29T11:11:02Z</time>
      </trkpt>
      <trkpt lat="47.27422" lon="-1.68566">
        <ele>49.28528213501</ele>
        <time>2012-01-29T11:11:05Z</time>
      </trkpt>
      <trkpt lat="47.27412" lon="-1.6857">
        <ele>49.667442321777</ele>
        <time>2012-01-29T11:11:11Z</time>
      </trkpt>
      <trkpt lat="47.27409" lon="-1.6857">
        <ele>49.690608978271</ele>
        <time>2012-01-29T11:11:15Z</time>
      </trkpt>
      <trkpt lat="47.27404" lon="-1.68573">
        <ele>50.11950302124</ele>
        <time>2012-01-29T11:11:41Z</time>
      </trkpt>
      <trkpt lat="47.274" lon="-1.68576">
        <ele>50.471984863281</ele>
        <time>2012-01-29T11:11:45Z</time>
      </trkpt>
      <trkpt lat="47.27396" lon="-1.68584">
        <ele>51.28377532959</ele>
        <time>2012-01-29T11:11:51Z</time>
      </trkpt>
      <trkpt lat="47.2739" lon="-1.68597">
        <ele>51.832092285156</ele>
        <time>2012-01-29T11:11:58Z</time>
      </trkpt>
      <trkpt lat="47.27379" lon="-1.68611">
        <ele>52.430759429932</ele>
        <time>2012-01-29T11:12:06Z</time>
      </trkpt>
      <trkpt lat="47.2737" lon="-1.68624">
        <ele>53.04216003418</ele>
        <time>2012-01-29T11:12:14Z</time>
      </trkpt>
      <trkpt lat="47.27356" lon="-1.68643">
        <ele>53.881011962891</ele>
        <time>2012-01-29T11:12:24Z</time>
      </trkpt>
      <trkpt lat="47.27342" lon="-1.68663">
        <ele>54.751335144043</ele>
        <time>2012-01-29T11:12:34Z</time>
      </trkpt>
      <trkpt lat="47.27329" lon="-1.68681">
        <ele>55.604698181152</ele>
        <time>2012-01-29T11:12:42Z</time>
      </trkpt>
      <trkpt lat="47.27315" lon="-1.68699">
        <ele>56.784992218018</ele>
        <time>2012-01-29T11:12:50Z</time>
      </trkpt>
      <trkpt lat="47.27297" lon="-1.68709">
        <ele>57.953815460205</ele>
        <time>2012-01-29T11:12:58Z</time>
      </trkpt>
      <trkpt lat="47.27284" lon="-1.68715">
        <ele>58.790946960449</ele>
        <time>2012-01-29T11:13:04Z</time>
      </trkpt>
      <trkpt lat="47.27267" lon="-1.68729">
        <ele>59.893436431885</ele>
        <time>2012-01-29T11:13:12Z</time>
      </trkpt>
      <trkpt lat="47.27248" lon="-1.68746">
        <ele>61.052883148193</ele>
        <time>2012-01-29T11:13:21Z</time>
      </trkpt>
      <trkpt lat="47.27235" lon="-1.68763">
        <ele>62.141082763672</ele>
        <time>2012-01-29T11:13:28Z</time>
      </trkpt>
      <trkpt lat="47.27221" lon="-1.68784">
        <ele>63.464530944824</ele>
        <time>2012-01-29T11:13:36Z</time>
      </trkpt>
      <trkpt lat="47.27208" lon="-1.68804">
        <ele>64.638832092285</ele>
        <time>2012-01-29T11:13:44Z</time>
      </trkpt>
      <trkpt lat="47.27195" lon="-1.68821">
        <ele>65.611793518066</ele>
        <time>2012-01-29T11:13:51Z</time>
      </trkpt>
      <trkpt lat="47.27186" lon="-1.68834">
        <ele>66.312431335449</ele>
        <time>2012-01-29T11:13:56Z</time>
      </trkpt>
      <trkpt lat="47.27177" lon="-1.68855">
        <ele>66.703269958496</ele>
        <time>2012-01-29T11:14:03Z</time>
      </trkpt>
      <trkpt lat="47.27172" lon="-1.68868">
        <ele>66.86930847168</ele>
        <time>2012-01-29T11:14:07Z</time>
      </trkpt>
      <trkpt lat="47.27163" lon="-1.68869">
        <ele>67.017120361328</ele>
        <time>2012-01-29T11:14:11Z</time>
      </trkpt>
      <trkpt lat="47.27141" lon="-1.68846">
        <ele>67.045722961426</ele>
        <time>2012-01-29T11:14:20Z</time>
      </trkpt>
      <trkpt lat="47.27127" lon="-1.68825">
        <ele>66.840209960938</ele>
        <time>2012-01-29T11:14:26Z</time>
      </trkpt>
      <trkpt lat="47.27109" lon="-1.68801">
        <ele>66.494964599609</ele>
        <time>2012-01-29T11:14:33Z</time>
      </trkpt>
      <trkpt lat="47.27087" lon="-1.68777">
        <ele>66.300910949707</ele>
        <time>2012-01-29T11:14:41Z</time>
      </trkpt>
      <trkpt lat="47.27084" lon="-1.68774">
        <ele>66.277770996094</ele>
        <time>2012-01-29T11:14:42Z</time>
      </trkpt>
      <trkpt lat="47.27086" lon="-1.68757">
        <ele>66.049308776855</ele>
        <time>2012-01-29T11:14:46Z</time>
      </trkpt>
      <trkpt lat="47.27102" lon="-1.68735">
        <ele>65.702705383301</ele>
        <time>2012-01-29T11:14:51Z</time>
      </trkpt>
      <trkpt lat="47.27114" lon="-1.68706">
        <ele>65.250205993652</ele>
        <time>2012-01-29T11:14:56Z</time>
      </trkpt>
      <trkpt lat="47.27111" lon="-1.68684">
        <ele>65.129440307617</ele>
        <time>2012-01-29T11:15:00Z</time>
      </trkpt>
      <trkpt lat="47.27109" lon="-1.6868">
        <ele>65.16764831543</ele>
        <time>2012-01-29T11:15:01Z</time>
      </trkpt>
      <trkpt lat="47.27092" lon="-1.68652">
        <ele>65.174385070801</ele>
        <time>2012-01-29T11:15:08Z</time>
      </trkpt>
      <trkpt lat="47.27079" lon="-1.68633">
        <ele>64.780990600586</ele>
        <time>2012-01-29T11:15:13Z</time>
      </trkpt>
      <trkpt lat="47.27077" lon="-1.68628">
        <ele>64.611480712891</ele>
        <time>2012-01-29T11:15:14Z</time>
      </trkpt>
      <trkpt lat="47.2708" lon="-1.68603">
        <ele>63.708106994629</ele>
        <time>2012-01-29T11:15:18Z</time>
      </trkpt>
      <trkpt lat="47.27086" lon="-1.6859">
        <ele>63.145347595215</ele>
        <time>2012-01-29T11:15:20Z</time>
      </trkpt>
      <trkpt lat="47.27098" lon="-1.68563">
        <ele>61.330020904541</ele>
        <time>2012-01-29T11:15:24Z</time>
      </trkpt>
      <trkpt lat="47.27101" lon="-1.68529">
        <ele>59.391242980957</ele>
        <time>2012-01-29T11:15:28Z</time>
      </trkpt>
      <trkpt lat="47.2711" lon="-1.68511">
        <ele>58.256576538086</ele>
        <time>2012-01-29T11:15:31Z</time>
      </trkpt>
      <trkpt lat="47.27115" lon="-1.6851">
        <ele>58.1256980896</ele>
        <time>2012-01-29T11:15:32Z</time>
      </trkpt>
      <trkpt lat="47.27147" lon="-1.68505">
        <ele>57.428031921387</ele>
        <time>2012-01-29T11:15:40Z</time>
      </trkpt>
      <trkpt lat="47.27156" lon="-1.68504">
        <ele>57.271759033203</ele>
        <time>2012-01-29T11:15:42Z</time>
      </trkpt>
      <trkpt lat="47.27181" lon="-1.68489">
        <ele>56.251560211182</ele>
        <time>2012-01-29T11:15:48Z</time>
      </trkpt>
      <trkpt lat="47.27184" lon="-1.68483">
        <ele>56.055438995361</ele>
        <time>2012-01-29T11:15:49Z</time>
      </trkpt>
      <trkpt lat="47.27195" lon="-1.68463">
        <ele>55.397766113281</ele>
        <time>2012-01-29T11:15:52Z</time>
      </trkpt>
      <trkpt lat="47.27217" lon="-1.68432">
        <ele>54.545375823975</ele>
        <time>2012-01-29T11:15:57Z</time>
      </trkpt>
      <trkpt lat="47.27228" lon="-1.68406">
        <ele>53.268711090088</ele>
        <time>2012-01-29T11:16:02Z</time>
      </trkpt>
      <trkpt lat="47.27233" lon="-1.68396">
        <ele>52.221260070801</ele>
        <time>2012-01-29T11:16:04Z</time>
      </trkpt>
      <trkpt lat="47.27242" lon="-1.68379">
        <ele>50.284217834473</ele>
        <time>2012-01-29T11:16:09Z</time>
      </trkpt>
      <trkpt lat="47.27246" lon="-1.68368">
        <ele>48.948417663574</ele>
        <time>2012-01-29T11:16:12Z</time>
      </trkpt>
      <trkpt lat="47.27243" lon="-1.68362">
        <ele>48.423675537109</ele>
        <time>2012-01-29T11:16:15Z</time>
      </trkpt>
      <trkpt lat="47.27242" lon="-1.68361">
        <ele>48.37914276123</ele>
        <time>2012-01-29T11:16:16Z</time>
      </trkpt>
      <trkpt lat="47.27234" lon="-1.68357">
        <ele>48.423854827881</ele>
        <time>2012-01-29T11:16:21Z</time>
      </trkpt>
      <trkpt lat="47.27224" lon="-1.68347">
        <ele>48.105724334717</ele>
        <time>2012-01-29T11:16:26Z</time>
      </trkpt>
      <trkpt lat="47.27214" lon="-1.68326">
        <ele>47.333309173584</ele>
        <time>2012-01-29T11:16:31Z</time>
      </trkpt>
      <trkpt lat="47.272" lon="-1.68306">
        <ele>47.228244781494</ele>
        <time>2012-01-29T11:16:36Z</time>
      </trkpt>
      <trkpt lat="47.27188" lon="-1.68296">
        <ele>47.121635437012</ele>
        <time>2012-01-29T11:16:40Z</time>
      </trkpt>
      <trkpt lat="47.27175" lon="-1.68274">
        <ele>45.917133331299</ele>
        <time>2012-01-29T11:16:45Z</time>
      </trkpt>
      <trkpt lat="47.27161" lon="-1.68252">
        <ele>44.393093109131</ele>
        <time>2012-01-29T11:16:51Z</time>
      </trkpt>
      <trkpt lat="47.27159" lon="-1.68245">
        <ele>44.174633026123</ele>
        <time>2012-01-29T11:16:55Z</time>
      </trkpt>
      <trkpt lat="47.27153" lon="-1.68232">
        <ele>43.837535858154</ele>
        <time>2012-01-29T11:17:00Z</time>
      </trkpt>
      <trkpt lat="47.27142" lon="-1.68204">
        <ele>43.290538787842</ele>
        <time>2012-01-29T11:17:06Z</time>
      </trkpt>
      <trkpt lat="47.27138" lon="-1.68184">
        <ele>42.76335144043</ele>
        <time>2012-01-29T11:17:10Z</time>
      </trkpt>
      <trkpt lat="47.2713" lon="-1.68166">
        <ele>42.633003234863</ele>
        <time>2012-01-29T11:17:14Z</time>
      </trkpt>
      <trkpt lat="47.27116" lon="-1.68156">
        <ele>43.558319091797</ele>
        <time>2012-01-29T11:17:19Z</time>
      </trkpt>
      <trkpt lat="47.27111" lon="-1.6815">
        <ele>43.754875183105</ele>
        <time>2012-01-29T11:17:21Z</time>
      </trkpt>
      <trkpt lat="47.27106" lon="-1.68144">
        <ele>43.887157440186</ele>
        <time>2012-01-29T11:17:23Z</time>
      </trkpt>
      <trkpt lat="47.27092" lon="-1.68145">
        <ele>44.520111083984</ele>
        <time>2012-01-29T11:17:29Z</time>
      </trkpt>
      <trkpt lat="47.27081" lon="-1.6814">
        <ele>45.153831481934</ele>
        <time>2012-01-29T11:17:36Z</time>
      </trkpt>
      <trkpt lat="47.27075" lon="-1.68124">
        <ele>45.52367401123</ele>
        <time>2012-01-29T11:17:44Z</time>
      </trkpt>
      <trkpt lat="47.27069" lon="-1.68114">
        <ele>46.216918945312</ele>
        <time>2012-01-29T11:17:49Z</time>
      </trkpt>
      <trkpt lat="47.27064" lon="-1.68103">
        <ele>46.948097229004</ele>
        <time>2012-01-29T11:17:54Z</time>
      </trkpt>
      <trkpt lat="47.27054" lon="-1.68082">
        <ele>48.268936157227</ele>
        <time>2012-01-29T11:18:01Z</time>
      </trkpt>
      <trkpt lat="47.27044" lon="-1.68055">
        <ele>50.253200531006</ele>
        <time>2012-01-29T11:18:08Z</time>
      </trkpt>
      <trkpt lat="47.27032" lon="-1.68033">
        <ele>52.463485717773</ele>
        <time>2012-01-29T11:18:14Z</time>
      </trkpt>
      <trkpt lat="47.2703" lon="-1.68012">
        <ele>52.713108062744</ele>
        <time>2012-01-29T11:18:20Z</time>
      </trkpt>
      <trkpt lat="47.2703" lon="-1.68002">
        <ele>52.590656280518</ele>
        <time>2012-01-29T11:18:22Z</time>
      </trkpt>
      <trkpt lat="47.2703" lon="-1.67966">
        <ele>53.123481750488</ele>
        <time>2012-01-29T11:18:28Z</time>
      </trkpt>
      <trkpt lat="47.27029" lon="-1.67952">
        <ele>53.501316070557</ele>
        <time>2012-01-29T11:18:31Z</time>
      </trkpt>
      <trkpt lat="47.27036" lon="-1.67918">
        <ele>52.72891998291</ele>
        <time>2012-01-29T11:18:37Z</time>
      </trkpt>
      <trkpt lat="47.27042" lon="-1.67893">
        <ele>51.63920211792</ele>
        <time>2012-01-29T11:18:42Z</time>
      </trkpt>
      <trkpt lat="47.27045" lon="-1.67887">
        <ele>51.267517089844</ele>
        <time>2012-01-29T11:18:43Z</time>
      </trkpt>
      <trkpt lat="47.2706" lon="-1.67849">
        <ele>48.870532989502</ele>
        <time>2012-01-29T11:18:50Z</time>
      </trkpt>
      <trkpt lat="47.27077" lon="-1.67806">
        <ele>47.553333282471</ele>
        <time>2012-01-29T11:18:56Z</time>
      </trkpt>
      <trkpt lat="47.27086" lon="-1.6778">
        <ele>48.097442626953</ele>
        <time>2012-01-29T11:19:00Z</time>
      </trkpt>
      <trkpt lat="47.27098" lon="-1.67744">
        <ele>48.910522460938</ele>
        <time>2012-01-29T11:19:07Z</time>
      </trkpt>
      <trkpt lat="47.27103" lon="-1.67719">
        <ele>48.553466796875</ele>
        <time>2012-01-29T11:19:11Z</time>
      </trkpt>
      <trkpt lat="47.27105" lon="-1.67682">
        <ele>48.471069335938</ele>
        <time>2012-01-29T11:19:16Z</time>
      </trkpt>
      <trkpt lat="47.27101" lon="-1.67652">
        <ele>47.882392883301</ele>
        <time>2012-01-29T11:19:20Z</time>
      </trkpt>
      <trkpt lat="47.27094" lon="-1.67609">
        <ele>45.586864471436</ele>
        <time>2012-01-29T11:19:26Z</time>
      </trkpt>
      <trkpt lat="47.27083" lon="-1.67569">
        <ele>43.537651062012</ele>
        <time>2012-01-29T11:19:32Z</time>
      </trkpt>
      <trkpt lat="47.27081" lon="-1.67564">
        <ele>43.467555999756</ele>
        <time>2012-01-29T11:19:34Z</time>
      </trkpt>
      <trkpt lat="47.27073" lon="-1.67546">
        <ele>43.553100585938</ele>
        <time>2012-01-29T11:19:39Z</time>
      </trkpt>
      <trkpt lat="47.27069" lon="-1.67528">
        <ele>43.193470001221</ele>
        <time>2012-01-29T11:19:43Z</time>
      </trkpt>
      <trkpt lat="47.2707" lon="-1.67498">
        <ele>42.088260650635</ele>
        <time>2012-01-29T11:19:48Z</time>
      </trkpt>
      <trkpt lat="47.27065" lon="-1.67475">
        <ele>42.322528839111</ele>
        <time>2012-01-29T11:19:53Z</time>
      </trkpt>
      <trkpt lat="47.27068" lon="-1.67449">
        <ele>41.927230834961</ele>
        <time>2012-01-29T11:19:58Z</time>
      </trkpt>
      <trkpt lat="47.27068" lon="-1.67442">
        <ele>41.885040283203</ele>
        <time>2012-01-29T11:19:59Z</time>
      </trkpt>
      <trkpt lat="47.27068" lon="-1.67423">
        <ele>41.803371429443</ele>
        <time>2012-01-29T11:20:02Z</time>
      </trkpt>
      <trkpt lat="47.27064" lon="-1.67407">
        <ele>41.548950195312</ele>
        <time>2012-01-29T11:20:05Z</time>
      </trkpt>
      <trkpt lat="47.27065" lon="-1.67377">
        <ele>40.37963104248</ele>
        <time>2012-01-29T11:20:10Z</time>
      </trkpt>
      <trkpt lat="47.27066" lon="-1.67364">
        <ele>39.799095153809</ele>
        <time>2012-01-29T11:20:15Z</time>
      </trkpt>
      <trkpt lat="47.27066" lon="-1.67362">
        <ele>39.737522125244</ele>
        <time>2012-01-29T11:20:17Z</time>
      </trkpt>
      <trkpt lat="47.27066" lon="-1.67357">
        <ele>39.514366149902</ele>
        <time>2012-01-29T11:20:38Z</time>
      </trkpt>
      <trkpt lat="47.27066" lon="-1.67353">
        <ele>39.356864929199</ele>
        <time>2012-01-29T11:20:39Z</time>
      </trkpt>
      <trkpt lat="47.27068" lon="-1.67333">
        <ele>38.542026519775</ele>
        <time>2012-01-29T11:20:44Z</time>
      </trkpt>
      <trkpt lat="47.27077" lon="-1.67317">
        <ele>37.990909576416</ele>
        <time>2012-01-29T11:20:48Z</time>
      </trkpt>
      <trkpt lat="47.27081" lon="-1.67301">
        <ele>37.66968536377</ele>
        <time>2012-01-29T11:20:50Z</time>
      </trkpt>
      <trkpt lat="47.27074" lon="-1.6726">
        <ele>37.163223266602</ele>
        <time>2012-01-29T11:20:55Z</time>
      </trkpt>
      <trkpt lat="47.27051" lon="-1.67237">
        <ele>38.207382202148</ele>
        <time>2012-01-29T11:21:00Z</time>
      </trkpt>
      <trkpt lat="47.27029" lon="-1.67236">
        <ele>38.144744873047</ele>
        <time>2012-01-29T11:21:04Z</time>
      </trkpt>
      <trkpt lat="47.2699" lon="-1.67239">
        <ele>37.942333221436</ele>
        <time>2012-01-29T11:21:12Z</time>
      </trkpt>
      <trkpt lat="47.26965" lon="-1.67248">
        <ele>38.343910217285</ele>
        <time>2012-01-29T11:21:18Z</time>
      </trkpt>
      <trkpt lat="47.26958" lon="-1.67253">
        <ele>38.635673522949</ele>
        <time>2012-01-29T11:21:20Z</time>
      </trkpt>
      <trkpt lat="47.26936" lon="-1.67256">
        <ele>39.549613952637</ele>
        <time>2012-01-29T11:21:25Z</time>
      </trkpt>
      <trkpt lat="47.26912" lon="-1.67259">
        <ele>40.440040588379</ele>
        <time>2012-01-29T11:21:30Z</time>
      </trkpt>
      <trkpt lat="47.26903" lon="-1.67262">
        <ele>40.789730072021</ele>
        <time>2012-01-29T11:21:32Z</time>
      </trkpt>
      <trkpt lat="47.26873" lon="-1.67261">
        <ele>41.49983215332</ele>
        <time>2012-01-29T11:21:38Z</time>
      </trkpt>
      <trkpt lat="47.26868" lon="-1.6726">
        <ele>41.587051391602</ele>
        <time>2012-01-29T11:21:39Z</time>
      </trkpt>
      <trkpt lat="47.2686" lon="-1.67257">
        <ele>41.673240661621</ele>
        <time>2012-01-29T11:21:41Z</time>
      </trkpt>
      <trkpt lat="47.26848" lon="-1.67236">
        <ele>41.245193481445</ele>
        <time>2012-01-29T11:21:45Z</time>
      </trkpt>
      <trkpt lat="47.26847" lon="-1.67227">
        <ele>41.032772064209</ele>
        <time>2012-01-29T11:21:46Z</time>
      </trkpt>
      <trkpt lat="47.26844" lon="-1.6721">
        <ele>40.56404876709</ele>
        <time>2012-01-29T11:21:48Z</time>
      </trkpt>
      <trkpt lat="47.26839" lon="-1.67173">
        <ele>39.352561950684</ele>
        <time>2012-01-29T11:21:53Z</time>
      </trkpt>
      <trkpt lat="47.26838" lon="-1.67151">
        <ele>39.64359664917</ele>
        <time>2012-01-29T11:21:56Z</time>
      </trkpt>
      <trkpt lat="47.26824" lon="-1.67142">
        <ele>40.673446655273</ele>
        <time>2012-01-29T11:22:01Z</time>
      </trkpt>
      <trkpt lat="47.26794" lon="-1.67137">
        <ele>43.162456512451</ele>
        <time>2012-01-29T11:22:09Z</time>
      </trkpt>
      <trkpt lat="47.26773" lon="-1.67135">
        <ele>44.796169281006</ele>
        <time>2012-01-29T11:22:16Z</time>
      </trkpt>
      <trkpt lat="47.2677" lon="-1.67137">
        <ele>45.064315795898</ele>
        <time>2012-01-29T11:22:18Z</time>
      </trkpt>
      <trkpt lat="47.26767" lon="-1.67132">
        <ele>45.265899658203</ele>
        <time>2012-01-29T11:22:22Z</time>
      </trkpt>
      <trkpt lat="47.26771" lon="-1.67131">
        <ele>44.975032806396</ele>
        <time>2012-01-29T11:22:24Z</time>
      </trkpt>
      <trkpt lat="47.26794" lon="-1.67124">
        <ele>43.3349609375</ele>
        <time>2012-01-29T11:22:33Z</time>
      </trkpt>
      <trkpt lat="47.26811" lon="-1.67118">
        <ele>42.281021118164</ele>
        <time>2012-01-29T11:22:39Z</time>
      </trkpt>
      <trkpt lat="47.2683" lon="-1.67113">
        <ele>41.158241271973</ele>
        <time>2012-01-29T11:22:45Z</time>
      </trkpt>
      <trkpt lat="47.26838" lon="-1.6711">
        <ele>41.072235107422</ele>
        <time>2012-01-29T11:22:48Z</time>
      </trkpt>
      <trkpt lat="47.26853" lon="-1.67124">
        <ele>40.764060974121</ele>
        <time>2012-01-29T11:22:53Z</time>
      </trkpt>
      <trkpt lat="47.26859" lon="-1.67133">
        <ele>40.563468933105</ele>
        <time>2012-01-29T11:22:55Z</time>
      </trkpt>
      <trkpt lat="47.26876" lon="-1.67141">
        <ele>40.636852264404</ele>
        <time>2012-01-29T11:22:59Z</time>
      </trkpt>
      <trkpt lat="47.26895" lon="-1.67134">
        <ele>41.06494140625</ele>
        <time>2012-01-29T11:23:03Z</time>
      </trkpt>
      <trkpt lat="47.26902" lon="-1.67111">
        <ele>41.546546936035</ele>
        <time>2012-01-29T11:23:06Z</time>
      </trkpt>
      <trkpt lat="47.26905" lon="-1.67094">
        <ele>41.832160949707</ele>
        <time>2012-01-29T11:23:08Z</time>
      </trkpt>
      <trkpt lat="47.26914" lon="-1.67022">
        <ele>40.667377471924</ele>
        <time>2012-01-29T11:23:16Z</time>
      </trkpt>
      <trkpt lat="47.26925" lon="-1.66973">
        <ele>41.438827514648</ele>
        <time>2012-01-29T11:23:22Z</time>
      </trkpt>
      <trkpt lat="47.26931" lon="-1.66942">
        <ele>42.694622039795</ele>
        <time>2012-01-29T11:23:26Z</time>
      </trkpt>
      <trkpt lat="47.26932" lon="-1.66895">
        <ele>43.008018493652</ele>
        <time>2012-01-29T11:23:32Z</time>
      </trkpt>
      <trkpt lat="47.26921" lon="-1.66855">
        <ele>41.632011413574</ele>
        <time>2012-01-29T11:23:37Z</time>
      </trkpt>
      <trkpt lat="47.26915" lon="-1.66838">
        <ele>41.042575836182</ele>
        <time>2012-01-29T11:23:39Z</time>
      </trkpt>
      <trkpt lat="47.26905" lon="-1.66816">
        <ele>41.727184295654</ele>
        <time>2012-01-29T11:23:42Z</time>
      </trkpt>
      <trkpt lat="47.26879" lon="-1.66787">
        <ele>41.837413787842</ele>
        <time>2012-01-29T11:23:48Z</time>
      </trkpt>
      <trkpt lat="47.2687" lon="-1.66778">
        <ele>41.511775970459</ele>
        <time>2012-01-29T11:23:50Z</time>
      </trkpt>
      <trkpt lat="47.26854" lon="-1.66764">
        <ele>40.674869537354</ele>
        <time>2012-01-29T11:23:53Z</time>
      </trkpt>
      <trkpt lat="47.26844" lon="-1.66757">
        <ele>39.947639465332</ele>
        <time>2012-01-29T11:23:55Z</time>
      </trkpt>
      <trkpt lat="47.26831" lon="-1.66744">
        <ele>39.648147583008</ele>
        <time>2012-01-29T11:23:58Z</time>
      </trkpt>
      <trkpt lat="47.26813" lon="-1.66721">
        <ele>42.345115661621</ele>
        <time>2012-01-29T11:24:02Z</time>
      </trkpt>
      <trkpt lat="47.26801" lon="-1.66702">
        <ele>43.726020812988</ele>
        <time>2012-01-29T11:24:05Z</time>
      </trkpt>
      <trkpt lat="47.26791" lon="-1.6668">
        <ele>44.587089538574</ele>
        <time>2012-01-29T11:24:08Z</time>
      </trkpt>
      <trkpt lat="47.26773" lon="-1.66639">
        <ele>44.041683197021</ele>
        <time>2012-01-29T11:24:14Z</time>
      </trkpt>
      <trkpt lat="47.26759" lon="-1.66606">
        <ele>42.436912536621</ele>
        <time>2012-01-29T11:24:20Z</time>
      </trkpt>
      <trkpt lat="47.26757" lon="-1.66597">
        <ele>42.018013000488</ele>
        <time>2012-01-29T11:24:22Z</time>
      </trkpt>
      <trkpt lat="47.26758" lon="-1.66586">
        <ele>41.753662109375</ele>
        <time>2012-01-29T11:24:26Z</time>
      </trkpt>
      <trkpt lat="47.26761" lon="-1.66575">
        <ele>42.059562683105</ele>
        <time>2012-01-29T11:24:30Z</time>
      </trkpt>
      <trkpt lat="47.26759" lon="-1.66565">
        <ele>41.993320465088</ele>
        <time>2012-01-29T11:24:35Z</time>
      </trkpt>
      <trkpt lat="47.26758" lon="-1.66555">
        <ele>42.060478210449</ele>
        <time>2012-01-29T11:24:39Z</time>
      </trkpt>
      <trkpt lat="47.26756" lon="-1.66539">
        <ele>42.105422973633</ele>
        <time>2012-01-29T11:24:45Z</time>
      </trkpt>
      <trkpt lat="47.26756" lon="-1.66536">
        <ele>42.137573242188</ele>
        <time>2012-01-29T11:24:46Z</time>
      </trkpt>
      <trkpt lat="47.26752" lon="-1.66511">
        <ele>42.095211029053</ele>
        <time>2012-01-29T11:24:54Z</time>
      </trkpt>
      <trkpt lat="47.26753" lon="-1.66501">
        <ele>42.301826477051</ele>
        <time>2012-01-29T11:24:59Z</time>
      </trkpt>
      <trkpt lat="47.26753" lon="-1.66482">
        <ele>43.142574310303</ele>
        <time>2012-01-29T11:25:08Z</time>
      </trkpt>
      <trkpt lat="47.26754" lon="-1.6648">
        <ele>43.351268768311</ele>
        <time>2012-01-29T11:25:09Z</time>
      </trkpt>
      <trkpt lat="47.26749" lon="-1.66461">
        <ele>43.834663391113</ele>
        <time>2012-01-29T11:25:16Z</time>
      </trkpt>
      <trkpt lat="47.26748" lon="-1.66459">
        <ele>43.889129638672</ele>
        <time>2012-01-29T11:25:17Z</time>
      </trkpt>
      <trkpt lat="47.26741" lon="-1.66441">
        <ele>44.251529693604</ele>
        <time>2012-01-29T11:25:24Z</time>
      </trkpt>
      <trkpt lat="47.26731" lon="-1.66419">
        <ele>44.177543640137</ele>
        <time>2012-01-29T11:25:29Z</time>
      </trkpt>
      <trkpt lat="47.26742" lon="-1.66414">
        <ele>45.448719024658</ele>
        <time>2012-01-29T11:25:34Z</time>
      </trkpt>
      <trkpt lat="47.26751" lon="-1.66408">
        <ele>46.653221130371</ele>
        <time>2012-01-29T11:25:40Z</time>
      </trkpt>
      <trkpt lat="47.26756" lon="-1.66405">
        <ele>47.293006896973</ele>
        <time>2012-01-29T11:25:44Z</time>
      </trkpt>
      <trkpt lat="47.26764" lon="-1.66399">
        <ele>48.263805389404</ele>
        <time>2012-01-29T11:25:51Z</time>
      </trkpt>
      <trkpt lat="47.26765" lon="-1.66398">
        <ele>48.427730560303</ele>
        <time>2012-01-29T11:25:52Z</time>
      </trkpt>
      <trkpt lat="47.26775" lon="-1.66397">
        <ele>49.117721557617</ele>
        <time>2012-01-29T11:25:59Z</time>
      </trkpt>
      <trkpt lat="47.26784" lon="-1.66391">
        <ele>50.09391784668</ele>
        <time>2012-01-29T11:26:07Z</time>
      </trkpt>
      <trkpt lat="47.26796" lon="-1.66382">
        <ele>51.236003875732</ele>
        <time>2012-01-29T11:26:16Z</time>
      </trkpt>
      <trkpt lat="47.26804" lon="-1.66376">
        <ele>51.85697555542</ele>
        <time>2012-01-29T11:26:22Z</time>
      </trkpt>
      <trkpt lat="47.26805" lon="-1.66374">
        <ele>51.984954833984</ele>
        <time>2012-01-29T11:26:26Z</time>
      </trkpt>
      <trkpt lat="47.26811" lon="-1.66363">
        <ele>52.635177612305</ele>
        <time>2012-01-29T11:26:41Z</time>
      </trkpt>
      <trkpt lat="47.26811" lon="-1.66362">
        <ele>52.65747833252</ele>
        <time>2012-01-29T11:26:43Z</time>
      </trkpt>
      <trkpt lat="47.26809" lon="-1.66358">
        <ele>52.709728240967</ele>
        <time>2012-01-29T11:26:55Z</time>
      </trkpt>
      <trkpt lat="47.268" lon="-1.66352">
        <ele>52.533905029297</ele>
        <time>2012-01-29T11:27:01Z</time>
      </trkpt>
      <trkpt lat="47.26789" lon="-1.66346">
        <ele>52.373802185059</ele>
        <time>2012-01-29T11:27:05Z</time>
      </trkpt>
      <trkpt lat="47.26759" lon="-1.66331">
        <ele>52.244735717773</ele>
        <time>2012-01-29T11:27:12Z</time>
      </trkpt>
      <trkpt lat="47.26755" lon="-1.66329">
        <ele>52.164474487305</ele>
        <time>2012-01-29T11:27:13Z</time>
      </trkpt>
      <trkpt lat="47.26739" lon="-1.66315">
        <ele>50.737800598145</ele>
        <time>2012-01-29T11:27:17Z</time>
      </trkpt>
      <trkpt lat="47.2673" lon="-1.66287">
        <ele>50.06575012207</ele>
        <time>2012-01-29T11:27:21Z</time>
      </trkpt>
      <trkpt lat="47.26711" lon="-1.66268">
        <ele>48.250259399414</ele>
        <time>2012-01-29T11:27:25Z</time>
      </trkpt>
      <trkpt lat="47.26699" lon="-1.66264">
        <ele>46.972751617432</ele>
        <time>2012-01-29T11:27:27Z</time>
      </trkpt>
      <trkpt lat="47.26688" lon="-1.6626">
        <ele>45.935817718506</ele>
        <time>2012-01-29T11:27:29Z</time>
      </trkpt>
      <trkpt lat="47.26667" lon="-1.66221">
        <ele>44.38703918457</ele>
        <time>2012-01-29T11:27:34Z</time>
      </trkpt>
      <trkpt lat="47.26664" lon="-1.66203">
        <ele>44.366859436035</ele>
        <time>2012-01-29T11:27:36Z</time>
      </trkpt>
      <trkpt lat="47.26662" lon="-1.66186">
        <ele>44.440116882324</ele>
        <time>2012-01-29T11:27:38Z</time>
      </trkpt>
      <trkpt lat="47.26659" lon="-1.6617">
        <ele>44.291732788086</ele>
        <time>2012-01-29T11:27:40Z</time>
      </trkpt>
      <trkpt lat="47.26643" lon="-1.66155">
        <ele>43.214698791504</ele>
        <time>2012-01-29T11:27:44Z</time>
      </trkpt>
      <trkpt lat="47.26639" lon="-1.66145">
        <ele>43.11701965332</ele>
        <time>2012-01-29T11:27:47Z</time>
      </trkpt>
      <trkpt lat="47.2664" lon="-1.6614">
        <ele>43.315654754639</ele>
        <time>2012-01-29T11:27:48Z</time>
      </trkpt>
      <trkpt lat="47.26642" lon="-1.6613">
        <ele>43.70206451416</ele>
        <time>2012-01-29T11:27:50Z</time>
      </trkpt>
      <trkpt lat="47.26634" lon="-1.66114">
        <ele>43.295822143555</ele>
        <time>2012-01-29T11:27:54Z</time>
      </trkpt>
      <trkpt lat="47.26633" lon="-1.66109">
        <ele>43.242130279541</ele>
        <time>2012-01-29T11:27:55Z</time>
      </trkpt>
      <trkpt lat="47.26616" lon="-1.6608">
        <ele>42.178077697754</ele>
        <time>2012-01-29T11:28:02Z</time>
      </trkpt>
      <trkpt lat="47.2661" lon="-1.66071">
        <ele>41.677433013916</ele>
        <time>2012-01-29T11:28:04Z</time>
      </trkpt>
      <trkpt lat="47.26584" lon="-1.66055">
        <ele>39.057235717773</ele>
        <time>2012-01-29T11:28:11Z</time>
      </trkpt>
      <trkpt lat="47.26572" lon="-1.6605">
        <ele>38.317459106445</ele>
        <time>2012-01-29T11:28:14Z</time>
      </trkpt>
      <trkpt lat="47.26548" lon="-1.66048">
        <ele>36.793601989746</ele>
        <time>2012-01-29T11:28:20Z</time>
      </trkpt>
      <trkpt lat="47.26527" lon="-1.66034">
        <ele>35.092281341553</ele>
        <time>2012-01-29T11:28:26Z</time>
      </trkpt>
      <trkpt lat="47.26521" lon="-1.66013">
        <ele>34.096912384033</ele>
        <time>2012-01-29T11:28:30Z</time>
      </trkpt>
      <trkpt lat="47.26521" lon="-1.65973">
        <ele>33.567321777344</ele>
        <time>2012-01-29T11:28:36Z</time>
      </trkpt>
      <trkpt lat="47.26514" lon="-1.65948">
        <ele>32.942127227783</ele>
        <time>2012-01-29T11:28:40Z</time>
      </trkpt>
      <trkpt lat="47.26511" lon="-1.65942">
        <ele>32.741008758545</ele>
        <time>2012-01-29T11:28:41Z</time>
      </trkpt>
      <trkpt lat="47.26506" lon="-1.65916">
        <ele>32.387866973877</ele>
        <time>2012-01-29T11:28:45Z</time>
      </trkpt>
      <trkpt lat="47.26509" lon="-1.65903">
        <ele>33.224452972412</ele>
        <time>2012-01-29T11:28:47Z</time>
      </trkpt>
      <trkpt lat="47.26517" lon="-1.65865">
        <ele>35.373226165771</ele>
        <time>2012-01-29T11:28:54Z</time>
      </trkpt>
      <trkpt lat="47.26516" lon="-1.65845">
        <ele>36.287185668945</ele>
        <time>2012-01-29T11:28:58Z</time>
      </trkpt>
      <trkpt lat="47.26511" lon="-1.65818">
        <ele>37.978858947754</ele>
        <time>2012-01-29T11:29:04Z</time>
      </trkpt>
      <trkpt lat="47.26506" lon="-1.65799">
        <ele>39.404220581055</ele>
        <time>2012-01-29T11:29:09Z</time>
      </trkpt>
      <trkpt lat="47.265" lon="-1.65787">
        <ele>40.296573638916</ele>
        <time>2012-01-29T11:29:14Z</time>
      </trkpt>
      <trkpt lat="47.265" lon="-1.65786">
        <ele>40.483135223389</ele>
        <time>2012-01-29T11:29:15Z</time>
      </trkpt>
      <trkpt lat="47.26498" lon="-1.65775">
        <ele>41.424415588379</ele>
        <time>2012-01-29T11:29:19Z</time>
      </trkpt>
      <trkpt lat="47.26501" lon="-1.65752">
        <ele>42.802829742432</ele>
        <time>2012-01-29T11:29:28Z</time>
      </trkpt>
      <trkpt lat="47.26508" lon="-1.65746">
        <ele>43.101184844971</ele>
        <time>2012-01-29T11:29:34Z</time>
      </trkpt>
      <trkpt lat="47.26511" lon="-1.65745">
        <ele>43.101726531982</ele>
        <time>2012-01-29T11:29:36Z</time>
      </trkpt>
      <trkpt lat="47.26516" lon="-1.65742">
        <ele>43.138454437256</ele>
        <time>2012-01-29T11:29:40Z</time>
      </trkpt>
      <trkpt lat="47.26519" lon="-1.65742">
        <ele>43.115016937256</ele>
        <time>2012-01-29T11:29:42Z</time>
      </trkpt>
      <trkpt lat="47.26527" lon="-1.65739">
        <ele>43.111885070801</ele>
        <time>2012-01-29T11:29:47Z</time>
      </trkpt>
      <trkpt lat="47.26544" lon="-1.65735">
        <ele>43.016265869141</ele>
        <time>2012-01-29T11:29:56Z</time>
      </trkpt>
      <trkpt lat="47.26559" lon="-1.65729">
        <ele>42.936298370361</ele>
        <time>2012-01-29T11:30:03Z</time>
      </trkpt>
      <trkpt lat="47.26571" lon="-1.65724">
        <ele>42.877536773682</ele>
        <time>2012-01-29T11:30:10Z</time>
      </trkpt>
      <trkpt lat="47.26575" lon="-1.65724">
        <ele>42.802757263184</ele>
        <time>2012-01-29T11:30:12Z</time>
      </trkpt>
      <trkpt lat="47.26578" lon="-1.65709">
        <ele>43.110198974609</ele>
        <time>2012-01-29T11:30:18Z</time>
      </trkpt>
      <trkpt lat="47.26581" lon="-1.6567">
        <ele>44.011013031006</ele>
        <time>2012-01-29T11:30:29Z</time>
      </trkpt>
      <trkpt lat="47.26582" lon="-1.65629">
        <ele>45.412719726562</ele>
        <time>2012-01-29T11:30:38Z</time>
      </trkpt>
      <trkpt lat="47.26578" lon="-1.65593">
        <ele>46.846092224121</ele>
        <time>2012-01-29T11:30:45Z</time>
      </trkpt>
      <trkpt lat="47.26571" lon="-1.65565">
        <ele>47.899272918701</ele>
        <time>2012-01-29T11:30:51Z</time>
      </trkpt>
      <trkpt lat="47.26568" lon="-1.65531">
        <ele>48.811939239502</ele>
        <time>2012-01-29T11:30:59Z</time>
      </trkpt>
      <trkpt lat="47.26578" lon="-1.65522">
        <ele>48.656585693359</ele>
        <time>2012-01-29T11:31:03Z</time>
      </trkpt>
      <trkpt lat="47.26603" lon="-1.6552">
        <ele>48.105438232422</ele>
        <time>2012-01-29T11:31:10Z</time>
      </trkpt>
      <trkpt lat="47.26624" lon="-1.65525">
        <ele>47.578014373779</ele>
        <time>2012-01-29T11:31:16Z</time>
      </trkpt>
      <trkpt lat="47.26634" lon="-1.6551">
        <ele>47.625690460205</ele>
        <time>2012-01-29T11:31:20Z</time>
      </trkpt>
      <trkpt lat="47.26653" lon="-1.65461">
        <ele>47.544673919678</ele>
        <time>2012-01-29T11:31:30Z</time>
      </trkpt>
      <trkpt lat="47.26662" lon="-1.65433">
        <ele>47.243110656738</ele>
        <time>2012-01-29T11:31:36Z</time>
      </trkpt>
      <trkpt lat="47.26664" lon="-1.65424">
        <ele>47.131725311279</ele>
        <time>2012-01-29T11:31:38Z</time>
      </trkpt>
      <trkpt lat="47.26674" lon="-1.65409">
        <ele>46.517627716064</ele>
        <time>2012-01-29T11:31:43Z</time>
      </trkpt>
      <trkpt lat="47.26678" lon="-1.65408">
        <ele>46.23840713501</ele>
        <time>2012-01-29T11:31:46Z</time>
      </trkpt>
      <trkpt lat="47.26695" lon="-1.6542">
        <ele>44.969360351562</ele>
        <time>2012-01-29T11:31:53Z</time>
      </trkpt>
      <trkpt lat="47.2671" lon="-1.65429">
        <ele>43.898193359375</ele>
        <time>2012-01-29T11:31:58Z</time>
      </trkpt>
      <trkpt lat="47.26727" lon="-1.65443">
        <ele>42.689697265625</ele>
        <time>2012-01-29T11:32:03Z</time>
      </trkpt>
      <trkpt lat="47.26734" lon="-1.65461">
        <ele>42.167846679688</ele>
        <time>2012-01-29T11:32:07Z</time>
      </trkpt>
      <trkpt lat="47.26734" lon="-1.65464">
        <ele>42.140380859375</ele>
        <time>2012-01-29T11:32:08Z</time>
      </trkpt>
      <trkpt lat="47.26736" lon="-1.65483">
        <ele>42.030517578125</ele>
        <time>2012-01-29T11:32:14Z</time>
      </trkpt>
      <trkpt lat="47.26741" lon="-1.65508">
        <ele>41.275291442871</ele>
        <time>2012-01-29T11:32:19Z</time>
      </trkpt>
      <trkpt lat="47.26743" lon="-1.65514">
        <ele>40.891361236572</ele>
        <time>2012-01-29T11:32:20Z</time>
      </trkpt>
      <trkpt lat="47.26754" lon="-1.65527">
        <ele>39.277267456055</ele>
        <time>2012-01-29T11:32:24Z</time>
      </trkpt>
      <trkpt lat="47.26768" lon="-1.65531">
        <ele>37.673015594482</ele>
        <time>2012-01-29T11:32:28Z</time>
      </trkpt>
      <trkpt lat="47.26781" lon="-1.65532">
        <ele>36.265308380127</ele>
        <time>2012-01-29T11:32:32Z</time>
      </trkpt>
      <trkpt lat="47.26786" lon="-1.65533">
        <ele>35.781471252441</ele>
        <time>2012-01-29T11:32:34Z</time>
      </trkpt>
      <trkpt lat="47.26784" lon="-1.65539">
        <ele>35.824619293213</ele>
        <time>2012-01-29T11:32:39Z</time>
      </trkpt>
      <trkpt lat="47.26778" lon="-1.65543">
        <ele>36.266738891602</ele>
        <time>2012-01-29T11:32:42Z</time>
      </trkpt>
      <trkpt lat="47.26773" lon="-1.65536">
        <ele>36.974876403809</ele>
        <time>2012-01-29T11:32:46Z</time>
      </trkpt>
      <trkpt lat="47.26772" lon="-1.65528">
        <ele>37.421451568604</ele>
        <time>2012-01-29T11:32:49Z</time>
      </trkpt>
      <trkpt lat="47.26768" lon="-1.65502">
        <ele>38.736183166504</ele>
        <time>2012-01-29T11:32:55Z</time>
      </trkpt>
      <trkpt lat="47.26768" lon="-1.65482">
        <ele>38.872714996338</ele>
        <time>2012-01-29T11:33:00Z</time>
      </trkpt>
      <trkpt lat="47.26769" lon="-1.65479">
        <ele>38.792602539062</ele>
        <time>2012-01-29T11:33:01Z</time>
      </trkpt>
      <trkpt lat="47.26764" lon="-1.65456">
        <ele>39.375511169434</ele>
        <time>2012-01-29T11:33:07Z</time>
      </trkpt>
      <trkpt lat="47.2676" lon="-1.65437">
        <ele>39.922355651855</ele>
        <time>2012-01-29T11:33:12Z</time>
      </trkpt>
      <trkpt lat="47.26759" lon="-1.6543">
        <ele>39.974056243896</ele>
        <time>2012-01-29T11:33:14Z</time>
      </trkpt>
      <trkpt lat="47.26756" lon="-1.65401">
        <ele>40.001907348633</ele>
        <time>2012-01-29T11:33:21Z</time>
      </trkpt>
      <trkpt lat="47.26751" lon="-1.65382">
        <ele>40.072914123535</ele>
        <time>2012-01-29T11:33:26Z</time>
      </trkpt>
      <trkpt lat="47.26741" lon="-1.65359">
        <ele>40.487598419189</ele>
        <time>2012-01-29T11:33:32Z</time>
      </trkpt>
      <trkpt lat="47.2674" lon="-1.65352">
        <ele>40.498966217041</ele>
        <time>2012-01-29T11:33:34Z</time>
      </trkpt>
      <trkpt lat="47.26747" lon="-1.6534">
        <ele>39.470649719238</ele>
        <time>2012-01-29T11:33:39Z</time>
      </trkpt>
      <trkpt lat="47.26749" lon="-1.65335">
        <ele>39.097381591797</ele>
        <time>2012-01-29T11:33:41Z</time>
      </trkpt>
      <trkpt lat="47.26754" lon="-1.65328">
        <ele>38.675212860107</ele>
        <time>2012-01-29T11:33:43Z</time>
      </trkpt>
      <trkpt lat="47.26757" lon="-1.65293">
        <ele>38.72331237793</ele>
        <time>2012-01-29T11:33:47Z</time>
      </trkpt>
      <trkpt lat="47.26771" lon="-1.65259">
        <ele>37.45259475708</ele>
        <time>2012-01-29T11:33:51Z</time>
      </trkpt>
      <trkpt lat="47.26777" lon="-1.65245">
        <ele>37.047546386719</ele>
        <time>2012-01-29T11:33:53Z</time>
      </trkpt>
      <trkpt lat="47.26774" lon="-1.6523">
        <ele>38.0559425354</ele>
        <time>2012-01-29T11:33:55Z</time>
      </trkpt>
      <trkpt lat="47.2677" lon="-1.65201">
        <ele>39.896697998047</ele>
        <time>2012-01-29T11:34:00Z</time>
      </trkpt>
      <trkpt lat="47.26772" lon="-1.65199">
        <ele>39.736957550049</ele>
        <time>2012-01-29T11:34:01Z</time>
      </trkpt>
      <trkpt lat="47.2679" lon="-1.65173">
        <ele>38.051265716553</ele>
        <time>2012-01-29T11:34:07Z</time>
      </trkpt>
      <trkpt lat="47.26802" lon="-1.65149">
        <ele>37.239307403564</ele>
        <time>2012-01-29T11:34:12Z</time>
      </trkpt>
      <trkpt lat="47.26814" lon="-1.65136">
        <ele>36.083057403564</ele>
        <time>2012-01-29T11:34:16Z</time>
      </trkpt>
      <trkpt lat="47.26822" lon="-1.6512">
        <ele>35.564804077148</ele>
        <time>2012-01-29T11:34:19Z</time>
      </trkpt>
      <trkpt lat="47.26831" lon="-1.65095">
        <ele>35.622913360596</ele>
        <time>2012-01-29T11:34:23Z</time>
      </trkpt>
      <trkpt lat="47.26842" lon="-1.65056">
        <ele>37.476131439209</ele>
        <time>2012-01-29T11:34:29Z</time>
      </trkpt>
      <trkpt lat="47.26851" lon="-1.65014">
        <ele>39.088737487793</ele>
        <time>2012-01-29T11:34:36Z</time>
      </trkpt>
      <trkpt lat="47.26857" lon="-1.64998">
        <ele>39.477607727051</ele>
        <time>2012-01-29T11:34:39Z</time>
      </trkpt>
      <trkpt lat="47.26866" lon="-1.64974">
        <ele>39.974895477295</ele>
        <time>2012-01-29T11:34:44Z</time>
      </trkpt>
      <trkpt lat="47.26878" lon="-1.64937">
        <ele>40.33935546875</ele>
        <time>2012-01-29T11:34:51Z</time>
      </trkpt>
      <trkpt lat="47.26878" lon="-1.64923">
        <ele>40.646739959717</ele>
        <time>2012-01-29T11:34:54Z</time>
      </trkpt>
      <trkpt lat="47.26881" lon="-1.64912">
        <ele>40.711025238037</ele>
        <time>2012-01-29T11:34:58Z</time>
      </trkpt>
      <trkpt lat="47.26889" lon="-1.64898">
        <ele>40.47142791748</ele>
        <time>2012-01-29T11:35:03Z</time>
      </trkpt>
      <trkpt lat="47.26897" lon="-1.64886">
        <ele>40.00789642334</ele>
        <time>2012-01-29T11:35:06Z</time>
      </trkpt>
      <trkpt lat="47.26901" lon="-1.64862">
        <ele>40.17261505127</ele>
        <time>2012-01-29T11:35:10Z</time>
      </trkpt>
      <trkpt lat="47.26905" lon="-1.64853">
        <ele>39.922367095947</ele>
        <time>2012-01-29T11:35:12Z</time>
      </trkpt>
      <trkpt lat="47.26924" lon="-1.64828">
        <ele>39.06262588501</ele>
        <time>2012-01-29T11:35:18Z</time>
      </trkpt>
      <trkpt lat="47.26942" lon="-1.6482">
        <ele>38.373401641846</ele>
        <time>2012-01-29T11:35:22Z</time>
      </trkpt>
      <trkpt lat="47.26962" lon="-1.64811">
        <ele>37.078765869141</ele>
        <time>2012-01-29T11:35:27Z</time>
      </trkpt>
      <trkpt lat="47.26964" lon="-1.64804">
        <ele>37.011962890625</ele>
        <time>2012-01-29T11:35:28Z</time>
      </trkpt>
      <trkpt lat="47.26965" lon="-1.6479">
        <ele>36.960880279541</ele>
        <time>2012-01-29T11:35:30Z</time>
      </trkpt>
      <trkpt lat="47.2697" lon="-1.64751">
        <ele>36.484550476074</ele>
        <time>2012-01-29T11:35:36Z</time>
      </trkpt>
      <trkpt lat="47.26971" lon="-1.64747">
        <ele>36.263046264648</ele>
        <time>2012-01-29T11:35:37Z</time>
      </trkpt>
      <trkpt lat="47.26981" lon="-1.64721">
        <ele>35.654293060303</ele>
        <time>2012-01-29T11:35:43Z</time>
      </trkpt>
      <trkpt lat="47.26983" lon="-1.64699">
        <ele>36.072036743164</ele>
        <time>2012-01-29T11:35:49Z</time>
      </trkpt>
      <trkpt lat="47.26984" lon="-1.64689">
        <ele>36.461597442627</ele>
        <time>2012-01-29T11:35:54Z</time>
      </trkpt>
      <trkpt lat="47.26984" lon="-1.64674">
        <ele>37.051063537598</ele>
        <time>2012-01-29T11:36:04Z</time>
      </trkpt>
      <trkpt lat="47.26983" lon="-1.64656">
        <ele>37.540744781494</ele>
        <time>2012-01-29T11:36:09Z</time>
      </trkpt>
      <trkpt lat="47.26983" lon="-1.64625">
        <ele>37.968894958496</ele>
        <time>2012-01-29T11:36:15Z</time>
      </trkpt>
      <trkpt lat="47.26981" lon="-1.6459">
        <ele>38.718482971191</ele>
        <time>2012-01-29T11:36:21Z</time>
      </trkpt>
      <trkpt lat="47.2698" lon="-1.64584">
        <ele>38.902732849121</ele>
        <time>2012-01-29T11:36:22Z</time>
      </trkpt>
      <trkpt lat="47.26973" lon="-1.64556">
        <ele>40.50248336792</ele>
        <time>2012-01-29T11:36:27Z</time>
      </trkpt>
      <trkpt lat="47.2697" lon="-1.64546">
        <ele>41.067222595215</ele>
        <time>2012-01-29T11:36:29Z</time>
      </trkpt>
      <trkpt lat="47.26976" lon="-1.64525">
        <ele>40.652687072754</ele>
        <time>2012-01-29T11:36:34Z</time>
      </trkpt>
      <trkpt lat="47.26981" lon="-1.64515">
        <ele>40.152111053467</ele>
        <time>2012-01-29T11:36:36Z</time>
      </trkpt>
      <trkpt lat="47.26989" lon="-1.64496">
        <ele>39.566387176514</ele>
        <time>2012-01-29T11:36:39Z</time>
      </trkpt>
      <trkpt lat="47.26998" lon="-1.64469">
        <ele>39.009834289551</ele>
        <time>2012-01-29T11:36:43Z</time>
      </trkpt>
      <trkpt lat="47.27019" lon="-1.6444">
        <ele>39.954490661621</ele>
        <time>2012-01-29T11:36:49Z</time>
      </trkpt>
      <trkpt lat="47.27017" lon="-1.64408">
        <ele>40.362964630127</ele>
        <time>2012-01-29T11:36:54Z</time>
      </trkpt>
      <trkpt lat="47.27019" lon="-1.64393">
        <ele>40.371837615967</ele>
        <time>2012-01-29T11:36:56Z</time>
      </trkpt>
      <trkpt lat="47.27024" lon="-1.64368">
        <ele>40.499778747559</ele>
        <time>2012-01-29T11:37:00Z</time>
      </trkpt>
      <trkpt lat="47.27019" lon="-1.64347">
        <ele>40.176448822021</ele>
        <time>2012-01-29T11:37:05Z</time>
      </trkpt>
      <trkpt lat="47.27019" lon="-1.64327">
        <ele>40.133121490479</ele>
        <time>2012-01-29T11:37:09Z</time>
      </trkpt>
      <trkpt lat="47.27017" lon="-1.64297">
        <ele>40.014053344727</ele>
        <time>2012-01-29T11:37:15Z</time>
      </trkpt>
      <trkpt lat="47.27014" lon="-1.64271">
        <ele>39.7373046875</ele>
        <time>2012-01-29T11:37:20Z</time>
      </trkpt>
      <trkpt lat="47.27006" lon="-1.64245">
        <ele>38.920692443848</ele>
        <time>2012-01-29T11:37:25Z</time>
      </trkpt>
      <trkpt lat="47.26997" lon="-1.64214">
        <ele>39.427227020264</ele>
        <time>2012-01-29T11:37:31Z</time>
      </trkpt>
      <trkpt lat="47.26986" lon="-1.642">
        <ele>40.179481506348</ele>
        <time>2012-01-29T11:37:35Z</time>
      </trkpt>
      <trkpt lat="47.26979" lon="-1.64195">
        <ele>40.416900634766</ele>
        <time>2012-01-29T11:37:37Z</time>
      </trkpt>
      <trkpt lat="47.26964" lon="-1.64173">
        <ele>40.600631713867</ele>
        <time>2012-01-29T11:37:42Z</time>
      </trkpt>
      <trkpt lat="47.26951" lon="-1.64155">
        <ele>40.805076599121</ele>
        <time>2012-01-29T11:37:46Z</time>
      </trkpt>
      <trkpt lat="47.26946" lon="-1.64145">
        <ele>40.992359161377</ele>
        <time>2012-01-29T11:37:48Z</time>
      </trkpt>
      <trkpt lat="47.26935" lon="-1.64126">
        <ele>40.956184387207</ele>
        <time>2012-01-29T11:37:52Z</time>
      </trkpt>
      <trkpt lat="47.26918" lon="-1.641">
        <ele>40.108512878418</ele>
        <time>2012-01-29T11:37:58Z</time>
      </trkpt>
      <trkpt lat="47.26918" lon="-1.64084">
        <ele>40.093681335449</ele>
        <time>2012-01-29T11:38:02Z</time>
      </trkpt>
      <trkpt lat="47.26913" lon="-1.64076">
        <ele>40.010055541992</ele>
        <time>2012-01-29T11:38:05Z</time>
      </trkpt>
      <trkpt lat="47.26912" lon="-1.64068">
        <ele>39.918514251709</ele>
        <time>2012-01-29T11:38:07Z</time>
      </trkpt>
      <trkpt lat="47.26913" lon="-1.64043">
        <ele>39.494998931885</ele>
        <time>2012-01-29T11:38:13Z</time>
      </trkpt>
      <trkpt lat="47.26914" lon="-1.6404">
        <ele>39.465560913086</ele>
        <time>2012-01-29T11:38:14Z</time>
      </trkpt>
      <trkpt lat="47.26922" lon="-1.64033">
        <ele>40.084030151367</ele>
        <time>2012-01-29T11:38:20Z</time>
      </trkpt>
      <trkpt lat="47.26921" lon="-1.64032">
        <ele>40.01912689209</ele>
        <time>2012-01-29T11:38:21Z</time>
      </trkpt>
      <trkpt lat="47.26921" lon="-1.64031">
        <ele>40.009754180908</ele>
        <time>2012-01-29T11:38:23Z</time>
      </trkpt>
      <trkpt lat="47.2692" lon="-1.64023">
        <ele>39.7272605896</ele>
        <time>2012-01-29T11:39:29Z</time>
      </trkpt>
      <trkpt lat="47.2692" lon="-1.64021">
        <ele>39.709899902344</ele>
        <time>2012-01-29T11:39:30Z</time>
      </trkpt>
      <trkpt lat="47.26922" lon="-1.64016">
        <ele>39.939273834229</ele>
        <time>2012-01-29T11:39:34Z</time>
      </trkpt>
      <trkpt lat="47.26922" lon="-1.64005">
        <ele>39.850719451904</ele>
        <time>2012-01-29T11:39:40Z</time>
      </trkpt>
      <trkpt lat="47.26917" lon="-1.63998">
        <ele>39.184185028076</ele>
        <time>2012-01-29T11:39:47Z</time>
      </trkpt>
      <trkpt lat="47.26914" lon="-1.63991">
        <ele>39.314407348633</ele>
        <time>2012-01-29T11:39:51Z</time>
      </trkpt>
      <trkpt lat="47.26905" lon="-1.63976">
        <ele>39.637130737305</ele>
        <time>2012-01-29T11:40:00Z</time>
      </trkpt>
      <trkpt lat="47.26904" lon="-1.63964">
        <ele>40.102333068848</ele>
        <time>2012-01-29T11:40:07Z</time>
      </trkpt>
      <trkpt lat="47.26903" lon="-1.63961">
        <ele>40.228790283203</ele>
        <time>2012-01-29T11:40:10Z</time>
      </trkpt>
      <trkpt lat="47.26903" lon="-1.63957">
        <ele>40.405601501465</ele>
        <time>2012-01-29T11:40:14Z</time>
      </trkpt>
      <trkpt lat="47.26901" lon="-1.63949">
        <ele>40.688842773438</ele>
        <time>2012-01-29T11:40:22Z</time>
      </trkpt>
      <trkpt lat="47.26899" lon="-1.63944">
        <ele>40.819877624512</ele>
        <time>2012-01-29T11:40:30Z</time>
      </trkpt>
      <trkpt lat="47.26898" lon="-1.63936">
        <ele>41.186088562012</ele>
        <time>2012-01-29T11:40:38Z</time>
      </trkpt>
      <trkpt lat="47.26898" lon="-1.6393">
        <ele>41.487640380859</ele>
        <time>2012-01-29T11:40:44Z</time>
      </trkpt>
      <trkpt lat="47.26897" lon="-1.63925">
        <ele>41.635269165039</ele>
        <time>2012-01-29T11:40:49Z</time>
      </trkpt>
      <trkpt lat="47.26895" lon="-1.63922">
        <ele>41.715377807617</ele>
        <time>2012-01-29T11:40:55Z</time>
      </trkpt>
      <trkpt lat="47.2689" lon="-1.63915">
        <ele>41.803802490234</ele>
        <time>2012-01-29T11:41:02Z</time>
      </trkpt>
      <trkpt lat="47.26888" lon="-1.63906">
        <ele>42.346660614014</ele>
        <time>2012-01-29T11:41:10Z</time>
      </trkpt>
      <trkpt lat="47.26892" lon="-1.63894">
        <ele>43.302719116211</ele>
        <time>2012-01-29T11:41:18Z</time>
      </trkpt>
      <trkpt lat="47.26896" lon="-1.6389">
        <ele>43.731239318848</ele>
        <time>2012-01-29T11:41:23Z</time>
      </trkpt>
      <trkpt lat="47.26898" lon="-1.63884">
        <ele>44.162605285645</ele>
        <time>2012-01-29T11:41:29Z</time>
      </trkpt>
      <trkpt lat="47.26897" lon="-1.63883">
        <ele>44.158824920654</ele>
        <time>2012-01-29T11:41:30Z</time>
      </trkpt>
      <trkpt lat="47.26896" lon="-1.63871">
        <ele>44.87085723877</ele>
        <time>2012-01-29T11:41:39Z</time>
      </trkpt>
      <trkpt lat="47.26896" lon="-1.63871">
        <ele>44.879810333252</ele>
        <time>2012-01-29T11:41:40Z</time>
      </trkpt>
      <trkpt lat="47.26894" lon="-1.63865">
        <ele>45.139766693115</ele>
        <time>2012-01-29T11:42:18Z</time>
      </trkpt>
      <trkpt lat="47.26894" lon="-1.63864">
        <ele>45.22204208374</ele>
        <time>2012-01-29T11:42:19Z</time>
      </trkpt>
      <trkpt lat="47.26893" lon="-1.63862">
        <ele>45.314651489258</ele>
        <time>2012-01-29T11:42:20Z</time>
      </trkpt>
      <trkpt lat="47.26886" lon="-1.63856">
        <ele>45.437705993652</ele>
        <time>2012-01-29T11:42:26Z</time>
      </trkpt>
      <trkpt lat="47.26882" lon="-1.63852">
        <ele>45.517505645752</ele>
        <time>2012-01-29T11:42:29Z</time>
      </trkpt>
      <trkpt lat="47.26873" lon="-1.63831">
        <ele>46.362903594971</ele>
        <time>2012-01-29T11:42:36Z</time>
      </trkpt>
      <trkpt lat="47.26871" lon="-1.63828">
        <ele>46.261726379395</ele>
        <time>2012-01-29T11:42:37Z</time>
      </trkpt>
      <trkpt lat="47.26862" lon="-1.63828">
        <ele>45.925964355469</ele>
        <time>2012-01-29T11:42:41Z</time>
      </trkpt>
      <trkpt lat="47.26839" lon="-1.63853">
        <ele>43.785266876221</ele>
        <time>2012-01-29T11:42:49Z</time>
      </trkpt>
      <trkpt lat="47.26825" lon="-1.63875">
        <ele>41.28409576416</ele>
        <time>2012-01-29T11:42:54Z</time>
      </trkpt>
      <trkpt lat="47.2681" lon="-1.63888">
        <ele>39.301551818848</ele>
        <time>2012-01-29T11:42:58Z</time>
      </trkpt>
      <trkpt lat="47.26806" lon="-1.63891">
        <ele>38.81759262085</ele>
        <time>2012-01-29T11:42:59Z</time>
      </trkpt>
      <trkpt lat="47.26776" lon="-1.63932">
        <ele>34.94958114624</ele>
        <time>2012-01-29T11:43:04Z</time>
      </trkpt>
      <trkpt lat="47.2677" lon="-1.6394">
        <ele>34.278125762939</ele>
        <time>2012-01-29T11:43:05Z</time>
      </trkpt>
      <trkpt lat="47.26745" lon="-1.63948">
        <ele>33.162677764893</ele>
        <time>2012-01-29T11:43:09Z</time>
      </trkpt>
      <trkpt lat="47.26732" lon="-1.6393">
        <ele>34.479797363281</ele>
        <time>2012-01-29T11:43:12Z</time>
      </trkpt>
      <trkpt lat="47.2672" lon="-1.63904">
        <ele>35.525867462158</ele>
        <time>2012-01-29T11:43:16Z</time>
      </trkpt>
      <trkpt lat="47.26717" lon="-1.63894">
        <ele>35.695308685303</ele>
        <time>2012-01-29T11:43:19Z</time>
      </trkpt>
      <trkpt lat="47.26719" lon="-1.63889">
        <ele>35.672134399414</ele>
        <time>2012-01-29T11:43:21Z</time>
      </trkpt>
      <trkpt lat="47.26719" lon="-1.63887">
        <ele>35.664047241211</ele>
        <time>2012-01-29T11:43:22Z</time>
      </trkpt>
      <trkpt lat="47.26724" lon="-1.63859">
        <ele>35.772262573242</ele>
        <time>2012-01-29T11:43:29Z</time>
      </trkpt>
      <trkpt lat="47.26726" lon="-1.63834">
        <ele>35.996299743652</ele>
        <time>2012-01-29T11:43:34Z</time>
      </trkpt>
      <trkpt lat="47.26727" lon="-1.63794">
        <ele>34.584175109863</ele>
        <time>2012-01-29T11:43:41Z</time>
      </trkpt>
      <trkpt lat="47.2673" lon="-1.63758">
        <ele>33.273544311523</ele>
        <time>2012-01-29T11:43:47Z</time>
      </trkpt>
      <trkpt lat="47.26737" lon="-1.63727">
        <ele>31.745517730713</ele>
        <time>2012-01-29T11:43:53Z</time>
      </trkpt>
      <trkpt lat="47.26745" lon="-1.63701">
        <ele>30.143705368042</ele>
        <time>2012-01-29T11:43:59Z</time>
      </trkpt>
      <trkpt lat="47.26759" lon="-1.63669">
        <ele>29.26947593689</ele>
        <time>2012-01-29T11:44:06Z</time>
      </trkpt>
      <trkpt lat="47.26764" lon="-1.63649">
        <ele>28.919231414795</ele>
        <time>2012-01-29T11:44:11Z</time>
      </trkpt>
      <trkpt lat="47.26768" lon="-1.63629">
        <ele>28.637496948242</ele>
        <time>2012-01-29T11:44:16Z</time>
      </trkpt>
      <trkpt lat="47.26782" lon="-1.63614">
        <ele>29.486642837524</ele>
        <time>2012-01-29T11:44:21Z</time>
      </trkpt>
      <trkpt lat="47.268" lon="-1.63601">
        <ele>30.667827606201</ele>
        <time>2012-01-29T11:44:27Z</time>
      </trkpt>
      <trkpt lat="47.26812" lon="-1.63581">
        <ele>30.83247756958</ele>
        <time>2012-01-29T11:44:33Z</time>
      </trkpt>
      <trkpt lat="47.2682" lon="-1.63563">
        <ele>30.74942779541</ele>
        <time>2012-01-29T11:44:38Z</time>
      </trkpt>
      <trkpt lat="47.26833" lon="-1.63532">
        <ele>29.898384094238</ele>
        <time>2012-01-29T11:44:44Z</time>
      </trkpt>
      <trkpt lat="47.26846" lon="-1.63499">
        <ele>28.828880310059</ele>
        <time>2012-01-29T11:44:51Z</time>
      </trkpt>
      <trkpt lat="47.26853" lon="-1.6348">
        <ele>28.521615982056</ele>
        <time>2012-01-29T11:44:55Z</time>
      </trkpt>
      <trkpt lat="47.26856" lon="-1.63469">
        <ele>28.240724563599</ele>
        <time>2012-01-29T11:44:57Z</time>
      </trkpt>
      <trkpt lat="47.26869" lon="-1.63424">
        <ele>27.335876464844</ele>
        <time>2012-01-29T11:45:04Z</time>
      </trkpt>
      <trkpt lat="47.26871" lon="-1.63417">
        <ele>27.155553817749</ele>
        <time>2012-01-29T11:45:05Z</time>
      </trkpt>
      <trkpt lat="47.2687" lon="-1.6338">
        <ele>26.287197113037</ele>
        <time>2012-01-29T11:45:10Z</time>
      </trkpt>
      <trkpt lat="47.26876" lon="-1.63359">
        <ele>26.169445037842</ele>
        <time>2012-01-29T11:45:13Z</time>
      </trkpt>
      <trkpt lat="47.26885" lon="-1.63363">
        <ele>26.875827789307</ele>
        <time>2012-01-29T11:45:15Z</time>
      </trkpt>
      <trkpt lat="47.26909" lon="-1.63377">
        <ele>29.044218063354</ele>
        <time>2012-01-29T11:45:22Z</time>
      </trkpt>
      <trkpt lat="47.26924" lon="-1.63384">
        <ele>30.762073516846</ele>
        <time>2012-01-29T11:45:27Z</time>
      </trkpt>
      <trkpt lat="47.26932" lon="-1.63375">
        <ele>31.446815490723</ele>
        <time>2012-01-29T11:45:31Z</time>
      </trkpt>
      <trkpt lat="47.26937" lon="-1.63353">
        <ele>31.38726234436</ele>
        <time>2012-01-29T11:45:36Z</time>
      </trkpt>
      <trkpt lat="47.26944" lon="-1.63328">
        <ele>31.609262466431</ele>
        <time>2012-01-29T11:45:42Z</time>
      </trkpt>
      <trkpt lat="47.26952" lon="-1.63306">
        <ele>32.474479675293</ele>
        <time>2012-01-29T11:45:48Z</time>
      </trkpt>
      <trkpt lat="47.26955" lon="-1.63278">
        <ele>32.761322021484</ele>
        <time>2012-01-29T11:45:55Z</time>
      </trkpt>
      <trkpt lat="47.26938" lon="-1.63262">
        <ele>30.157415390015</ele>
        <time>2012-01-29T11:46:00Z</time>
      </trkpt>
      <trkpt lat="47.2691" lon="-1.63247">
        <ele>26.816940307617</ele>
        <time>2012-01-29T11:46:04Z</time>
      </trkpt>
      <trkpt lat="47.26892" lon="-1.63232">
        <ele>26.697807312012</ele>
        <time>2012-01-29T11:46:07Z</time>
      </trkpt>
      <trkpt lat="47.26886" lon="-1.63208">
        <ele>27.58302116394</ele>
        <time>2012-01-29T11:46:11Z</time>
      </trkpt>
      <trkpt lat="47.26885" lon="-1.63183">
        <ele>28.817659378052</ele>
        <time>2012-01-29T11:46:15Z</time>
      </trkpt>
      <trkpt lat="47.26878" lon="-1.63154">
        <ele>29.922166824341</ele>
        <time>2012-01-29T11:46:21Z</time>
      </trkpt>
      <trkpt lat="47.26875" lon="-1.63142">
        <ele>30.23536491394</ele>
        <time>2012-01-29T11:46:23Z</time>
      </trkpt>
      <trkpt lat="47.26871" lon="-1.63107">
        <ele>31.151601791382</ele>
        <time>2012-01-29T11:46:29Z</time>
      </trkpt>
      <trkpt lat="47.2686" lon="-1.63085">
        <ele>31.234252929688</ele>
        <time>2012-01-29T11:46:34Z</time>
      </trkpt>
      <trkpt lat="47.26846" lon="-1.63068">
        <ele>30.587533950806</ele>
        <time>2012-01-29T11:46:39Z</time>
      </trkpt>
      <trkpt lat="47.26828" lon="-1.63052">
        <ele>29.945709228516</ele>
        <time>2012-01-29T11:46:45Z</time>
      </trkpt>
      <trkpt lat="47.26823" lon="-1.63039">
        <ele>29.949146270752</ele>
        <time>2012-01-29T11:46:48Z</time>
      </trkpt>
      <trkpt lat="47.26808" lon="-1.6303">
        <ele>30.297582626343</ele>
        <time>2012-01-29T11:46:53Z</time>
      </trkpt>
      <trkpt lat="47.26802" lon="-1.63016">
        <ele>29.974353790283</ele>
        <time>2012-01-29T11:46:56Z</time>
      </trkpt>
      <trkpt lat="47.268" lon="-1.63011">
        <ele>29.853797912598</ele>
        <time>2012-01-29T11:46:57Z</time>
      </trkpt>
      <trkpt lat="47.26793" lon="-1.62997">
        <ele>29.545476913452</ele>
        <time>2012-01-29T11:47:00Z</time>
      </trkpt>
      <trkpt lat="47.26786" lon="-1.62961">
        <ele>30.104639053345</ele>
        <time>2012-01-29T11:47:05Z</time>
      </trkpt>
      <trkpt lat="47.26784" lon="-1.62917">
        <ele>30.62801361084</ele>
        <time>2012-01-29T11:47:11Z</time>
      </trkpt>
      <trkpt lat="47.26782" lon="-1.62876">
        <ele>32.302963256836</ele>
        <time>2012-01-29T11:47:17Z</time>
      </trkpt>
      <trkpt lat="47.26776" lon="-1.62842">
        <ele>33.560794830322</ele>
        <time>2012-01-29T11:47:22Z</time>
      </trkpt>
      <trkpt lat="47.26771" lon="-1.62784">
        <ele>34.926052093506</ele>
        <time>2012-01-29T11:47:30Z</time>
      </trkpt>
      <trkpt lat="47.26768" lon="-1.62729">
        <ele>35.521423339844</ele>
        <time>2012-01-29T11:47:37Z</time>
      </trkpt>
      <trkpt lat="47.26766" lon="-1.62683">
        <ele>35.361206054688</ele>
        <time>2012-01-29T11:47:43Z</time>
      </trkpt>
      <trkpt lat="47.26764" lon="-1.62629">
        <ele>33.980525970459</ele>
        <time>2012-01-29T11:47:50Z</time>
      </trkpt>
      <trkpt lat="47.26764" lon="-1.62621">
        <ele>33.710250854492</ele>
        <time>2012-01-29T11:47:51Z</time>
      </trkpt>
      <trkpt lat="47.26765" lon="-1.62586">
        <ele>32.63060760498</ele>
        <time>2012-01-29T11:47:56Z</time>
      </trkpt>
      <trkpt lat="47.26766" lon="-1.62572">
        <ele>32.404956817627</ele>
        <time>2012-01-29T11:47:58Z</time>
      </trkpt>
      <trkpt lat="47.26769" lon="-1.62542">
        <ele>32.082584381104</ele>
        <time>2012-01-29T11:48:02Z</time>
      </trkpt>
      <trkpt lat="47.26771" lon="-1.62514">
        <ele>31.721578598023</ele>
        <time>2012-01-29T11:48:06Z</time>
      </trkpt>
      <trkpt lat="47.26777" lon="-1.62444">
        <ele>28.95246887207</ele>
        <time>2012-01-29T11:48:16Z</time>
      </trkpt>
      <trkpt lat="47.26783" lon="-1.62408">
        <ele>27.672571182251</ele>
        <time>2012-01-29T11:48:22Z</time>
      </trkpt>
      <trkpt lat="47.26789" lon="-1.62374">
        <ele>27.217269897461</ele>
        <time>2012-01-29T11:48:28Z</time>
      </trkpt>
      <trkpt lat="47.26799" lon="-1.62364">
        <ele>27.069080352783</ele>
        <time>2012-01-29T11:48:32Z</time>
      </trkpt>
      <trkpt lat="47.26813" lon="-1.62376">
        <ele>27.397855758667</ele>
        <time>2012-01-29T11:48:40Z</time>
      </trkpt>
      <trkpt lat="47.26822" lon="-1.62385">
        <ele>27.735080718994</ele>
        <time>2012-01-29T11:48:46Z</time>
      </trkpt>
      <trkpt lat="47.26833" lon="-1.62396">
        <ele>28.248121261597</ele>
        <time>2012-01-29T11:48:54Z</time>
      </trkpt>
      <trkpt lat="47.26846" lon="-1.62408">
        <ele>29.845388412476</ele>
        <time>2012-01-29T11:49:02Z</time>
      </trkpt>
      <trkpt lat="47.26858" lon="-1.6242">
        <ele>31.494934082031</ele>
        <time>2012-01-29T11:49:10Z</time>
      </trkpt>
      <trkpt lat="47.26871" lon="-1.62429">
        <ele>33.181793212891</ele>
        <time>2012-01-29T11:49:18Z</time>
      </trkpt>
      <trkpt lat="47.26885" lon="-1.62433">
        <ele>34.741622924805</ele>
        <time>2012-01-29T11:49:26Z</time>
      </trkpt>
      <trkpt lat="47.26901" lon="-1.62434">
        <ele>36.291152954102</ele>
        <time>2012-01-29T11:49:34Z</time>
      </trkpt>
      <trkpt lat="47.26917" lon="-1.62437">
        <ele>38.025527954102</ele>
        <time>2012-01-29T11:49:42Z</time>
      </trkpt>
      <trkpt lat="47.26932" lon="-1.62446">
        <ele>39.90115737915</ele>
        <time>2012-01-29T11:49:50Z</time>
      </trkpt>
      <trkpt lat="47.26939" lon="-1.62456">
        <ele>41.183071136475</ele>
        <time>2012-01-29T11:49:56Z</time>
      </trkpt>
      <trkpt lat="47.26945" lon="-1.62444">
        <ele>41.132698059082</ele>
        <time>2012-01-29T11:50:01Z</time>
      </trkpt>
      <trkpt lat="47.26949" lon="-1.62428">
        <ele>40.720050811768</ele>
        <time>2012-01-29T11:50:06Z</time>
      </trkpt>
      <trkpt lat="47.26957" lon="-1.62427">
        <ele>41.390510559082</ele>
        <time>2012-01-29T11:50:09Z</time>
      </trkpt>
      <trkpt lat="47.2697" lon="-1.6243">
        <ele>42.804946899414</ele>
        <time>2012-01-29T11:50:14Z</time>
      </trkpt>
      <trkpt lat="47.26993" lon="-1.62429">
        <ele>45.06107711792</ele>
        <time>2012-01-29T11:50:23Z</time>
      </trkpt>
      <trkpt lat="47.27004" lon="-1.62424">
        <ele>45.516819000244</ele>
        <time>2012-01-29T11:50:29Z</time>
      </trkpt>
      <trkpt lat="47.27008" lon="-1.62421">
        <ele>45.461185455322</ele>
        <time>2012-01-29T11:50:31Z</time>
      </trkpt>
      <trkpt lat="47.27011" lon="-1.62423">
        <ele>45.59398651123</ele>
        <time>2012-01-29T11:50:36Z</time>
      </trkpt>
      <trkpt lat="47.27011" lon="-1.62423">
        <ele>45.61043548584</ele>
        <time>2012-01-29T11:50:37Z</time>
      </trkpt>
    </trkseg>
  </trk>
</gpx>